     2              OBSERVATION DATA    GPS                 RINEX VERSION / TYPE
teqc 1999Jul19 19991123 03:03:32UTC                         PGM / RUN BY / DATE
                                                            COMMENT
Original Marker Name: 0414                                  COMMENT
Campaign Name: HPGN 1991                                    COMMENT
4-Character Station Name: 0414                              COMMENT
6-Character Antenna Code: TRMSST                            COMMENT
Vertical Measurement Point: BPA                             COMMENT
Vertical Offset to Rinex Ref. Point: 0.0000                 COMMENT
Radial Measurement Point: RRP                               COMMENT
Radial Offset to Rinex Ref. Point: 0.0000                   COMMENT
Antenna Height from Field Measurement: 2.2200 m             COMMENT
                                                            COMMENT
Original XYZ: -2701982.4087 -4190707.5311 3963875.6744      COMMENT
New XYZ position is based on association with SCEC monument COMMENT
E1F8S7R9+0011. Position of that monument is believed to be  COMMENT
valid to within 1 m horizontally; vertical accuracy         COMMENT
should be no worse than 3-times this value.                 COMMENT
                                                            COMMENT
Revised Rinex header created by UCSD GPS archive for        COMMENT
GSAC on 10-Mar-2000 (2000:070) 05:07:40 GMT                 COMMENT
For assistance contact dagnew@ucsd.edu or hjohnson@ucsd.edu COMMENT
                                                            COMMENT
HPGN CA 04 14                                               MARKER NAME
0414                                                        MARKER NUMBER
-Unknown- CALIF DEPT TRANSPORTATION                         OBSERVER / AGENCY
482 TRIMBLE 4000 SST NP 4.30 / SP 4.20                      REC # / TYPE / VERS
20 TR 4000SST L1/L2 GEO                                     ANT # / TYPE
 -2701986.9893 -4190714.2300  3963873.8025                  APPROX POSITION XYZ
        2.2200        0.0000        0.0000                  ANTENNA: DELTA H/E/N
     1     1     0                                          WAVELENGTH FACT L1/2
     5    C1    L1    L2    S1    S2                        # / TYPES OF OBSERV
     0                                                      INTERVAL
  1991     7     9     1    43   45.000000                  TIME OF FIRST OBS
  1991     7     9     7    43   60.000000                  TIME OF LAST OBS
                                                            END OF HEADER
 91  7  9  1 43 45.0000000  0  5G 3G16G17G20G23
  20766023.211          -0.42617        -0.44733        27.250           2.625
  22356792.844          -0.43817        -0.15132        23.000           1.719
  21050911.758          -0.02617        -0.17633        23.750           3.156
  22697867.789          -0.08416        -0.38131        17.250           1.250
  24241479.813          -0.16315                         8.500
 91  7  9  1 44  0.0000000  0  5G 3G16G17G20G23
  20761989.664      -21206.799 7    -16524.88323        27.500           2.531
  22361938.484       27037.783 7     21068.57222        23.250           1.813
  21045577.531      -28009.519 7    -21825.74023        23.000           3.125
  22706166.500       43606.799 6     33978.96721        17.000           1.375
  24229790.977      -61421.734 5                         8.750
 91  7  9  1 44 15.0000000  0  5G 3G16G17G20G23
  20757966.148      -42344.463 8    -32995.78323        28.500           2.719
  22367103.203       54182.760 7     42220.48622        23.000           1.719
  21040267.250      -55938.073 7    -43588.24523        23.000           3.031
  22714473.141       87276.204 6     68007.03621        16.250           1.313
  24218106.828     -122814.746 5        -0.25231         8.750           0.219
 91  7  9  1 44 30.0000000  0  5G 3G16G17G20G23
  20753956.000      -63418.814 7    -49417.35223        27.500           2.719
  22372288.695       81428.659 7     63451.03822        23.250           1.813
  21034963.273      -83791.032 7    -65291.84223        23.250           3.156
  22722795.445      131002.275 6    102079.26421        16.500           1.219
  24206428.344     -184184.286 5    -47820.59521         8.750           0.156
 91  7  9  1 44 45.0000000  0  5G 3G16G17G20G23
  20749959.414      -84416.852 8    -65779.45223        28.500           2.656
  22377492.867      108787.749 7     84769.79222        21.750           1.781
  21029680.383     -111555.333 7    -86926.35423        23.500           3.063
  22731129.867      174797.470 6    136205.35021        16.250           1.219
  24194760.359     -245517.188 5    -95612.38721         9.500           0.188
 91  7  9  1 45  0.0000000  0  5G 3G16G17G20G23
  20745976.914     -105336.756 7    -82080.66923        27.750           2.719
  22382721.227      136261.761 7    106178.08622        22.500           1.688
  21024417.711     -139229.774 7   -108490.84123        24.000           3.031
  22739476.398      218663.019 6    170386.25421        15.500           1.219
  24183097.445     -306811.776 5   -143374.34521        10.000           0.313
 91  7  9  1 45 15.0000000  0  5G 3G16G17G20G23
  20742014.227     -126175.962 7    -98319.00723        27.750           2.719
  22387972.859      163852.778 7    127677.56522        22.000           1.656
  21019165.828     -166811.608 7   -129983.16523        24.500           3.000
  22747838.180      262600.907 6    204623.51821        15.250           1.125
  24171437.852     -368065.257 5   -191104.26221         9.750           0.250
 91  7  9  1 45 30.0000000  0  5G 3G16G17G20G23
  20738060.867     -146939.512 8   -114498.39023        28.250           2.656
  22393242.766      191554.960 7    149263.67422        21.500           1.750
  21013936.273     -194306.514 7   -151407.76223        24.250           3.063
  22756211.945      306605.156 6    238912.49221        15.500           1.063
  24159789.289     -429283.022 5   -238806.32021         9.750           0.344
 91  7  9  1 45 45.0000000  0  5G 3G16G17G20G23
  20734125.070     -167626.941 8   -130618.46623        28.750           2.813
  22398537.586      219368.670 7    170936.67122        21.250           1.781
  21008719.219     -221714.064 7   -172764.29023        24.750           3.188
  22764594.555      350676.016 6    273253.38021        14.500           1.000
  24148144.641     -490464.111 5   -286479.84021         9.000           0.469
 91  7  9  1 46  0.0000000  0  5G 3G16G17G20G23
  20730203.906     -188238.097 8   -146679.10323        28.750           2.906
  22403849.445      247293.060 7    192695.91322        20.250           1.938
  21003517.563     -249034.358 7   -194052.82123        24.750           3.031
  22772998.438      394813.161 6    307645.90521        15.500           1.000
  24136505.719     -551608.220 5   -334124.52021         9.000           0.375
 91  7  9  1 46 15.0000000  0  5G 3G16G17G20G23
  20726294.672     -208773.352 8   -162680.59823        28.750           2.844
  22409187.320      275327.550 6    214540.95222        19.750           1.875
  20998340.578     -276268.117 7   -215273.91823        25.500           3.125
  22781409.977      439015.394 6    342089.15321        15.000           1.000
  24124877.508     -612715.872 5   -381740.80121         8.750           0.406
 91  7  9  1 46 30.0000000  0  5G 3G16G17G20G23
  20722402.656     -229231.306 8   -178621.85823        28.500           2.969
  22414541.063      303473.152 6    236472.56422        19.000           1.750
  20993172.211     -303413.806 7   -236426.39723        26.000           3.125
  22789834.891      483283.690 6    376583.87321        15.250           0.906
  24113255.195     -673785.430 5   -429327.41921         9.000           0.375
 91  7  9  1 46 45.0000000  0  5G 3G16G17G20G23
  20718525.492     -249605.419 8   -194497.79123        28.000           2.938
  22419920.094      331735.552 6    258495.18822        19.250           1.719
  20988023.664     -330465.483 7   -257505.62423        25.750           2.969
  22798269.469      527624.172 6    411134.85021        15.250           0.938
  24101648.023     -734810.363 5   -476879.25121         9.750           0.375
 91  7  9  1 47  0.0000000  0  5G 3G16G17G20G23
  20714662.359     -269897.767 8   -210310.00623        28.500           3.000
  22425321.125      360112.595 6    280607.15422        19.000           1.688
  20982895.445     -357425.167 7   -278513.16623        25.500           2.875
  22806721.461      572034.145 6    445739.97421        15.000           0.906
  24090046.063     -795792.650 5   -524397.85921        10.250           0.469
 91  7  9  1 47 15.0000000  0  5G 3G16G17G20G23
  20710816.563     -290113.188 8   -226062.27523        28.750           2.938
  22430739.398      388598.656 6    302804.06622        18.250           1.719
  20977780.039     -384298.057 7   -299453.06123        26.000           3.094
  22815183.414      616507.976 6    480394.87421        13.750           0.813
  24078448.492     -856737.158 5   -571887.01321        10.250           0.438
 91  7  9  1 47 30.0000000  0  5G 3G16G17G20G23
  20706985.313     -310255.797 8   -241757.81923        29.000           2.938
  22436180.609      417189.359 6    325082.51422        18.000           1.719
  20972679.836     -411088.431 7   -320328.66423        25.250           3.125
  22823658.219      661041.150 6    515095.99521        14.000           0.750
  24066855.063     -917647.792 5   -619349.77621        10.500           0.500
 91  7  9  1 47 45.0000000  0  5G 3G16G17G20G23
  20703164.594     -330323.454 8   -257394.95423        28.750           2.844
  22441642.297      445886.109 6    347443.59622        18.250           1.781
  20967601.586     -437794.400 7   -341138.49923        25.250           3.281
  22832144.617      705635.040 6    549844.42921        14.000           0.719
  24055270.969     -978522.622 5   -666784.64521        10.750           0.344
 91  7  9  1 48  0.0000000  0  5G 3G16G17G20G23
  20699361.867     -350315.465 8   -272973.14723        29.000           3.031
  22447122.141      474689.295 6    369887.61422        17.250           1.688
  20962534.344     -464415.590 7   -361882.27823        25.500           3.344
  22840644.656      750289.906 6    584640.37421        14.250           0.625
  24043693.492    -1039360.518 5   -714190.71721        10.500           0.594
 91  7  9  1 48 15.0000000  0  5G 3G16G17G20G23
  20695571.422     -370232.198 7   -288492.68223        27.750           3.000
  22452623.547      503597.962 6    392413.82522        18.000           1.594
  20957485.289     -490952.457 7   -382560.35423        26.500           3.281
  22849149.188      795004.935 6    619483.19421        14.750           0.750
  24032126.438    -1100161.821 5   -761568.30221        10.250           0.594
 91  7  9  1 48 30.0000000  0  5G 3G16G17G20G23
  20691795.742     -390071.505 8   -303951.86523        28.000           2.969
  22458142.758      532613.361 6    415023.21522        17.750           1.625
  20952452.813     -517403.148 7   -403171.26523        26.500           3.313
  22857675.047      839781.453 6    654373.94421        15.500           0.594
  24020561.766    -1160924.528 5   -808915.79521        10.000           0.594
 91  7  9  1 48 45.0000000  0  5G 3G16G17G20G23
  20688033.969     -409837.055 8   -319353.60223        28.000           3.063
  22463687.953      561731.712 6    437712.81722        18.000           1.656
  20947434.469     -543771.461 7   -423717.99623        25.750           3.281
  22866201.156      884615.380 6    689309.42821        15.500           0.625
  24009003.898    -1221651.833 5   -856235.70821         9.750           0.625
 91  7  9  1 49  0.0000000  0  5G 3G16G17G20G23
  20684287.992     -429527.852 8   -334697.07923        28.000           3.219
  22469246.242      590953.318 6    460482.87822        17.500           1.531
  20942430.758     -570056.629 7   -444199.93523        26.250           3.188
  22874746.156      929506.990 6    724289.84421        16.250           0.625
  23997456.547    -1282343.062 5   -903527.52821         9.250           0.625
 91  7  9  1 49 15.0000000  0  5G 3G16G17G20G23
  20680554.656     -449146.043 7   -349983.97823        27.500           3.188
  22474826.750      620275.628 6    483331.40722        17.250           1.531
  20937444.703     -596261.083 7   -464618.98223        26.750           3.125
  22883300.367      974453.719 6    759313.20421        16.500           0.625
  23985906.164    -1343000.140 5   -950792.71821         8.500           0.656
 91  7  9  1 49 30.0000000  0  5G 3G16G17G20G23
  20676832.961     -468691.827 7   -365214.46023        27.500           3.156
  22480425.953      649697.935 6    506257.85921        18.000           1.375
  20932475.742     -622385.344 7   -484975.54123        26.750           3.094
  22891864.195     1019454.729 6    794378.87421        16.500           0.719
  23974370.484    -1403623.265 5   -998031.46221         7.750           0.656
 91  7  9  1 49 45.0000000  0  5G 3G16G17G20G23
  20673128.844     -488160.361 7   -380384.74723        27.250           3.188
  22486045.328      679224.606 6    529265.63721        18.500           1.313
  20927519.648     -648424.765 7   -505265.99123        26.500           3.063
  22900437.078     1064514.331 6    829490.20121        16.000           0.719
  23962840.047    -1464207.439 5  -1045239.86021         7.500           0.688
 91  7  9  1 50  0.0000000  0  5G 3G16G17G20G23
  20669441.844     -507549.253 7   -395492.96923        27.750           3.063
  22491682.336      708857.691 6    552356.33221        18.000           1.281
  20922578.508     -674377.047 7   -525488.55323        26.250           3.250
  22909023.695     1109634.383 6    864648.63921        15.500           0.656
  23951320.211    -1524750.371 5  -1092416.11521         7.500           0.656
 91  7  9  1 50 15.0000000  0  5G 3G16G17G20G23
  20665765.813     -526863.914 7   -410543.34923        27.000           3.281
  22497342.617      738590.827 6    575524.98821        19.500           1.313
  20917656.641     -700247.930 7   -545647.67523        26.250           3.156
  22917620.445     1154808.704 6    899849.33821        15.750           0.688
  23939807.219    -1585257.347 5  -1139564.33421         7.500           0.625
 91  7  9  1 50 30.0000000  0  5G 3G16G17G20G23
  20662103.836     -546094.697 7   -425528.36123        27.250           3.219
  22503018.617      768433.267 6    598778.80721        19.250           1.344
  20912753.461     -726028.048 7   -565736.07723        26.500           3.031
  22926230.445     1200046.626 6    935099.61221        16.250           0.813
  23928306.766    -1645718.521 5  -1186676.88921         7.750           0.688
 91  7  9  1 50 45.0000000  0  5G 3G16G17G20G23
  20658461.453     -565244.721 7   -440450.46323        27.500           3.188
  22508720.570      798381.694 6    622115.21821        19.500           1.281
  20907862.047     -751720.766 7   -585756.36623        25.750           3.094
  22934848.125     1245344.360 6    970396.48921        16.250           0.750
  23916804.320    -1706137.145 5  -1233756.26421         7.750           0.688
 91  7  9  1 51  0.0000000  0  5G 3G16G17G20G23
  20654832.367     -584322.321 7   -455316.12123        27.500           3.250
  22514436.938      828427.326 6    645527.36521        19.750           1.344
  20902987.344     -777334.595 7   -605715.18723        25.750           2.969
  22943480.359     1290692.957 6   1005733.01621        16.750           0.719
  23905319.688    -1766521.275 5  -1280808.77621         8.500           0.656
 91  7  9  1 51 15.0000000  0  5G 3G16G17G20G23
  20651215.086     -603328.510 7   -470126.13523        27.250           3.188
  22520172.953      858568.247 7    669013.77321        20.250           1.313
  20898128.281     -802870.643 7   -625613.39823        25.500           3.031
  22952118.211     1336090.936 6   1041108.00421        17.250           0.688
  23893835.117    -1826871.820 5  -1327835.11121         8.500           0.563
 91  7  9  1 51 30.0000000  0  5G 3G16G17G20G23
  20647610.773     -622256.336 7   -484875.09723        27.000           3.063
  22525928.258      888810.942 7    692579.47621        20.500           1.313
  20893287.258     -828322.231 7   -645445.80523        26.000           3.031
  22960767.078     1381544.585 6   1076526.38421        17.250           0.813
  23882356.594    -1887181.778 5  -1374829.83621         8.000           0.563
 91  7  9  1 51 45.0000000  0  5G 3G16G17G20G23
  20644024.813     -641101.027 7   -499559.27523        26.750           3.188
  22531702.172      919159.769 7    716227.89521        21.000           1.375
  20888460.313     -853684.793 7   -665208.83423        25.500           3.063
  22969424.852     1427058.141 6   1111991.44921        17.000           0.844
  23870894.688    -1947446.190 5  -1421789.07521         9.000           0.531
 91  7  9  1 52  0.0000000  0  5G 3G16G17G20G23
  20640455.266     -659870.194 7   -514184.59523        26.000           3.125
  22537495.813      949606.682 7    739952.73721        20.750           1.469
  20883647.773     -878966.316 7   -684908.71923        26.000           2.938
  22978096.617     1472623.280 6   1147496.70521        17.000           0.875
  23859426.164    -2007672.938 5  -1468718.95821         8.250           0.594
 91  7  9  1 52 15.0000000  0  5G 3G16G17G20G23
  20636897.266     -678563.092 7   -528750.49323        26.250           3.219
  22543309.672      980152.040 7    763754.28721        21.000           1.313
  20878853.102     -904166.094 7   -704544.90223        25.750           2.938
  22986777.078     1518240.474 6   1183042.52321        17.000           0.906
  23847977.133    -2067860.919 5  -1515618.62721         8.750           0.469
 91  7  9  1 52 30.0000000  0  5G 3G16G17G20G23
  20633355.109     -697177.752 7   -543255.42123        26.750           3.063
  22549140.688     1010796.904 7    787633.37721        21.250           1.344
  20874074.727     -929282.692 7   -724116.27323        25.750           2.938
  22995474.086     1563910.851 6   1218629.77621        17.000           0.813
  23836531.422    -2128008.332 5  -1562486.67321         8.750           0.406
 91  7  9  1 52 45.0000000  0  5G 3G16G17G20G23
  20629825.820     -715719.670 7   -557703.66523        26.750           3.156
  22554990.742     1041535.356 7    811585.39721        20.750           1.375
  20869309.898     -954321.729 7   -743627.19523        25.500           2.969
  23004169.859     1609628.246 6   1254253.66121        16.250           0.906
  23825093.023    -2188120.539 5  -1609327.31221         9.250           0.375
 91  7  9  1 53  0.0000000  0  5G 3G16G17G20G23
  20626314.016     -734183.936 7   -572091.40523        26.750           3.188
  22560859.070     1072372.086 7    835613.99121        21.250           1.313
  20864560.586     -979278.393 7   -763073.93123        25.250           2.844
  23012876.969     1655397.061 6   1289917.61421        16.000           0.906
  23813660.703    -2248192.661 5  -1656136.67921         9.500           0.375
 91  7  9  1 53 15.0000000  0  5G 3G16G17G20G23
  20622814.531     -752576.595 7   -586423.35023        27.250           3.250
  22566744.031     1103300.547 7    859714.06421        20.750           1.344
  20859823.109    -1004158.881 7   -782461.31023        24.750           3.031
  23021600.359     1701210.977 6   1325616.71721        16.500           0.969
  23802237.414    -2308230.356 5  -1702919.24621        10.000           0.438
 91  7  9  1 53 30.0000000  0  5G 3G16G17G20G23
  20619328.000     -770892.406 7   -600695.41023        27.500           3.344
  22572646.609     1134325.188 7    883889.08321        20.750           1.469
  20855104.313    -1028958.293 7   -801785.51523        24.500           3.000
  23030323.727     1747074.460 6   1361354.43821        16.500           0.938
  23790821.078    -2368228.446 5  -1749670.93621         9.750           0.344
 91  7  9  1 53 45.0000000  0  5G 3G16G17G20G23
  20615857.188     -789130.284 8   -614906.73823        28.500           3.313
  22578570.891     1165446.356 6    908139.31322        19.750           1.563
  20850402.859    -1053675.786 7   -821045.90323        24.500           3.031
  23039061.773     1792987.904 6   1397131.11121        16.750           1.000
  23779406.047    -2428186.012 5  -1796391.05421         9.750           0.406
 91  7  9  1 54  0.0000000  0  5G 3G16G17G20G23
  20612400.672     -807291.571 7   -629058.39223        27.750           3.250
  22584512.922     1196662.381 6    932463.45721        19.000           1.438
  20845715.594    -1078312.899 7   -840243.64623        25.250           2.844
  23047809.680     1838949.579 6   1432945.35321        16.500           0.875
  23768003.898    -2488103.979 5  -1843080.31721        10.000           0.406
 91  7  9  1 54 15.0000000  0  5G 3G16G17G20G23
  20608960.500     -825371.128 7   -643146.36023        27.750           3.281
  22590467.602     1227978.134 6    956865.32022        18.750           1.500
  20841043.016    -1102864.893 7   -859375.06123        25.250           2.844
  23056565.945     1884964.039 6   1468800.72521        16.500           1.000
  23756612.875    -2547977.457 5  -1889734.90921        10.500           0.375
 91  7  9  1 54 30.0000000  0  5G 3G16G17G20G23
  20605537.109     -843371.493 7   -657172.61823        27.750           3.344
  22596448.820     1259390.555 6    981342.50121        19.250           1.469
  20836382.922    -1127334.331 7   -878442.14323        24.750           3.000
  23065330.523     1931028.253 6   1504694.85521        16.000           1.094
  23745227.305    -2607808.643 5  -1936356.57421        11.000           0.344
 91  7  9  1 54 45.0000000  0  5G 3G16G17G20G23
  20602125.102     -861294.325 7   -671138.45623        27.750           3.313
  22602444.617     1290897.147 6   1005893.08021        19.250           1.406
  20831744.156    -1151723.403 7   -897446.60623        24.750           2.875
  23074110.805     1977139.644 6   1540625.75721        16.750           1.094
  23733847.844    -2667599.349 5  -1982946.66721        10.750           0.406
 91  7  9  1 55  0.0000000  0  5G 3G16G17G20G23
  20598727.719     -879140.210 8   -685044.34223        28.000           3.375
  22608456.117     1322497.096 6   1030516.39621        19.000           1.469
  20827120.648    -1176032.585 7   -916388.82723        25.000           2.969
  23082888.938     2023297.076 6   1576592.52321        16.250           0.938
  23722476.141    -2727349.943 5  -2029505.49921        10.500           0.375
 91  7  9  1 55 15.0000000  0  5G 3G16G17G20G23
  20595346.852     -896906.343 8   -698888.08123        28.250           3.219
  22614484.844     1354192.633 6   1055214.20221        18.250           1.438
  20822508.523    -1200259.365 7   -935266.83123        24.250           3.031
  23091680.094     2069502.880 6   1612596.98221        15.500           1.000
  23711112.734    -2787057.511 5  -2076030.81821        11.000           0.250
 91  7  9  1 55 30.0000000  0  5G 3G16G17G20G23
  20591982.195     -914593.070 8   -712669.94523        28.250           3.250
  22620539.094     1385982.717 6   1079985.67322        18.500           1.531
  20817912.586    -1224404.526 7   -954081.24023        24.000           2.969
  23100483.766     2115756.312 6   1648638.56121        15.250           0.969
  23699763.422    -2846722.419 5  -2122522.89121        11.500           0.406
 91  7  9  1 55 45.0000000  0  5G 3G16G17G20G23
  20588632.500     -932204.574 8   -726393.19723        28.500           3.375
  22626602.805     1417862.864 6   1104827.32922        18.250           1.563
  20813332.609    -1248472.250 7   -972835.30223        24.750           2.906
  23109294.828     2162052.634 6   1684713.54821        15.000           1.000
  23688414.625    -2906348.798 5  -2168984.92821        11.250           0.406
 91  7  9  1 56  0.0000000  0  5G 3G16G17G20G23
  20585296.242     -949731.973 8   -740050.91023        28.000           3.375
  22632689.227     1449841.177 6   1129745.46722        18.500           1.531
  20808770.883    -1272454.009 7   -991522.37223        24.500           2.938
  23118114.227     2208400.036 6   1720828.34521        14.750           0.938
  23677075.828    -2965927.700 5  -2215409.99221        11.250           0.313
 91  7  9  1 56 15.0000000  0  5G 3G16G17G20G23
  20581976.641     -967179.460 8   -753646.34923        29.000           3.375
  22638792.375     1481913.044 6   1154736.52122        18.500           1.500
  20804221.945    -1296354.165 7  -1010145.86923        24.000           2.875
  23126942.664     2254793.600 6   1756979.11621        14.000           0.906
  23665745.961    -3025463.381 5  -2261801.36221        11.500           0.406
 91  7  9  1 56 30.0000000  0  5G 3G16G17G20G23
  20578669.406     -984548.652 8   -767180.78123        28.750           3.406
  22644912.313     1514076.509 6   1179798.93921        17.750           1.469
  20799689.953    -1320174.552 7  -1028707.19323        23.750           2.906
  23135779.344     2301231.416 6   1793164.37121        13.750           0.875
  23654426.727    -3084957.018 6  -2308159.96621        12.250           0.406
 91  7  9  1 56 45.0000000  0  5G 3G16G17G20G23
  20575379.891    -1001844.130 8   -780657.77623        29.000           3.344
  22651049.242     1546326.215 6   1204928.56821        17.500           1.438
  20795168.680    -1343920.074 7  -1047210.19223        23.750           2.813
  23144623.492     2347708.148 6   1829379.95421        13.000           0.875
  23643114.125    -3144413.381 6  -2354489.55321        12.250           0.375
 91  7  9  1 57  0.0000000  0  5G 3G16G17G20G23
  20572104.320    -1019055.888 8   -794069.53623        28.500           3.406
  22657207.063     1578671.807 6   1230132.89621        17.000           1.406
  20790666.172    -1367581.084 7  -1065647.33823        24.750           2.750
  23153476.609     2394233.192 6   1865633.17421        13.500           1.000
  23631809.695    -3203822.454 6  -2400782.26621        12.250           0.438
 91  7  9  1 57 15.0000000  0  5G 3G16G17G20G23
  20568844.875    -1036186.250 8   -807417.86623        28.750           3.313
  22663376.141     1611110.092 6   1255409.46821        16.250           1.438
  20786180.602    -1391160.046 7  -1084020.55123        25.250           2.719
  23162337.813     2440803.762 6   1901921.88121        12.750           0.906
  23620513.992    -3263186.524 5  -2447039.90921        11.750           0.438
 91  7  9  1 57 30.0000000  0  5G 3G16G17G20G23
  20565600.227    -1053234.987 8   -820702.59023        29.000           3.219
  22669568.070     1643641.423 6   1280758.52821        16.250           1.375
  20781711.406    -1414657.004 7  -1102329.86423        25.750           2.719
  23171210.008     2487419.580 6   1938245.84021        12.250           0.875
  23609226.250    -3322505.040 5  -2493262.08121        11.500           0.344
 91  7  9  1 57 45.0000000  0  5G 3G16G17G20G23
  20562370.164    -1070202.525 8   -833924.04823        28.750           3.344
  22675772.961     1676264.621 6   1306179.16622        16.500           1.500
  20777256.211    -1438072.300 7  -1120575.54223        25.500           2.813
  23180086.688     2534079.564 5   1974604.21921        11.250           0.969
  23597942.047    -3381778.525 5  -2539449.13921        11.250           0.281
 91  7  9  1 58  0.0000000  0  5G 3G16G17G20G23
  20559156.914    -1087089.863 8   -847083.00823        28.500           3.313
  22682001.516     1708977.717 6   1331669.87121        17.750           1.344
  20772813.836    -1461407.763 7  -1138759.00923        25.500           2.844
  23188975.992     2580781.777 5   2010995.49021        11.500           0.844
  23586669.484    -3441008.215 5  -2585602.08121         9.750           0.375
 91  7  9  1 58 15.0000000  0  5G 3G16G17G20G23
  20555961.039    -1103894.049 8   -860177.17323        28.250           3.281
  22688240.555     1741783.525 6   1357232.81921        17.000           1.281
  20768385.695    -1484660.317 7  -1156877.87023        25.500           2.781
  23197870.586     2627528.856 5   2047421.73721        11.500           0.844
  23575409.063    -3500190.810 5  -2631718.32721        10.750           0.344
 91  7  9  1 58 30.0000000  0  5G 3G16G17G20G23
  20552781.125    -1120614.022 8   -873205.72023        28.250           3.219
  22694503.672     1774682.581 6   1382868.42521        17.500           1.156
  20763978.781    -1507828.855 7  -1174931.26923        26.000           2.906
  23206771.875     2674321.517 5   2083883.49321        11.000           0.844
  23564157.500    -3559325.091 5  -2677796.94321        10.750           0.438
 91  7  9  1 58 45.0000000  0  5G 3G16G17G20G23
  20549612.281    -1137248.341 8   -886167.51923        28.000           3.250
  22700782.594     1807675.696 6   1408577.32121        17.500           1.063
  20759585.688    -1530912.617 7  -1192918.60223        25.750           2.781
  23215687.156     2721160.297 5   2120381.19521        11.000           0.906
  23552912.508    -3618409.897 5  -2723836.99321        10.500           0.375
 91  7  9  1 59  0.0000000  0  5G 3G16G17G20G23
  20546461.992    -1153800.141 7   -899065.02223        27.750           3.125
  22707078.086     1840759.353 6   1434356.77421        17.500           1.094
  20755211.875    -1553914.853 7  -1210842.41423        26.250           2.813
  23224610.672     2768041.653 5   2156912.06021        11.000           0.844
  23541679.352    -3677448.002 5  -2769840.66021        10.750           0.469
 91  7  9  1 59 15.0000000  0  5G 3G16G17G20G23
  20543328.094    -1170269.590 7   -911898.36123        27.500           3.188
  22713388.938     1873932.891 6   1460206.25921        17.250           1.188
  20750850.586    -1576836.048 7  -1228703.07523        27.000           2.844
  23233543.383     2814964.906 5   2193475.57921        11.500           0.813
  23530454.281    -3736439.477 5  -2815807.99221        10.750           0.469
 91  7  9  1 59 30.0000000  0  5G 3G16G17G20G23
  20540209.977    -1186653.155 7   -924664.77223        26.500           3.188
  22719718.930     1907199.250 6   1486128.06921        17.750           1.094
  20746501.711    -1599672.829 7  -1246497.95623        27.000           2.906
  23242477.563     2861933.151 5   2230074.15321        11.250           0.750
  23519238.023    -3795380.542 5  -2861736.05221        10.750           0.531
 91  7  9  1 59 45.0000000  0  5G 3G16G17G20G23
  20537110.734    -1202950.900 7   -937364.30923        26.250           3.188
  22726066.906     1940557.619 6   1512121.56821        19.000           1.156
  20742171.195    -1622425.486 7  -1264227.29623        26.250           2.813
  23251424.781     2908945.316 5   2266706.94921        11.250           0.750
  23508029.516    -3854271.488 5  -2907625.04221        10.250           0.500
 91  7  9  2  0  0.0000000  0  5G 3G16G17G20G23
  20534026.883    -1219164.080 7   -949997.95023        27.000           3.250
  22732435.305     1974006.356 6   1538185.50121        19.500           1.031
  20737858.211    -1645095.576 7  -1281892.29623        26.250           2.906
  23260378.188     2955999.670 5   2303372.62421        11.250           0.656
  23496833.789    -3913113.614 5  -2953476.00421        10.250           0.469
 91  7  9  2  0 15.0000000  0  5G 3G16G17G20G23
  20530953.336    -1235287.624 7   -962561.74623        26.000           3.094
  22738817.891     2007550.185 6   1564323.51621        19.500           0.938
  20733562.852    -1667678.007 7  -1299488.99723        27.000           2.938
  23269339.266     3003100.894 5   2340074.81621        10.750           0.594
  23485646.586    -3971901.597 5  -2999284.77621         9.750           0.563
 91  7  9  2  0 30.0000000  0  5G 3G16G17G20G23
  20527901.547    -1251327.139 7   -975060.06023        25.750           3.094
  22745216.930     2041182.820 6   1590530.73321        19.250           1.063
  20729282.875    -1690178.974 7  -1317022.21423        27.750           3.063
  23278312.469     3050242.603 5   2376808.54721        11.250           0.688
  23474471.883    -4030641.314 5  -3045055.93821        10.000           0.563
 91  7  9  2  0 45.0000000  0  5G 3G16G17G20G23
  20524866.945    -1267284.235 7   -987494.16023        26.250           3.063
  22751632.719     2074902.078 6   1616805.43621        19.250           1.063
  20725012.180    -1712600.224 7  -1334493.31823        27.000           3.063
  23287287.141     3097422.820 5   2413572.30221        11.250           0.750
  23463296.352    -4089334.025 5  -3090790.46621         9.250           0.531
 91  7  9  2  1  0.0000000  0  5G 3G16G17G20G23
  20521848.063    -1283154.269 7   -999860.42223        26.250           3.094
  22758067.328     2108712.124 6   1643150.89121        19.500           0.969
  20720760.914    -1734937.471 7  -1351898.96623        27.000           3.156
  23296277.539     3144645.492 5   2450369.12321        11.750           0.688
  23452137.859    -4147975.021 5  -3136484.70221         9.000           0.750
 91  7  9  2  1 15.0000000  0  5G 3G16G17G20G23
  20518844.633    -1298940.815 7  -1012161.62023        26.500           3.063
  22764519.102     2142608.969 7   1669563.98721        20.000           1.000
  20716527.750    -1757194.441 7  -1369242.05523        26.750           3.188
  23305267.313     3191906.635 5   2487195.93021        11.500           0.594
  23440991.656    -4206567.724 5  -3182141.31721         9.000           0.688
 91  7  9  2  1 30.0000000  0  5G 3G16G17G20G23
  20515853.617    -1314644.371 7  -1024398.16223        26.500           3.031
  22770985.250     2176591.527 6   1696043.89121        19.500           0.969
  20712308.516    -1779371.673 7  -1386523.00123        26.750           3.094
  23314267.438     3239205.010 5   2524051.76021        11.500           0.688
  23429852.234    -4265112.523 5  -3227760.59621         9.250           0.781
 91  7  9  2  1 45.0000000  0  5G 3G16G17G20G23
  20512881.938    -1330259.457 7  -1036565.76023        26.750           3.031
  22777469.867     2210664.542 6   1722594.26021        19.250           1.000
  20708104.531    -1801464.099 7  -1403737.86123        27.000           3.188
  23323274.297     3286545.395 5   2560940.31221        11.750           0.531
  23418723.070    -4323604.140 5  -3273338.41621         9.250           0.750
 91  7  9  2  2  0.0000000  0  5G 3G16G17G20G23
  20509929.320    -1345786.997 7  -1048665.12923        26.500           3.031
  22783970.438     2244826.661 6   1749214.05921        19.250           1.156
  20703912.719    -1823472.612 7  -1420887.34123        26.750           3.219
  23332296.063     3333926.446 6   2597860.55021        12.000           0.688
  23407599.414    -4382043.327 5  -3318875.40521         9.750           0.781
 91  7  9  2  2 15.0000000  0  5G 3G16G17G20G23
  20506991.555    -1361229.419 7  -1060698.18123        26.750           2.969
  22790485.883     2279075.189 6   1775901.18721        18.000           1.219
  20699740.289    -1845400.120 7  -1437973.70623        27.500           3.219
  23341319.328     3381345.190 6   2634810.14521        12.000           0.656
  23396488.875    -4440432.562 5  -3364373.46021        10.250           0.781
 91  7  9  2  2 30.0000000  0  5G 3G16G17G20G23
  20504067.195    -1376587.774 7  -1072665.73223        26.250           2.938
  22797020.414     2313408.758 6   1802654.58721        18.000           1.125
  20695585.758    -1867247.859 7  -1454997.91323        27.500           3.281
  23350347.039     3428800.075 6   2671787.92021        12.250           0.594
  23385384.078    -4498772.634 5  -3409833.20721        10.500           0.719
 91  7  9  2  2 45.0000000  0  5G 3G16G17G20G23
  20501159.859    -1391862.014 7  -1084567.73223        26.750           3.000
  22803572.023     2347826.456 6   1829473.54721        18.250           1.031
  20691442.969    -1889016.136 7  -1471960.19623        26.500           3.281
  23359385.086     3476290.450 6   2708793.33821        12.250           0.594
  23374295.141    -4557063.549 5  -3455254.65321        11.000           0.750
 91  7  9  2  3  0.0000000  0  5G 3G16G17G20G23
  20498270.258    -1407048.042 7  -1096401.00123        26.750           2.969
  22810136.180     2382331.579 6   1856360.63121        17.750           1.125
  20687315.430    -1910701.122 7  -1488857.58723        26.000           3.250
  23368427.797     3523819.721 6   2745829.07121        12.750           0.531
  23363211.664    -4615301.221 5  -3500634.61321        10.750           0.750
 91  7  9  2  3 15.0000000  0  5G 3G16G17G20G23
  20495398.727    -1422149.619 7  -1108168.46023        26.750           3.063
  22816717.242     2416919.975 6   1883312.58721        17.250           1.219
  20683203.711    -1932306.659 7  -1505693.05623        26.500           3.250
  23377483.336     3571383.792 6   2782891.91421        13.750           0.500
  23352136.141    -4673489.174 5  -3545975.82021        11.000           0.813
 91  7  9  2  3 30.0000000  0  5G 3G16G17G20G23
  20492542.055    -1437167.868 7  -1119870.99423        27.500           3.031
  22823314.234     2451590.286 6   1910328.38321        16.750           1.281
  20679107.461    -1953834.306 7  -1522467.84023        26.750           3.250
  23386540.359     3618980.876 6   2819980.50021        13.750           0.531
  23341071.227    -4731628.748 5  -3591279.32821        11.250           0.750
 91  7  9  2  3 45.0000000  0  5G 3G16G17G20G23
  20489698.227    -1452100.771 7  -1131507.02323        27.000           3.063
  22829928.508     2486343.874 6   1937409.06821        16.750           1.156
  20675027.086    -1975282.195 7  -1539180.47523        26.750           3.250
  23395604.641     3666612.311 6   2857095.83121        13.750           0.406
  23330022.844    -4789717.789 5  -3636543.46421        11.750           0.688
 91  7  9  2  4  0.0000000  0  5G 3G16G17G20G23
  20486869.633    -1466949.367 7  -1143077.35423        26.500           3.125
  22836555.734     2521179.417 6   1964553.60921        16.500           1.156
  20670961.352    -1996651.697 7  -1555832.02823        26.750           3.344
  23404675.563     3714276.787 6   2894236.91521        13.750           0.438
  23318973.500    -4847757.052 5  -3681768.81921        11.750           0.781
 91  7  9  2  4 15.0000000  0  5G 3G16G17G20G23
  20484065.383    -1481716.199 7  -1154583.97423        27.250           3.188
  22843200.188     2556093.508 6   1991759.36021        15.750           1.188
  20666905.844    -2017945.496 7  -1572424.59323        26.000           3.375
  23413752.938     3761970.992 6   2931401.18321        13.750           0.500
  23307939.578    -4905749.173 6  -3726957.43221        12.500           0.781
 91  7  9  2  4 30.0000000  0  5G 3G16G17G20G23
  20481269.875    -1496397.145 7  -1166023.67223        26.250           3.094
  22849862.438     2591089.737 6   2019029.12921        16.000           1.094
  20662868.398    -2039159.613 7  -1588955.06923        26.750           3.438
  23422832.398     3809698.442 6   2968591.34021        13.750           0.406
  23296911.313    -4963689.951 6  -3772106.03421        13.250           0.656
 91  7  9  2  4 45.0000000  0  5G 3G16G17G20G23
  20478495.094    -1510977.894 7  -1177385.29323        27.000           3.250
  22856539.352     2626181.895 6   2046373.64621        15.750           0.969
  20658852.492    -2060280.139 7  -1605412.61524        27.000           3.531
  23431922.117     3857472.964 6   3005818.17621        13.250           0.469
  23285903.844    -5021565.181 6  -3817203.56621        14.250           0.688
 91  7  9  2  5  0.0000000  0  5G 3G16G17G20G23
  20475734.086    -1525473.328 7  -1188680.43223        26.250           3.188
  22863228.156     2661355.066 6   2073781.29921        15.500           1.063
  20654848.703    -2081322.139 7  -1621808.97023        26.750           3.469
  23441019.328     3905279.012 6   3043069.57921        13.750           0.500
  23274897.383    -5079389.427 6  -3862261.37321        14.250           0.625
 91  7  9  2  5 15.0000000  0  5G 3G16G17G20G23
  20472995.078    -1539878.347 7  -1199905.12023        26.250           3.156
  22869939.641     2696613.277 6   2101255.20921        15.750           1.031
  20650857.320    -2102280.656 7  -1638140.27623        26.750           3.469
  23450123.461     3953121.073 6   3080349.05021        13.750           0.531
  23263904.219    -5137157.577 6  -3907275.46021        15.250           0.563
 91  7  9  2  5 30.0000000  0  5G 3G16G17G20G23
  20470271.633    -1554194.199 7  -1211060.32523        26.000           3.063
  22876666.938     2731954.901 6   2128794.10421        15.750           1.031
  20646884.422    -2123157.272 7  -1654407.76623        27.000           3.438
  23459236.430     4000997.492 6   3117655.28921        13.750           0.563
  23252923.773    -5194870.969 6  -3952246.88221        15.500           0.656
 91  7  9  2  5 45.0000000  0  5G 3G16G17G20G23
  20467563.578    -1568419.567 7  -1222145.02523        26.250           3.250
  22883411.633     2767380.915 6   2156398.76321        16.250           1.000
  20642930.766    -2143951.016 7  -1670610.67423        27.250           3.406
  23468351.414     4048909.030 6   3154988.88421        13.500           0.531
  23241949.648    -5252528.074 6  -3997174.44621        15.000           0.594
 91  7  9  2  6  0.0000000  0  5G 3G16G17G20G23
  20464871.570    -1582555.000 7  -1233159.64123        26.000           3.188
  22890164.305     2802889.991 6   2184068.14821        16.500           0.938
  20638989.359    -2164662.755 7  -1686749.69024        27.500           3.500
  23477473.977     4096854.512 6   3192348.92321        13.500           0.563
  23230990.758    -5310129.349 6  -4042058.50821        15.000           0.719
 91  7  9  2  6 15.0000000  0  5G 3G16G17G20G23
  20462202.195    -1596600.715 7  -1244104.34923        26.250           3.188
  22896941.555     2838481.562 6   2211801.81621        16.500           1.063
  20635062.523    -2185292.755 7  -1702825.01324        27.750           3.500
  23486607.320     4144832.926 6   3229734.63321        13.750           0.531
  23220042.234    -5367675.217 6  -4086899.38221        15.000           0.656
 91  7  9  2  6 30.0000000  0  5G 3G16G17G20G23
  20459545.563    -1610558.514 7  -1254980.56323        26.000           3.156
  22903725.594     2874153.366 6   2239598.00121        16.500           1.094
  20631151.641    -2205843.030 7  -1718838.21423        27.500           3.469
  23495742.281     4192842.040 6   3267144.26421        14.000           0.531
  23209101.000    -5425167.286 6  -4131698.34821        15.000           0.719
 91  7  9  2  6 45.0000000  0  5G 3G16G17G20G23
  20456904.273    -1624429.667 7  -1265789.25023        26.750           3.063
  22910529.836     2909903.303 6   2267455.06721        16.250           1.000
  20627258.117    -2226315.207 7  -1734790.55224        27.500           3.625
  23504884.781     4240879.799 6   3304576.21421        13.500           0.531
  23198165.992    -5482606.812 6  -4176456.36421        14.250           0.719
 91  7  9  2  7  0.0000000  0  5G 3G16G17G20G23
  20454282.445    -1638208.651 7  -1276526.11723        26.250           3.094
  22917349.328     2945736.717 6   2295377.17921        16.750           1.063
  20623377.164    -2246703.819 8  -1750677.77724        28.000           3.719
  23514030.008     4288951.495 6   3342034.60821        12.750           0.500
  23187248.063    -5539988.036 6  -4221168.95121        14.250           0.844
 91  7  9  2  7 15.0000000  0  5G 3G16G17G20G23
  20451679.180    -1651897.509 7  -1287192.76023        26.000           3.063
  22924184.672     2981650.676 6   2323362.05421        17.250           1.063
  20619509.898    -2267011.337 7  -1766501.81224        27.500           3.688
  23523182.813     4337054.318 6   3379517.24821        12.750           0.531
  23176340.383    -5597313.128 6  -4265837.78621        14.000           0.781
 91  7  9  2  7 30.0000000  0  5G 3G16G17G20G23
  20449088.164    -1665498.637 7  -1297791.03423        25.750           3.094
  22931031.320     3017642.515 6   2351407.61621        17.250           0.969
  20615663.641    -2287240.514 7  -1782264.80624        27.000           3.719
  23532346.180     4385185.433 6   3417021.92621        13.250           0.500
  23165441.344    -5654584.393 6  -4310464.68221        14.250           0.719
 91  7  9  2  7 45.0000000  0  5G 3G16G17G20G23
  20446515.688    -1679016.214 7  -1308324.20723        26.000           3.063
  22937896.000     3053707.490 6   2379510.16721        17.250           0.969
  20611827.781    -2307395.393 7  -1797969.89824        27.750           3.781
  23541509.859     4433339.993 6   3454544.89821        12.750           0.375
  23154552.758    -5711805.806 6  -4355052.73421        14.000           0.750
 91  7  9  2  8  0.0000000  0  5G 3G16G17G20G23
  20443963.844    -1692443.393 7  -1318786.93923        26.250           3.000
  22944773.961     3089851.833 6   2407674.56321        17.250           0.938
  20608005.141    -2327469.477 7  -1813612.03524        27.750           3.813
  23550673.641     4481524.425 6   3492091.13921        12.500           0.531
  23143672.313    -5768970.517 6  -4399596.59621        14.000           0.719
 91  7  9  2  8 15.0000000  0  5G 3G16G17G20G23
  20441425.359    -1705776.665 7  -1329176.50023        26.500           2.969
  22951667.500     3126078.510 6   2435903.10921        17.250           0.844
  20604203.688    -2347459.892 7  -1829188.97524        27.750           3.750
  23559853.469     4529741.407 6   3529662.74221        12.500           0.438
  23132810.016    -5826075.227 6  -4444093.72221        14.250           0.719
 91  7  9  2  8 30.0000000  0  5G 3G16G17G20G23
  20438904.422    -1719017.696 7  -1339494.18823        26.250           2.938
  22958578.430     3162385.147 6   2464193.97121        17.250           0.969
  20600415.586    -2367368.435 7  -1844702.12324        27.750           3.906
  23569033.227     4577988.906 6   3567258.11821        12.250           0.438
  23121954.445    -5883121.376 6  -4488545.20921        14.000           0.594
 91  7  9  2  8 45.0000000  0  5G 3G16G17G20G23
  20436405.586    -1732165.313 7  -1349739.08223        26.500           3.031
  22965499.563     3198772.711 6   2492547.89321        16.750           0.969
  20596640.711    -2387193.870 8  -1860150.51024        28.000           3.844
  23578221.617     4626267.585 6   3604877.80321        12.000           0.406
  23111106.016    -5940107.589 6  -4532949.99721        13.750           0.531
 91  7  9  2  9  0.0000000  0  5G 3G16G17G20G23
  20433920.305    -1745219.880 7  -1359911.47323        27.250           3.063
  22972438.102     3235240.149 6   2520964.05421        16.000           0.938
  20592885.547    -2406937.118 8  -1875534.85324        28.000           3.938
  23587415.328     4674576.396 6   3642520.96221        12.000           0.375
  23100273.203    -5997034.263 6  -4577308.39721        13.250           0.688
 91  7  9  2  9 15.0000000  0  5G 3G16G17G20G23
  20431451.320    -1758186.722 7  -1370015.50723        26.500           3.000
  22979393.945     3271781.748 6   2549437.99121        16.000           0.906
  20589143.875    -2426603.690 8  -1890859.45324        28.000           3.969
  23596612.703     4722909.571 5   3680183.12521        11.750           0.344
  23089455.438    -6053906.614 6  -4621624.45821        13.000           0.656
 91  7  9  2  9 30.0000000  0  5G 3G16G17G20G23
  20429003.031    -1771064.801 7  -1380050.36923        26.750           2.938
  22986358.578     3308398.005 6   2577970.09921        15.500           0.906
  20585413.852    -2446192.499 8  -1906123.45924        28.750           3.906
  23605815.008     4771267.359 5   3717864.45721        11.500           0.344
  23078642.875    -6110723.550 6  -4665897.33521        12.250           0.688
 91  7  9  2  9 45.0000000  0  5G 3G16G17G20G23
  20426567.813    -1783848.097 7  -1390011.37923        26.750           2.875
  22993345.328     3345094.424 6   2606564.67421        16.000           0.906
  20581704.492    -2465697.834 8  -1921322.41324        29.000           3.781
  23615022.313     4819655.387 5   3755569.34321        11.500           0.313
  23067840.320    -6167479.247 5  -4710122.48421        11.750           0.750
 91  7  9  2 10  0.0000000  0  5G 3G16G17G20G23
  20424153.984    -1796539.520 7  -1399900.80123        27.000           3.125
  23000342.742     3381867.473 6   2635218.97821        16.000           0.875
  20578006.594    -2485123.040 8  -1936458.93324        28.750           3.844
  23624236.680     4868070.153 5   3793295.06321        11.250           0.438
  23057051.398    -6224176.606 6  -4754302.19921        12.000           0.719
 91  7  9  2 10 15.0000000  0  5G 3G16G17G20G23
  20421756.898    -1809138.912 7  -1409718.50523        26.500           3.031
  23007355.203     3418716.758 6   2663932.67621        16.250           0.844
  20574324.609    -2504468.224 8  -1951533.09624        29.250           3.938
  23633453.016     4916511.175 5   3831041.23721        11.500           0.438
  23046271.672    -6280815.293 5  -4798436.19421        11.500           0.656
 91  7  9  2 10 30.0000000  0  5G 3G16G17G20G23
  20419374.711    -1821644.581 7  -1419463.17623        26.750           2.969
  23014382.984     3455643.707 6   2692706.87921        16.500           0.844
  20570660.516    -2523731.903 8  -1966543.74924        28.500           3.969
  23642680.836     4964979.705 5   3868808.87021        11.750           0.531
  23035509.063    -6337393.478 5  -4842523.03721        11.750           0.813
 91  7  9  2 10 45.0000000  0  5G 3G16G17G20G23
  20417016.141    -1834051.309 7  -1429130.75423        26.500           2.938
  23021426.625     3492652.829 6   2721545.13221        17.000           0.844
  20567008.852    -2542908.691 8  -1981486.69124        28.500           3.875
  23651905.523     5013480.268 5   3906601.44521        10.750           0.500
  23024755.063    -6393905.581 5  -4886558.37521        11.500           0.719
 91  7  9  2 11  0.0000000  0  5G 3G16G17G20G23
  20414673.453    -1846358.256 7  -1438720.58023        27.000           3.000
  23028479.984     3529744.222 6   2750447.48221        16.000           0.844
  20563378.789    -2561998.324 8  -1996361.72124        28.500           3.969
  23661145.266     5062012.984 5   3944419.07121        11.000           0.469
  23014011.508    -6450351.289 5  -4930541.98521        11.750           0.813
 91  7  9  2 11 15.0000000  0  5G 3G16G17G20G23
  20412348.406    -1858579.617 7  -1448243.71823        26.750           2.875
  23035555.273     3566903.269 6   2779402.56121        15.750           0.844
  20559760.219    -2581015.571 8  -2011180.34624        29.750           3.906
  23670383.250     5110563.431 5   3982250.52921        10.000           0.531
  23003278.438    -6506744.547 5  -4974484.72221        11.250           0.813
 91  7  9  2 11 30.0000000  0  5G 3G16G17G20G23
  20410041.688    -1870704.513 7  -1457691.69123        26.750           2.844
  23042639.203     3604140.608 6   2808418.63321        15.000           0.844
  20556155.141    -2599949.535 8  -2025934.07524        29.750           4.063
  23679625.508     5159141.837 5   4020103.74821         9.750           0.500
  22992561.859    -6563074.275 5  -5018377.96821        11.500           0.813
 91  7  9  2 11 45.0000000  0  5G 3G16G17G20G23
  20407748.695    -1882739.697 7  -1467069.75423        26.750           2.719
  23049740.391     3641448.762 6   2837489.88821        15.500           0.781
  20552567.227    -2618806.965 8  -2040628.17424        29.250           3.938
  23688869.563     5207740.766 5   4057972.99121         9.250           0.438
  22981852.539    -6619347.241 5  -5062226.97121        11.500           0.875
 91  7  9  2 12  0.0000000  0  5G 3G16G17G20G23
  20405479.586    -1894684.339 7  -1476377.27023        26.750           2.719
  23056851.633     3678828.064 6   2866616.58721        15.000           0.906
  20548993.117    -2637587.717 8  -2055262.52124        30.250           3.938
  23698125.117     5256360.439 5   4095858.38321         8.750           0.344
  22971154.906    -6675562.609 5  -5106031.09621        11.250           1.031
 91  7  9  2 12 15.0000000  0  5G 3G16G17G20G23
  20403220.734    -1906537.584 7  -1485613.56023        27.000           2.844
  23063981.555     3716278.722 6   2895798.89021        15.500           0.969
  20545436.031    -2656290.859 8  -2069836.38524        29.750           3.875
  23707382.602     5305001.157 5   4133760.16421         8.750           0.531
  22960468.156    -6731719.408 5  -5149789.58921        11.250           0.875
 91  7  9  2 12 30.0000000  0  5G 3G16G17G20G23
  20400985.914    -1918298.877 7  -1494778.20223        25.750           2.688
  23071119.555     3753800.894 6   2925036.92221        15.500           0.906
  20541889.203    -2674916.148 8  -2084349.59224        30.000           3.844
  23716645.984     5353662.988 5   4171678.41221         9.250           0.500
  22949794.344    -6787816.988 5  -5193501.94521        11.750           1.000
 91  7  9  2 12 45.0000000  0  5G 3G16G17G20G23
  20398763.258    -1929964.767 7  -1503868.50823        26.250           2.844
  23078274.367     3791397.470 6   2954332.91521        15.250           0.844
  20538363.734    -2693460.462 8  -2098799.69624        30.000           3.875
  23725908.867     5402349.158 5   4209615.61221         9.000           0.469
  22939129.500    -6843851.870 5  -5237165.44321        11.500           0.969
 91  7  9  2 13  0.0000000  0  5G 3G16G17G20G23
  20396563.422    -1941528.877 7  -1512879.49623        26.000           2.719
  23085443.148     3829074.420 6   2983691.54421        15.250           0.875
  20534847.031    -2711917.803 8  -2113182.03224        29.750           4.063
  23735173.266     5451064.977 5   4247575.90821         9.000           0.469
  22928482.016    -6899817.940 6  -5280775.32721        12.000           1.000
 91  7  9  2 13 15.0000000  0  5G 3G16G17G20G23
  20394378.820    -1952998.580 7  -1521816.92623        25.500           2.875
  23092626.375     3866823.984 6   3013106.75921        15.500           0.750
  20531354.258    -2730295.457 8  -2127502.27624        30.250           3.969
  23744450.195     5499802.717 5   4285553.32621         8.750           0.344
  22917845.805    -6955722.194 6  -5324337.01521        13.000           1.000
 91  7  9  2 13 30.0000000  0  5G 3G16G17G20G23
  20392216.336    -1964375.516 7  -1530682.06423        25.750           2.813
  23099823.648     3904643.592 6   3042576.54321        16.000           0.875
  20527869.273    -2748595.499 8  -2141762.04424        29.750           4.094
  23753727.422     5548560.193 5   4323546.08321         9.250           0.406
  22907216.117    -7011566.353 6  -5367851.88621        12.750           0.969
 91  7  9  2 13 44.9990000  0  5G 3G16G17G20G23
  20390067.737    -1975661.518 7  -1539476.35723        25.750           2.844
  23107033.230     3942527.830 6   3072096.70221        15.500           0.750
  20524404.003    -2766819.591 8  -2155962.63124        30.250           4.125
  23763013.269     5597330.692 5   4361548.99721         9.750           0.438
  22896599.628    -7067349.321 6  -5411319.07521        12.750           0.969
 91  7  9  2 13 59.9990000  0  5G 3G16G17G20G23
  20387939.128    -1986850.484 7  -1548195.02323        25.000           2.875
  23114260.159     3980488.961 6   3101676.77921        15.750           0.750
  20520949.690    -2784962.341 8  -2170099.83024        30.500           4.188
  23772298.730     5646128.369 5   4399573.09621         9.750           0.406
  22885996.940    -7123070.288 6  -5454737.96021        12.750           0.969
 91  7  9  2 14 14.9990000  0  5G 3G16G17G20G23
  20385826.073    -1997947.777 7  -1556842.26423        26.000           2.781
  23121493.261     4018517.612 6   3131309.47421        15.000           0.719
  20517511.308    -2803029.076 8  -2184177.79924        29.750           4.094
  23781582.284     5694942.931 5   4437610.35021         9.250           0.500
  22875401.183    -7178731.955 6  -5498110.63321        13.000           0.969
 91  7  9  2 14 29.9990000  0  5G 3G16G17G20G23
  20383736.019    -2008946.478 7  -1565412.68123        25.250           2.781
  23128741.886     4056620.272 6   3160999.82521        14.750           0.781
  20514086.308    -2821013.466 8  -2198191.61024        30.000           4.031
  23790877.386     5743780.634 5   4475665.63521         9.250           0.281
  22864822.823    -7234327.512 6  -5541431.80021        13.750           1.063
 91  7  9  2 14 44.9990000  0  5G 3G16G17G20G23
  20381658.690    -2019842.790 7  -1573903.31423        25.000           2.844
  23136008.175     4094800.220 6   3190750.40021        15.000           0.781
  20510685.120    -2838911.933 8  -2212138.45624        30.500           4.031
  23800173.440     5792644.988 5   4513741.68221         9.000           0.438
  22854262.878    -7289853.000 6  -5584698.35121        14.500           0.938
 91  7  9  2 14 59.9990000  0  5G 3G16G17G20G23
  20379605.284    -2030643.713 7  -1582319.61323        24.500           2.813
  23143287.745     4133049.747 6   3220555.19821        15.250           0.813
  20507291.355    -2856731.632 8  -2226023.92524        30.250           4.188
  23809479.487     5841528.262 5   4551832.47721         9.500           0.406
  22843705.355    -7345315.623 6  -5627915.91921        15.250           1.000
 91  7  9  2 15 14.9990000  0  5G 3G16G17G20G23
  20377567.659    -2041348.049 7  -1590660.64923        24.750           2.969
  23150582.183     4171369.595 6   3250414.78421        15.250           0.781
  20503917.214    -2874471.569 8  -2239847.25124        30.000           4.125
  23818786.222     5890430.997 5   4589938.41721         9.500           0.406
  22833168.253    -7400713.877 6  -5671083.32221        16.000           1.031
 91  7  9  2 15 29.9990000  0  5G 3G16G17G20G23
  20375548.894    -2051958.791 7  -1598928.76223        25.250           2.875
  23157884.253     4209756.442 6   3280326.58121        15.000           0.844
  20500555.339    -2892134.870 8  -2253610.86024        30.000           4.219
  23828092.394     5939349.781 5   4628056.89221         9.500           0.375
  22822634.339    -7456050.548 6  -5714202.75121        15.500           0.969
 91  7  9  2 15 44.9990000  0  5G 3G16G17G20G23
  20373547.730    -2062473.556 7  -1607122.08723        25.250           2.844
  23165202.526     4248212.067 6   3310291.97521        15.000           0.719
  20497208.698    -2909719.701 8  -2267313.31924        29.500           4.188
  23837404.667     5988286.470 5   4666189.30821         9.500           0.406
  22812112.745    -7511323.516 6  -5757272.54521        15.500           1.094
 91  7  9  2 15 59.9990000  0  5G 3G16G17G20G23
  20371563.831    -2072894.599 7  -1615242.38023        25.500           2.969
  23172535.144     4286733.646 6   3340308.75221        14.750           0.719
  20493878.105    -2927228.338 8  -2280956.40724        29.500           4.156
  23846721.769     6037238.135 5   4704333.39621         9.750           0.438
  22801607.659    -7566534.946 6  -5800294.38321        16.250           1.031
 91  7  9  2 16 14.9990000  0  5G 3G16G17G20G23
  20369601.636    -2083221.502 7  -1623289.31323        25.500           2.906
  23179880.144     4325321.098 6   3370376.86321        14.250           0.781
  20490559.839    -2944660.463 8  -2294539.87324        29.500           4.094
  23856036.487     6086204.607 5   4742489.02621         9.500           0.500
  22791113.636    -7621684.260 6  -5843267.81221        16.500           1.094
 91  7  9  2 16 29.9990000  0  5G 3G16G17G20G23
  20367651.605    -2093451.252 7  -1631260.54623        25.250           2.969
  23187230.464     4363977.249 6   3400498.51221        13.500           0.719
  20487260.073    -2962013.237 8  -2308061.50724        30.250           4.094
  23865357.573     6135188.676 5   4780658.34121         9.000           0.438
  22780630.456    -7676768.400 6  -5886190.46621        16.500           1.125
 91  7  9  2 16 44.9990000  0  5G 3G16G17G20G23
  20365726.534    -2103580.536 7  -1639153.49523        26.000           2.875
  23194602.269     4402704.586 6   3430675.61421        13.250           0.719
  20483971.800    -2979283.832 8  -2321519.10724        29.750           4.000
  23874682.480     6184192.829 5   4818843.31921         9.500           0.438
  22770162.292    -7731784.103 6  -5929059.77721        16.750           1.031
 91  7  9  2 16 59.9990000  0  5G 3G16G17G20G23
  20363817.792    -2113610.959 7  -1646969.41823        25.500           2.906
  23201986.581     4441500.829 6   3460906.42121        13.500           0.781
  20480698.480    -2996474.146 8  -2334914.14524        29.250           4.156
  23884014.917     6233214.922 5   4857042.26621        10.250           0.500
  22759705.776    -7786732.850 6  -5971876.92421        16.750           1.063
 91  7  9  2 17 14.9990000  0  5G 3G16G17G20G23
  20361928.698    -2123534.051 7  -1654701.69623        26.000           2.906
  23209382.120     4480374.133 6   3491197.27021        13.750           0.688
  20477447.112    -3013575.765 8  -2348240.07724        29.000           4.125
  23893349.097     6282263.044 5   4895261.51021        10.500           0.500
  22749261.144    -7841605.983 6  -6014635.14721        17.000           1.063
 91  7  9  2 17 29.9990000  0  5G 3G16G17G20G23
  20360058.105    -2133362.772 7  -1662360.43923        25.250           2.906
  23216789.925     4519310.890 6   3521537.57921        13.250           0.719
  20474205.573    -3030602.079 8  -2361507.32924        29.250           4.031
  23902685.230     6331323.490 5   4933490.33921        11.000           0.531
  22738833.769    -7896416.644 6  -6057344.69721        17.250           1.094
 91  7  9  2 17 44.9990000  0  5G 3G16G17G20G23
  20358208.136    -2143096.906 7  -1669945.48123        25.500           2.844
  23224211.464     4558310.953 6   3551927.20521        13.000           0.750
  20470978.097    -3047552.893 8  -2374715.75424        29.000           4.156
  23912022.276     6380395.960 5   4971728.57121        11.500           0.531
  22728414.440    -7951164.386 6  -6100005.22221        17.250           0.969
 91  7  9  2 17 59.9990000  0  5G 3G16G17G20G23
  20356368.792    -2152731.571 7  -1677453.00823        25.000           2.750
  23231648.190     4597378.506 6   3582369.43321        13.250           0.688
  20467770.597    -3064424.032 8  -2387862.08324        29.250           4.063
  23921364.917     6429484.715 5   5009979.46221        11.250           0.531
  22718008.253    -8005844.479 6  -6142613.02821        17.250           1.000
 91  7  9  2 18 14.9990000  0  5G 3G16G17G20G23
  20354557.448    -2162266.170 7  -1684882.56823        25.250           2.719
  23239092.636     4636513.958 6   3612864.54621        13.000           0.813
  20464575.612    -3081214.856 8  -2400945.83524        29.000           4.094
  23930705.511     6478590.021 5   5048243.26321        11.250           0.563
  22707615.175    -8060455.936 6  -6185167.35921        17.250           0.844
 91  7  9  2 18 29.9990000  0  5G 3G16G17G20G23
  20352763.651    -2171706.061 7  -1692238.32823        25.250           2.750
  23246551.823     4675710.942 6   3643407.61221        13.250           0.906
  20461392.722    -3097930.823 8  -2413971.25924        28.750           4.063
  23940055.034     6527705.710 5   5086515.13921        11.250           0.469
  22697236.159    -8115004.426 6  -6227672.61321        17.250           1.000
 91  7  9  2 18 44.9990000  0  5G 3G16G17G20G23
  20350984.714    -2181048.145 7  -1699517.87023        25.250           2.781
  23254024.769     4714972.389 6   3674000.91521        14.000           0.813
  20458226.144    -3114569.162 8  -2426936.19924        29.000           4.094
  23949401.081     6576834.479 5   5124797.21421        11.000           0.500
  22686868.753    -8169486.636 6  -6270126.21921        17.250           1.000
 91  7  9  2 18 59.9990000  0  5G 3G16G17G20G23
  20349223.386    -2190293.595 7  -1706722.11223        25.250           2.688
  23261507.878     4754296.745 6   3704643.23321        13.500           0.813
  20455077.534    -3131131.237 8  -2439841.70624        29.250           4.094
  23958757.651     6625974.673 5   5163088.18921        11.250           0.500
  22676514.847    -8223903.791 6  -6312529.14321        17.250           1.063
 91  7  9  2 19 14.9990000  0  5G 3G16G17G20G23
  20347485.050    -2199440.269 7  -1713849.39023        25.250           2.813
  23269003.651     4793685.159 6   3735335.46921        13.750           0.781
  20451939.823    -3147615.304 8  -2452686.42524        29.250           4.063
  23968107.886     6675127.515 5   5201389.03421        11.250           0.469
  22666169.073    -8278253.707 6  -6354879.66121        16.500           1.031
 91  7  9  2 19 29.9990000  0  5G 3G16G17G20G23
  20345763.784    -2208490.073 7  -1720901.18123        25.250           2.781
  23276510.980     4833135.617 6   3766076.04121        14.000           0.688
  20448815.487    -3164023.467 8  -2465472.00324        28.750           4.188
  23977465.511     6724290.849 5   5239698.03221        11.000           0.500
  22655843.722    -8332538.050 6  -6397179.09121        17.000           1.031
 91  7  9  2 19 44.9990000  0  5G 3G16G17G20G23
  20344058.761    -2217445.816 7  -1727879.68423        25.750           2.750
  23284028.409     4872644.690 6   3796862.30321        13.750           0.813
  20445706.706    -3180358.680 8  -2478200.73624        28.500           4.156
  23986820.878     6773461.331 5   5278012.61421        11.000           0.563
  22645525.214    -8386759.692 6  -6439429.66021        17.000           1.031
 91  7  9  2 19 59.9990000  0  5G 3G16G17G20G23
  20342373.597    -2226300.403 7  -1734779.35723        25.750           2.750
  23291559.511     4912218.988 6   3827699.37921        13.500           0.781
  20442615.276    -3196614.090 8  -2490867.28524        28.750           4.188
  23996180.026     6822645.578 5   5316337.91521        10.500           0.594
  22635222.198    -8440911.385 6  -6481625.72521        16.000           1.000
 91  7  9  2 20 14.9990000  0  5G 3G16G17G20G23
  20340706.222    -2235055.088 7  -1741601.19323        25.250           2.656
  23299100.839     4951856.473 6   3858585.70221        13.750           0.750
  20439537.925    -3212791.250 8  -2503472.85824        29.000           4.125
  24005540.940     6871841.684 5   5354672.46521        10.750           0.500
  22624928.948    -8494994.531 6  -6523768.37321        16.000           0.969
 91  7  9  2 20 29.9990000  0  5G 3G16G17G20G23
  20339059.073    -2243713.757 7  -1748348.20823        25.250           2.781
  23306656.995     4991552.957 6   3889517.99721        14.000           0.750
  20436472.565    -3228894.146 8  -2516020.56124        28.750           4.125
  24014904.269     6921045.200 5   5393012.76821        10.500           0.469
  22614646.448    -8549012.832 6  -6565860.50121        15.250           1.031
 91  7  9  2 20 44.9990000  0  5G 3G16G17G20G23
  20337429.995    -2252275.383 7  -1755019.60423        25.750           2.813
  23314221.620     5031308.951 6   3920496.66521        14.000           0.719
  20433420.995    -3244922.226 8  -2528509.96824        28.500           4.063
  24024267.628     6970256.675 5   5431359.30221        10.000           0.500
  22604381.214    -8602965.337 6  -6607901.36221        15.250           1.063
 91  7  9  2 20 59.9990000  0  5G 3G16G17G20G23
  20335820.440    -2260740.087 7  -1761615.47623        25.500           2.688
  23321795.901     5071124.174 6   3951521.49021        13.500           0.813
  20430385.112    -3260875.790 8  -2540941.31724        28.250           4.094
  24033636.112     7019475.251 5   5469711.36221        10.000           0.406
  22594130.230    -8656852.063 6  -6649890.95921        15.500           1.000
 91  7  9  2 21 14.9990000  0  5G 3G16G17G20G23
  20334228.808    -2269104.605 7  -1768133.28123        26.250           2.813
  23329385.511     5111000.928 6   3982594.24421        13.250           0.781
  20427363.276    -3276751.807 8  -2553312.22824        28.000           4.031
  24043001.987     7068703.703 5   5508071.10521        10.250           0.344
  22583882.511    -8710669.494 6  -6691826.56221        14.500           1.031
 91  7  9  2 21 29.9990000  0  5G 3G16G17G20G23
  20332654.222    -2277372.897 7  -1774576.10623        26.500           2.813
  23336982.933     5150935.012 6   4013711.67621        13.500           0.781
  20424358.175    -3292554.383 7  -2565625.92324        27.750           3.938
  24052372.542     7117937.521 5   5546435.03021        10.250           0.375
  22573656.472    -8764421.866 6  -6733711.47721        14.500           1.063
 91  7  9  2 21 44.9990000  0  5G 3G16G17G20G23
  20331101.464    -2285535.710 7  -1780936.74123        27.000           2.906
  23344597.925     5190935.144 6   4044880.56421        14.000           0.781
  20421365.870    -3308274.244 7  -2577875.16324        27.250           3.938
  24061741.690     7167185.708 5   5584810.15021         9.500           0.344
  22563441.550    -8818099.490 6  -6775538.13221        14.750           1.031
 91  7  9  2 21 59.9990000  0  5G 3G16G17G20G23
  20329566.581    -2293590.529 7  -1787213.21523        26.250           2.781
  23352223.870     5231003.047 6   4076102.25821        14.500           0.844
  20418392.659    -3323909.488 8  -2590058.45624        28.000           3.969
  24071117.987     7216449.874 5   5623197.75021         9.500           0.313
  22553243.151    -8871700.233 6  -6817304.89121        14.250           1.094
 91  7  9  2 22 14.9990000  0  5G 3G16G17G20G23
  20328054.378    -2301540.585 7  -1793408.06223        26.750           2.781
  23359856.237     5271135.263 6   4107374.08321        14.250           0.875
  20415432.628    -3339463.524 7  -2602178.47224        27.750           3.875
  24080493.105     7265726.599 5   5661595.12621         9.250           0.344
  22543058.690    -8925227.147 6  -6859014.11521        14.250           1.125
 91  7  9  2 22 29.9990000  0  5G 3G16G17G20G23
  20326559.815    -2309387.824 7  -1799522.79123        26.000           2.688
  23367506.081     5311329.299 6   4138694.06321        14.500           0.875
  20412487.784    -3354938.415 8  -2614236.81924        28.000           3.844
  24089871.628     7315013.038 5   5700000.05321         8.750           0.344
  22532883.175    -8978682.090 6  -6900667.25821        13.500           1.125
 91  7  9  2 22 44.9990000  0  5G 3G16G17G20G23
  20325086.659    -2317130.346 7  -1805555.92923        26.250           2.688
  23375164.269     5351586.566 6   4170063.32421        14.250           0.688
  20409558.714    -3370332.498 8  -2626232.20724        28.000           3.938
  24099250.300     7364310.861 5   5738413.87721         8.500           0.313
  22522723.800    -9032062.947 6  -6942262.68321        13.250           1.031
 91  7  9  2 22 59.9990000  0  5G 3G16G17G20G23
  20323634.878    -2324767.323 7  -1811506.81423        26.250           2.719
  23382842.987     5391907.467 6   4201482.16421        14.500           0.813
  20406645.370    -3385645.372 8  -2638164.30924        28.250           3.781
  24108636.667     7413620.206 5   5776836.67321         8.250           0.250
  22512582.503    -9085369.104 6  -6983799.89821        13.500           1.156
 91  7  9  2 23 14.9990000  0  5G 3G16G17G20G23
  20322197.808    -2332309.451 7  -1817383.79723        26.500           2.688
  23390527.448     5432280.403 6   4232941.54921        14.750           0.656
  20403744.120    -3400887.790 8  -2650041.51024        28.750           3.719
  24118020.300     7462929.829 5   5815259.67121         7.500           0.406
  22502451.089    -9138611.099 6  -7025287.11421        13.250           1.125
 91  7  9  2 23 29.9990000  0  5G 3G16G17G20G23
  20320784.261    -2339745.407 7  -1823178.04323        26.500           2.719
  23398218.308     5472716.552 6   4264450.20221        14.250           0.688
  20400858.886    -3416048.689 8  -2661855.19524        28.500           3.688
  24127405.714     7512250.513 4   5853691.28521         7.250           0.313
  22492334.190    -9191777.488 6  -7066715.41521        13.750           1.125
 91  7  9  2 23 44.9990000  0  5G 3G16G17G20G23
  20319389.151    -2347073.925 7  -1828888.57723        26.500           2.719
  23405928.026     5513216.432 6   4296008.50521        14.250           0.625
  20397988.659    -3431127.435 8  -2673604.86324        28.250           3.688
  24136796.644     7561583.130 4   5892132.20321         6.750           0.281
  22482228.855    -9244867.163 6  -7108083.94621        13.500           1.094
 91  7  9  2 23 59.9990000  0  5G 3G16G17G20G23
  20318014.112    -2354301.794 7  -1834520.68423        27.000           2.844
  23413642.394     5553773.013 6   4327610.99521        13.500           0.563
  20395133.503    -3446130.540 8  -2685295.59324        28.000           3.656
  24146177.175     7610920.309 4   5930576.66821         6.500           0.281
  22472144.269    -9297886.648 6  -7149397.79121        14.750           1.094
 91  7  9  2 24 14.9990000  0  5G 3G16G17G20G23
  20316659.331    -2361425.830 7  -1840071.87523        26.500           2.969
  23421370.581     5594388.792 6   4359259.61021        13.500           0.625
  20392293.347    -3461055.162 8  -2696925.16524        28.000           3.813
  24155571.628     7660264.558 4   5969026.68421         6.250           0.313
  22462067.761    -9350832.735 6  -7190654.44021        15.750           1.125
 91  7  9  2 24 29.9990000  0  5G 3G16G17G20G23
  20315320.972    -2368451.879 7  -1845546.71023        26.250           2.906
  23429111.394     5635057.346 6   4390949.34621        13.500           0.594
  20389465.448    -3475907.577 8  -2708498.47224        28.000           3.719
  24164965.737     7709609.574 4   6007477.23121         7.250           0.281
  22452007.105    -9403711.246 6  -7231858.42321        16.000           1.219
 91  7  9  2 24 44.9990000  0  5G 3G16G17G20G23
  20314005.855    -2375372.284 7  -1850939.23123        26.250           2.969
  23436859.128     5675786.067 6   4422685.97621        13.000           0.563
  20386653.245    -3490680.088 8  -2720009.50724        28.500           3.719
  24174358.839     7758962.502 4   6045933.98921         7.000           0.281
  22441953.995    -9456514.377 6  -7273003.67221        14.750           1.250
 91  7  9  2 24 59.9990000  0  5G 3G16G17G20G23
  20312709.675    -2382192.284 7  -1856253.51323        26.250           2.813
  23444623.198     5716568.966 6   4454464.80521        13.750           0.594
  20383857.253    -3505378.163 8  -2731462.54624        28.250           3.688
  24183742.925     7808317.393 4   6084392.26621         7.250           0.188
  22431922.394    -9509247.633 6  -7314094.46521        15.750           1.375
 91  7  9  2 25 14.9990000  0  5G 3G16G17G20G23
  20311430.425    -2388906.516 7  -1861485.37623        26.250           2.750
  23452398.206     5757411.436 6   4486290.06421        13.750           0.625
  20381074.862    -3519996.943 7  -2742853.80024        27.750           3.594
  24193144.159     7857679.113 5   6122855.88321         7.500           0.250
  22421898.034    -9561905.432 6  -7355126.46721        15.750           1.375
 91  7  9  2 25 29.9990000  0  5G 3G16G17G20G23
  20310172.933    -2395514.938 7  -1866634.78823        26.500           2.688
  23460179.261     5798312.600 6   4518161.06521        13.250           0.500
  20378311.253    -3534536.638 8  -2754183.42524        28.250           3.688
  24202541.558     7907047.456 4   6161324.66121         7.250           0.281
  22411895.917    -9614487.744 6  -7396099.65021        16.000           1.281
 91  7  9  2 25 44.9990000  0  5G 3G16G17G20G23
  20308933.167    -2402022.779 7  -1871705.83023        26.500           2.875
  23467973.581     5839266.682 6   4550073.29121        13.500           0.594
  20375558.300    -3549002.583 7  -2765455.58124        27.500           3.719
  24211931.550     7956416.428 5   6199793.90321         7.500           0.188
  22401901.386    -9666999.565 6  -7437017.90221        16.500           1.469
 91  7  9  2 25 59.9990000  0  4G 3G16G17G23
  20307714.995    -2408424.019 7  -1876693.81423        26.500           2.750
  23475775.722     5880279.602 6   4582031.37521        12.500           0.594
  20372822.011    -3563388.693 8  -2776665.54024        28.000           3.688
  22391923.112    -9719434.845 6  -7477876.51321        17.000           1.313
 91  7  9  2 26 14.9990000  0  4G 3G16G17G23
  20306521.042    -2414718.958 7  -1881598.95423        26.500           2.906
  23483587.112     5921350.065 6   4614034.30221        12.250           0.438
  20370098.276    -3577695.907 8  -2787814.01524        28.750           3.781
  22381958.933    -9771794.156 6  -7518675.92721        17.250           1.375
 91  7  9  2 26 29.9990000  0  4G 3G16G17G23
  20305339.495    -2420916.634 7  -1886428.31123        26.000           2.875
  23491410.612     5962468.875 6   4646074.87621        12.250           0.656
  20367386.245    -3591933.215 8  -2798908.01524        28.250           3.719
  22372010.550    -9824086.177 6  -7559422.90722        17.750           1.500
 91  7  9  2 26 44.9990000  0  4G 3G16G17G23
  20304179.862    -2427005.816 7  -1891173.12923        25.750           2.875
  23499248.081     6003646.713 6   4678161.46521        12.750           0.563
  20364695.456    -3606089.724 8  -2809939.05724        28.750           3.688
  22362073.401    -9876299.701 6  -7600108.72521        18.000           1.375
 91  7  9  2 26 59.9990000  0  4G 3G16G17G23
  20303041.589    -2432983.492 7  -1895831.06023        26.000           2.719
  23507097.230     6044885.806 6   4710295.76721        12.500           0.594
  20362017.417    -3620162.805 8  -2820905.09024        28.250           3.719
  22352151.050    -9928431.826 6  -7640731.11022        18.000           1.500
 91  7  9  2 27 14.9990000  0  4G 3G16G17G23
  20301924.206    -2438858.649 7  -1900409.09623        26.250           2.750
  23514956.425     6086176.888 6   4742470.59721        12.750           0.656
  20359350.823    -3634161.664 8  -2831813.28724        28.000           3.688
  22342245.065    -9980491.247 6  -7681296.84121        18.750           1.375
 91  7  9  2 27 29.9990000  0  4G 3G16G17G23
  20300826.683    -2444633.279 7  -1904908.80423        25.750           2.781
  23522824.542     6127517.474 6   4774683.99621        12.500           0.594
  20356701.987    -3648088.353 8  -2842665.25524        28.750           3.688
  22332352.464   -10032479.972 6  -7721807.49121        19.000           1.344
 91  7  9  2 27 44.9990000  0  4G 3G16G17G23
  20299746.300    -2450301.745 7  -1909325.79423        25.750           2.844
  23530702.737     6168912.499 6   4806939.81521        13.250           0.594
  20354067.980    -3661937.420 8  -2853456.72824        29.000           3.656
  22322474.745   -10084392.448 6  -7762258.73021        19.500           1.438
 91  7  9  2 27 59.9990000  0  4G 3G16G17G23
  20298689.495    -2455856.875 7  -1913654.46223        25.250           2.781
  23538593.503     6210368.905 6   4839243.46621        13.750           0.656
  20351445.456    -3675702.143 8  -2864182.48524        28.250           3.594
  22312609.980   -10136221.385 6  -7802644.86421        19.250           1.344
 91  7  9  2 28 14.9990000  0  4G 3G16G17G23
  20297652.980    -2461315.345 7  -1917907.81223        25.750           2.719
  23546486.370     6251869.386 6   4871581.45721        12.750           0.625
  20348839.339    -3689399.312 8  -2874855.60723        28.750           3.469
  22302760.417   -10187983.464 6  -7842978.90521        19.000           1.281
 91  7  9  2 28 29.9990000  0  4G 3G16G17G23
  20296630.628    -2466669.674 7  -1922080.01623        25.000           2.781
  23554394.706     6293421.353 6   4903959.57221        12.750           0.688
  20346249.573    -3703021.363 8  -2885470.18923        29.500           3.406
  22292925.136   -10239670.994 6  -7883254.85321        19.250           1.438
 91  7  9  2 28 44.9990000  0  4G 3G16G17G23
  20295632.839    -2471924.582 7  -1926174.75123        25.500           2.781
  23562310.003     6335019.006 6   4936373.29421        12.000           0.625
  20343668.550    -3716573.692 8  -2896030.44224        29.250           3.531
  22283103.519   -10291288.792 6  -7923476.46621        19.500           1.344
 91  7  9  2 28 59.9990000  0  4G 3G16G17G23
  20294653.612    -2477071.227 7  -1930185.12623        26.000           2.844
  23570235.940     6376670.998 5   4968829.33821        11.500           0.656
  20341105.659    -3730047.413 8  -2906529.44324        29.250           3.563
  22273296.722   -10342827.863 6  -7963636.73621        19.750           1.313
 91  7  9  2 29 14.9990000  0  4G 3G16G17G23
  20293694.487    -2482101.790 7  -1934105.04623        25.500           2.813
  23578176.276     6418384.767 6   5001333.51421        12.500           0.719
  20338559.425    -3743435.043 8  -2916961.35724        28.750           3.563
  22263506.003   -10394280.429 7  -8003729.59421        20.000           1.344
 91  7  9  2 29 29.9990000  0  4G 3G16G17G23
  20292759.917    -2487025.581 7  -1937941.76223        25.750           2.750
  23586125.183     6460150.286 6   5033878.04021        12.500           0.813
  20336023.808    -3756746.205 8  -2927333.69324        28.750           3.563
  22253727.847   -10445655.675 7  -8043762.21221        20.000           1.344
 91  7  9  2 29 44.9990000  0  4G 3G16G17G23
  20291842.198    -2491842.586 7  -1941695.27123        26.000           2.688
  23594078.253     6501967.059 6   5066462.48521        12.250           0.781
  20333508.214    -3769980.973 8  -2937646.50524        29.500           3.500
  22243966.698   -10496953.587 6  -8083734.56721        19.500           1.406
 91  7  9  2 29 59.9990000  0  4G 3G16G17G23
  20290947.308    -2496554.268 7  -1945366.71623        25.750           2.750
  23602044.683     6543833.346 6   5099085.51621        12.250           0.781
  20331001.440    -3783141.131 8  -2947901.17824        30.000           3.594
  22234217.284   -10548175.673 6  -8123647.84121        19.500           1.344
 91  7  9  2 30 14.9990000  0  4G 3G16G17G23
  20290067.183    -2501160.931 7  -1948956.32423        24.750           2.594
  23610022.815     6585748.485 6   5131746.60021        12.250           0.813
  20328514.105    -3796226.943 8  -2958097.90524        30.250           3.563
  22224486.933   -10599321.911 7  -8163502.00921        20.250           1.313
 91  7  9  2 30 29.9990000  0  4G 3G16G17G23
  20289215.542    -2505654.858 7  -1952458.08623        25.250           2.625
  23618012.105     6627719.400 6   5164451.17621        12.250           0.781
  20326036.605    -3809231.227 8  -2968231.11324        30.000           3.719
  22214769.628   -10650384.738 7  -8203291.18321        20.250           1.219
 91  7  9  2 30 44.9990000  0  4G 3G16G17G23
  20288378.534    -2510045.114 7  -1955879.06123        25.750           2.625
  23626006.909     6669736.622 6   5197191.81021        12.000           0.813
  20323576.714    -3822163.444 8  -2978308.16924        29.750           3.688
  22205066.230   -10701373.458 7  -8243022.60421        20.250           1.250
 91  7  9  2 30 59.9990000  0  4G 3G16G17G23
  20287562.269    -2514326.938 7  -1959215.54523        25.000           2.563
  23634008.878     6711804.236 5   5229971.72021        11.000           0.813
  20321130.026    -3835018.631 8  -2988325.18924        30.250           3.813
  22195377.948   -10752282.903 7  -8282692.26521        20.500           1.344
 91  7  9  2 31 14.9990000  0  4G 3G16G17G23
  20286768.081    -2518503.311 7  -1962469.86623        25.000           2.719
  23642025.230     6753918.864 5   5262788.26521        11.250           0.813
  20318697.698    -3847800.061 8  -2998284.74224        30.500           4.063
  22185705.565   -10803115.871 7  -8322302.32021        20.250           1.281
 91  7  9  2 31 29.9990000  0  4G 3G16G17G23
  20285993.558    -2522570.221 7  -1965638.88923        25.500           2.594
  23650046.112     6796084.209 5   5295644.32821        10.500           0.719
  20316281.159    -3860504.064 8  -3008183.96624        30.500           4.125
  22176048.815   -10853868.651 7  -8361849.89721        20.250           1.281
 91  7  9  2 31 44.9990000  0  4G 3G16G17G23
  20285241.917    -2526531.539 7  -1968725.61723        25.000           2.688
  23658081.526     6838296.105 5   5328536.66321        10.750           0.781
  20313877.222    -3873134.546 8  -3018025.89924        31.000           4.063
  22166403.550   -10904544.857 7  -8401337.80721        20.000           1.219
 91  7  9  2 31 59.9990000  0  4G 3G16G17G23
  20284507.065    -2530384.692 7  -1971728.07623        25.250           2.688
  23666123.323     6880556.336 5   5361466.66221        11.000           0.688
  20311489.339    -3885689.523 8  -3027808.99524        30.750           4.281
  22156774.620   -10955142.088 6  -8440764.19021        19.500           1.125
 91  7  9  2 32 14.9990000  0  4G 3G16G17G23
  20283793.425    -2534138.387 7  -1974653.03523        24.750           2.594
  23674169.706     6922855.895 5   5394427.31721        11.250           0.719
  20309113.761    -3898177.467 8  -3037539.86024        31.500           4.125
  22147160.261   -11005668.650 6  -8480135.49621        19.500           1.281
 91  7  9  2 32 29.9990000  0  4G 3G16G17G23
  20283101.808    -2537776.895 7  -1977488.23623        24.750           2.656
  23682229.433     6965210.032 5   5427430.50921        11.000           0.656
  20306750.831    -3910582.963 8  -3047206.48624        31.750           4.031
  22137561.120   -11056108.959 6  -8519439.59321        18.750           1.344
 91  7  9  2 32 44.9990000  0  4G 3G16G17G23
  20282431.167    -2541303.177 7  -1980235.98722        25.000           2.469
  23690301.331     7007615.173 5   5460473.43321        10.750           0.594
  20304406.308    -3922909.323 8  -3056811.44324        32.000           4.031
  22127977.105   -11106466.019 6  -8558678.82521        18.500           1.313
 91  7  9  2 32 59.9990000  0  4G 3G16G17G23
  20281778.565    -2544715.881 7  -1982895.24123        24.500           2.531
  23698378.839     7050072.164 5   5493556.76521        10.250           0.688
  20302075.839    -3935155.329 8  -3066353.77624        32.000           4.000
  22118412.495   -11156738.287 6  -8597851.98021        18.750           1.281
 91  7  9  2 33 14.9990000  0  4G 3G16G17G23
  20281153.784    -2548017.656 7  -1985468.05523        25.250           2.563
  23706468.886     7092578.051 5   5526678.18721        10.000           0.656
  20299758.831    -3947324.222 8  -3075836.03124        31.500           4.188
  22108862.362   -11206928.386 6  -8636961.10321        19.250           1.406
 91  7  9  2 33 29.9990000  0  4G 3G16G17G23
  20280545.745    -2551208.534 7  -1987954.45623        25.250           2.656
  23714566.253     7135132.145 5   5559837.17621         9.500           0.656
  20297458.198    -3959416.148 8  -3085258.30724        31.500           4.219
  22099329.581   -11257036.392 7  -8676006.26621        20.000           1.438
 91  7  9  2 33 44.9990000  0  4G 3G16G17G23
  20279958.855    -2554293.088 7  -1990358.01023        25.500           2.563
  23722673.401     7177729.574 5   5593029.93621         9.000           0.656
  20295169.878    -3971435.606 8  -3094624.12224        31.000           4.375
  22089810.542   -11307066.802 7  -8714990.95621        20.000           1.375
 91  7  9  2 33 59.9990000  0  4G 3G16G17G23
  20279390.331    -2557266.865 7  -1992675.24023        25.000           2.625
  23730787.956     7220374.160 5   5626259.43321         8.500           0.531
  20292899.800    -3983378.427 8  -3103930.21425        32.250           4.500
  22080299.526   -11357015.000 6  -8753911.59522        18.250           1.500
 91  7  9  2 34 14.9990000  0  4G 3G16G17G23
  20278846.573    -2560132.274 7  -1994908.02823        25.250           2.625
  23738911.167     7263063.318 5   5659523.67021         8.750           0.438
  20290641.065    -3995246.969 8  -3113178.43225        32.500           4.563
  22070811.362   -11406883.292 6  -8792769.96522        17.750           1.531
 91  7  9  2 34 29.9990000  0  4G 3G16G17G23
  20278323.745    -2562880.353 7  -1997049.38923        25.250           2.625
  23747043.245     7305805.177 5   5692828.97321         9.250           0.500
  20288397.105    -4007032.719 8  -3122362.12725        32.250           4.625
  22061338.862   -11456662.945 6  -8831559.26022        18.000           1.594
 91  7  9  2 34 44.9990000  0  4G 3G16G17G23
  20277820.706    -2565523.826 7  -1999109.23823        25.750           2.625
  23755187.956     7348586.423 5   5726164.94321         9.500           0.375
  20286168.284    -4018749.007 8  -3131491.70225        32.250           4.531
  22051881.519   -11506366.748 6  -8870289.45322        17.500           1.531
 91  7  9  2 34 59.9990000  0  4G 3G16G17G23
  20277339.222    -2568055.871 7  -2001082.26923        25.500           2.594
  23763337.565     7391413.787 5   5759536.88521        10.500           0.406
  20283952.097    -4030388.721 8  -3140561.60725        31.750           4.500
  22042438.964   -11555987.434 6  -8908954.88722        17.500           1.563
 91  7  9  2 35 14.9990000  0  4G 3G16G17G23
  20276879.706    -2570470.148 7  -2002963.53423        25.750           2.500
  23771498.862     7434293.135 5   5792949.30721        11.500           0.438
  20281752.206    -4041945.804 8  -3149567.12524        31.250           4.469
  22033014.300   -11605518.827 6  -8947550.73821        17.250           1.469
 91  7  9  2 35 29.9990000  0  4G 3G16G17G23
  20276442.120    -2572775.031 7  -2004759.54623        25.750           2.563
  23779663.815     7477215.662 5   5826395.37521        11.500           0.438
  20279567.730    -4053428.817 8  -3158514.92525        31.250           4.719
  22023602.972   -11654969.044 6  -8986083.33522        16.750           1.563
 91  7  9  2 35 44.9990000  0  4G 3G16G17G23
  20276025.394    -2574967.708 7  -2006468.12522        26.500           2.438
  23787839.269     7520183.559 6   5859876.80421        12.000           0.438
  20277396.440    -4064835.444 8  -3167403.20025        30.500           4.781
  22014207.784   -11704335.438 6  -9024550.62122        16.750           1.531
 91  7  9  2 35 59.9990000  0  4G 3G16G17G23
  20275629.026    -2577048.842 7  -2008089.78723        25.750           2.500
  23796024.034     7563195.772 5   5893392.79021        11.750           0.313
  20275241.706    -4076166.119 8  -3176232.29925        31.250           4.813
  22004828.339   -11753618.490 6  -9062952.96122        16.500           1.563
 91  7  9  2 36 14.9990000  0  4G 3G16G17G23
  20275254.394    -2579015.965 7  -2009622.61523        25.500           2.563
  23804217.292     7606254.177 6   5926944.74421        12.250           0.375
  20273099.870    -4087419.195 8  -3185000.92225        31.000           5.000
  21995467.620   -11802815.790 6  -9101288.49222        17.000           1.594
 91  7  9  2 36 29.9990000  0  4G 3G16G17G23
  20274900.276    -2580871.319 7  -2011068.34323        25.750           2.563
  23812416.253     7649356.127 5   5960530.62721        11.250           0.375
  20270973.940    -4098596.904 8  -3193710.82525        31.500           5.094
  21986123.776   -11851929.574 6  -9139558.93422        17.000           1.625
 91  7  9  2 36 44.9990000  0  4G 3G16G17G23
  20274568.558    -2582613.034 7  -2012425.53723        25.000           2.625
  23820627.151     7692503.115 5   5994151.61821        10.750           0.281
  20268861.433    -4109697.296 8  -3202360.48125        32.000           5.063
  21976790.175   -11900957.755 6  -9177762.66822        16.750           1.594
 91  7  9  2 36 59.9990000  0  4G 3G16G17G23
  20274257.190    -2584246.207 7  -2013698.14523        24.750           2.625
  23828851.284     7735689.671 5   6027803.43121        11.500           0.313
  20266762.487    -4120725.789 8  -3210954.10725        31.250           5.188
  21967479.870   -11949905.410 6  -9215903.66322        17.250           1.656
 91  7  9  2 37 14.9990000  0  4G 3G16G17G23
  20273966.784    -2585773.914 7  -2014888.56823        25.750           2.563
  23837075.370     7778912.210 5   6061483.29821        11.000           0.344
  20264677.425    -4131685.636 8  -3219494.25525        31.250           5.125
  21958177.565   -11998775.721 6  -9253984.39022        17.000           1.625
 91  7  9  2 37 29.9990000  0  4G 3G16G17G23
  20273697.831    -2587183.273 7  -2015986.77523        25.250           2.563
  23845311.003     7822182.929 5   6095200.68321        11.000           0.344
  20262607.011    -4142564.237 8  -3227971.09225        31.500           5.094
  21948894.823   -12047555.864 6  -9291994.85422        16.750           1.719
 91  7  9  2 37 44.9990000  0  4G 3G16G17G23
  20273452.698    -2588481.251 7  -2016998.19623        26.000           2.625
  23853550.612     7865494.630 5   6128950.01821        10.500           0.438
  20260550.269    -4153368.721 8  -3236390.16625        30.250           5.031
  21939630.269   -12096252.586 6  -9329940.32022        17.500           1.844
 91  7  9  2 37 59.9990000  0  4G 3G16G17G23
  20273226.065    -2589668.596 7  -2017923.39923        25.750           2.625
  23861800.573     7908845.975 5   6162730.23221        10.750           0.375
  20258508.003    -4164099.959 8  -3244752.17625        30.750           4.938
  21930377.128   -12144866.195 6  -9367821.01722        17.750           1.781
 91  7  9  2 38 14.9990000  0  4G 3G16G17G23
  20273021.448    -2590745.886 7  -2018762.85423        24.750           2.594
  23870057.722     7952235.870 5   6196540.48521        11.000           0.406
  20256480.464    -4174759.158 8  -3253058.05025        31.000           5.031
  21921144.120   -12193397.784 6  -9405637.81222        18.500           1.813
 91  7  9  2 38 29.9990000  0  4G 3G16G17G23
  20272837.972    -2591710.428 7  -2019514.44823        25.500           2.625
  23878323.808     7995666.632 5   6230382.59421        10.750           0.406
  20254465.690    -4185343.683 8  -3261305.73225        30.250           5.031
  21911923.855   -12241844.506 6  -9443388.47622        19.000           1.969
 91  7  9  2 38 44.9990000  0  4G 3G16G17G23
  20272675.151    -2592553.897 7  -2020171.70123        25.500           2.563
  23886597.355     8039146.344 5   6264262.84121        10.750           0.563
  20252467.862    -4195844.823 8  -3269488.43925        30.000           5.031
  21902724.339   -12290197.511 6  -9481066.10222        19.750           1.938
 91  7  9  2 38 59.9990000  0  4G 3G16G17G23
  20272535.925    -2593289.800 7  -2020745.14023        25.500           2.531
  23894878.175     8082660.882 5   6298170.21121        11.250           0.531
  20250481.292    -4206276.746 8  -3277617.20825        29.750           5.156
  21893534.620   -12338470.664 6  -9518681.51522        19.250           2.031
 91  7  9  2 39 14.9990000  0  4G 3G16G17G23
  20272415.815    -2593931.458 7  -2021245.13523        26.250           2.563
  23903160.542     8126196.517 5   6332094.00921        10.750           0.688
  20248507.808    -4216652.908 8  -3285702.52825        29.000           5.188
  21884364.011   -12386677.370 6  -9556245.14422        19.750           1.906
 91  7  9  2 39 29.9990000  0  4G 3G16G17G23
  20272313.581    -2594452.957 7  -2021651.50723        25.250           2.500
  23911455.261     8169778.816 5   6366054.18121        11.000           0.531
  20246548.823    -4226947.638 8  -3293724.39125        29.250           5.156
  21875206.019   -12434791.481 7  -9593736.63322        20.250           1.969
 91  7  9  2 39 44.9990000  0  4G 3G16G17G23
  20272237.331    -2594862.075 7  -2021970.30223        25.500           2.500
  23919756.175     8213399.247 5   6400044.07021        11.000           0.625
  20244602.917    -4237168.792 8  -3301688.92525        28.750           5.188
  21866067.042   -12482820.833 7  -9631162.07422        20.750           1.938
 91  7  9  2 39 59.9990000  0  4G 3G16G17G23
  20272184.511    -2595152.160 7  -2022196.35022        25.500           2.344
  23928066.347     8257064.165 5   6434068.63321        11.500           0.563
  20242673.597    -4247310.031 8  -3309591.18725        28.500           5.094
  21856945.917   -12530758.594 7  -9668516.13822        21.250           1.906
 91  7  9  2 40 14.9990000  0  4G 3G16G17G23
  20272151.620    -2595326.424 7                        24.750
  23936383.745     8300769.964 5   6468125.04421        11.750           0.594
  20240757.323    -4257374.642 8  -3317433.74425        28.750           5.031
  21847840.526   -12578607.912 7  -9705801.28622        21.250           1.938
 91  7  9  2 40 29.9990000  0  4G 3G16G17G23
  20272136.151    -2595382.687 7                        25.000
  23944707.261     8344518.326 5   6502214.63921        10.750           0.531
  20238858.230    -4267361.015 8  -3325215.33225        28.750           4.906
  21838753.011   -12626366.802 7  -9743015.97822        21.750           2.094
 91  7  9  2 40 44.9990000  0  4G 3G16G17G23
  20272149.714    -2595327.922 7                        25.250
  23953043.409     8388301.959 5   6536331.71621        10.500           0.469
  20236971.003    -4277276.025 8  -3332941.31425        28.000           4.844
  21829678.901   -12674041.895 7  -9780165.37022        21.750           2.063
 91  7  9  2 40 59.9990000  0  4G 3G16G17G23
  20272181.495    -2595159.075 7                        25.250
  23961381.206     8432123.705 5   6570478.47521        10.250           0.469
  20235099.105    -4287116.690 8  -3340609.36125        28.500           4.719
  21820624.698   -12721630.158 7  -9817247.10122        21.250           2.094
 91  7  9  2 41 14.9990000  0  4G 3G16G17G23
  20272232.261    -2594878.978 7                        25.250
  23969722.628     8475979.672 5   6604651.91721         9.500           0.469
  20233239.589    -4296886.524 8  -3348222.21225        28.500           4.656
  21811583.151   -12769134.721 7  -9854263.61322        21.000           2.250
 91  7  9  2 41 29.9990000  0  4G 3G16G17G23
  20272308.550    -2594482.561 7  -2021674.59322        26.000           2.188
  23978073.464     8519875.054 5   6638856.07821         8.750           0.438
  20231395.776    -4306580.046 8  -3355775.60125        28.000           4.813
  21802561.284   -12816549.825 7  -9891210.41722        21.500           2.250
 91  7  9  2 41 44.9990000  0  4G 3G16G17G23
  20272407.722    -2593972.753 7  -2021277.34322        25.500           2.156
  23986436.526     8563806.018 5   6673087.94821         9.250           0.375
  20229563.831    -4316200.411 7  -3363271.98525        27.750           4.688
  21793554.526   -12863878.762 7  -9928090.06722        22.000           2.281
 91  7  9  2 41 59.9990000  0  4G 3G16G17G23
  20272524.550    -2593347.684 7  -2020790.27322        25.750           2.125
  23994806.769     8607774.046 5   6707348.68821        10.000           0.406
  20227748.253    -4325746.306 7  -3370710.34325        27.500           4.750
  21784564.644   -12911119.561 7  -9964901.04922        22.000           2.281
 91  7  9  2 42 14.9990000  0  4G 3G16G17G23
  20272666.972    -2592608.419 7  -2020214.22522        26.000           2.125
  24003178.136     8651777.823 5   6741637.33121         9.500           0.469
  20225944.019    -4335218.874 7  -3378091.56425        27.750           4.875
  21775593.276   -12958273.112 7 -10001644.04422        22.500           2.125
 91  7  9  2 42 29.9990000  0  4G 3G16G17G23
  20272830.800    -2591752.024 7  -2019546.89922        26.000           2.219
  24011559.917     8695820.108 5   6775955.95921        10.250           0.406
  20224156.151    -4344615.432 7  -3385413.55225        27.500           4.781
  21766634.620   -13005336.477 7 -10038316.76022        22.250           2.250
 91  7  9  2 42 44.9990000  0  4G 3G16G17G23
  20273014.050    -2590780.063 7  -2018789.52822        26.000           2.250
  24019946.667     8739898.419 5   6810302.65921        10.000           0.469
  20222384.722    -4353937.769 8  -3392677.70825        28.250           4.688
  21757695.409   -13052311.265 7 -10074920.46122        22.000           2.188
 91  7  9  2 42 59.9990000  0  3G 3G17G23
  20273220.276    -2589694.912 7  -2017943.95922        25.500           2.219
  20220623.190    -4363188.177 8  -3399885.81825        28.250           4.656
  21748773.519   -13099199.871 7 -10111457.00522        22.250           2.188
 91  7  9  2 43 14.9990000  0  3G 3G17G23
  20273451.323    -2588492.278 7  -2017006.83922        26.250           2.125
  20218877.065    -4372362.634 8  -3407034.73525        28.250           4.625
  21739868.440   -13145997.570 7 -10147922.71922        22.000           2.219
 91  7  9  2 43 29.9990000  0  3G 3G17G23
  20273700.159    -2587176.150 7  -2015981.28922        25.500           2.188
  20217146.378    -4381465.598 8  -3414127.95325        28.500           4.500
  21730980.136   -13192708.715 7 -10184320.99122        22.250           2.313
 91  7  9  2 43 44.9990000  0  3G 3G17G23
  20273973.433    -2585741.147 7  -2014863.10922        25.750           2.188
  20215429.339    -4390491.520 8  -3421161.13425        29.000           4.531
  21722107.394   -13239327.884 7 -10220647.59422        22.000           2.250
 91  7  9  2 43 59.9990000  0  3G 3G17G23
  20274267.417    -2584193.687 7  -2013657.29722        25.500           2.219
  20213724.472    -4399446.958 8  -3428139.39325        29.000           4.531
  21713255.276   -13285861.294 7 -10256907.35922        22.250           2.344
 91  7  9  2 44 14.9990000  0  3G 3G17G23
  20274586.175    -2582529.136 7  -2012360.24522        25.250           2.188
  20212032.855    -4408328.029 8  -3435059.70324        29.000           4.469
  21704415.136   -13332304.378 7 -10293096.74222        22.000           2.344
 91  7  9  2 44 29.9990000  0  3G 3G17G23
  20274924.667    -2580745.503 7  -2010970.40222        25.250           2.250
  20210357.245    -4417132.376 8  -3441920.23125        29.000           4.531
  21695595.722   -13378654.838 7 -10329213.95622        22.000           2.344
 91  7  9  2 44 44.9990000  0  3G 3G17G23
  20275285.815    -2578845.358 7  -2009489.77122        24.750           2.031
  20208696.019    -4425862.791 8  -3448723.14624        29.000           4.375
  21686791.597   -13424915.154 7 -10365260.92122        22.750           2.406
 91  7  9  2 44 59.9990000  0  3G 3G17G23
  20275669.659    -2576831.845 7  -2007920.79922        25.000           2.094
  20207048.292    -4434522.675 8  -3455471.10424        28.750           4.188
  21678005.823   -13471088.611 7 -10401240.19722        22.500           2.406
 91  7  9  2 45 14.9990000  0  3G 3G17G23
  20276075.401    -2574698.511 7  -2006258.46722        25.000           2.125
  20205413.495    -4443105.732 8  -3462159.20324        29.000           4.094
  21669235.511   -13517168.831 7 -10437146.82622        21.750           2.406
 91  7  9  2 45 29.9990000  0  3G 3G17G23
  20276501.886    -2572446.899 7  -2004503.95922        24.750           2.156
  20203796.862    -4451614.119 8  -3468789.11624        30.000           4.094
  21660482.480   -13563157.286 7 -10472981.95522        21.500           2.219
 91  7  9  2 45 44.9990000  0  3G 3G17G23
  20276954.315    -2570080.506 7  -2002660.01622        24.500           2.094
  20202190.753    -4460051.024 8  -3475363.32324        29.750           4.031
  21651748.933   -13609056.888 7 -10508747.84722        21.750           2.281
 91  7  9  2 45 59.9990000  0  3G 3G17G23
  20277425.237    -2567603.999 7  -2000730.27522        24.500           2.063
  20200597.042    -4468421.326 8  -3481885.64124        29.250           3.906
  21643031.769   -13654872.614 7 -10544448.38922        22.250           2.188
 91  7  9  2 46 14.9990000  0  3G 3G17G23
  20277914.370    -2565023.055 7  -1998719.15122        23.500           2.000
  20199016.042    -4476731.070 8  -3488360.76924        29.500           3.906
  21634330.534   -13700610.220 7 -10580088.06022        22.750           2.313
 91  7  9  2 46 29.9990000  0  3G 3G17G23
  20278430.761    -2562316.952 7  -1996610.49722        24.000           2.000
  20197450.612    -4484959.643 8  -3494772.64324        29.500           3.813
  21625646.761   -13746248.908 7 -10615650.63222        22.750           2.188
 91  7  9  2 46 44.9990000  0  3G 3G17G23
  20278968.894    -2559500.226 7  -1994415.65122        24.750           1.906
  20195896.706    -4493121.621 8  -3501132.62224        29.500           3.906
  21616974.245   -13791803.193 7 -10651147.44522        21.750           2.219
 91  7  9  2 46 59.9990000  0  3G 3G17G23
  20279525.097    -2556567.918 7  -1992130.73822        24.250           2.094
  20194357.831    -4501212.317 8  -3507437.06124        29.750           3.844
  21608324.245   -13837267.857 7 -10686574.41922        21.750           2.250
 91  7  9  2 47 14.9990000  0  3G 3G17G23
  20280108.831    -2553506.370 7  -1989745.12122        25.250           1.969
  20192834.183    -4509218.208 8  -3513675.42024        29.500           3.844
  21599689.940   -13882629.393 7 -10721921.03822        21.250           2.094
 91  7  9  2 47 29.9990000  0  3G 3G17G23
  20280712.753    -2550327.369 7  -1987267.98822        24.500           2.000
  20191324.628    -4517151.405 8  -3519857.13824        29.750           3.688
  21591075.667   -13927899.448 7 -10757196.36622        21.500           2.031
 91  7  9  2 47 44.9990000  0  3G 3G17G23
  20281339.120    -2547036.176 7  -1984703.42122        24.000           1.938
  20189827.737    -4525017.240 8  -3525986.35824        30.250           3.688
  21582478.378   -13973083.360 7 -10792404.57822        21.750           2.094
 91  7  9  2 47 59.9990000  0  3G 3G17G23
  20281987.331    -2543630.099 7  -1982049.33422        24.250           1.906
  20188344.690    -4532813.405 8  -3532061.29224        30.000           3.688
  21573898.401   -14018178.300 7 -10827543.46022        22.000           2.031
 91  7  9  2 48 14.9990000  0  3G 3G17G23
  20282656.487    -2540115.153 7  -1979310.41722        25.000           2.031
  20186874.245    -4540545.711 8  -3538086.47024        30.250           3.813
  21565330.050   -14063189.936 7 -10862617.43722        20.750           2.000
 91  7  9  2 48 29.9990000  0  3G 3G17G23
  20283344.511    -2536500.821 7  -1976494.05822        24.250           1.938
  20185411.917    -4548223.912 8  -3544069.49424        30.000           3.688
  21556779.612   -14108128.021 7 -10897634.09922        22.000           2.031
 91  7  9  2 48 44.9990000  0  3G 3G17G23
  20284055.511    -2532762.084 7  -1973580.75722        24.250           1.906
  20183965.167    -4555823.518 8  -3549991.26624        29.750           3.625
  21548246.534   -14152967.646 7 -10932574.04322        22.250           1.969
 91  7  9  2 48 59.9990000  0  3G 3G17G23
  20284790.714    -2528899.121 7  -1970570.65822        24.000           1.875
  20182535.534    -4563344.082 8  -3555851.44924        30.000           3.563
  21539734.511   -14197708.423 7 -10967436.95422        22.750           2.031
 91  7  9  2 49 14.9990000  0  3G 3G17G23
  20285546.472    -2524920.649 7  -1967470.55322        24.000           1.906
  20181116.964    -4570794.781 8  -3561657.18824        30.000           3.500
  21531236.940   -14242359.169 7 -11002229.71822        22.750           2.125
 91  7  9  2 49 29.9990000  0  3G 3G17G23
  20286325.605    -2520828.686 7  -1964282.01722        23.750           1.844
  20179711.636    -4578178.264 8  -3567410.55223        30.000           3.406
  21522757.222   -14286922.200 7 -11036954.12922        22.750           2.125
 91  7  9  2 49 44.9990000  0  3G 3G17G23
  20287131.308    -2516604.161 7  -1960990.17622        24.250           1.906
  20178323.573    -4585475.520 8  -3573096.72523        30.250           3.469
  21514296.581   -14331378.213 7 -11071595.14822        22.750           2.031
 91  7  9  2 49 59.9990000  0  3G 3G17G23
  20287953.487    -2512272.656 7  -1957614.98722        24.000           1.719
  20176947.487    -4592712.283 8  -3578735.75924        30.500           3.563
  21505853.159   -14375752.677 7 -11106172.62922        23.000           2.156
 91  7  9  2 50 14.9990000  0  3G 3G17G23
  20288803.144    -2507821.969 7  -1954146.92222        25.000           1.750
  20175583.058    -4599876.119 8  -3584317.97824        29.500           3.594
  21497427.909   -14420033.285 7 -11140676.96722        23.250           2.000
 91  7  9  2 50 29.9990000  0  3G 3G17G23
  20289669.269    -2503257.557 7  -1950590.24822        24.500           1.813
  20174233.120    -4606972.787 8  -3589847.85324        29.500           3.625
  21489019.612   -14464225.473 7 -11175112.40322        24.000           2.063
 91  7  9  2 50 44.9990000  0  3G 3G17G23
  20290563.753    -2498562.319 7  -1946931.62022        25.000           1.781
  20172898.065    -4613985.500 8  -3595312.30124        29.500           3.563
  21480628.730   -14508312.233 7 -11209465.69822        23.000           2.063
 91  7  9  2 50 59.9990000  0  3G 3G17G23
  20291478.440    -2493755.325 7  -1943185.92122        25.000           1.750
  20171574.745    -4620933.418 8  -3600726.26624        29.000           3.625
  21472256.112   -14552312.344 7 -11243751.46822        22.750           2.031
 91  7  9  2 51 14.9990000  0  3G 3G17G23
  20292414.761    -2488836.322 7  -1939352.93622        25.250           1.781
  20170265.948    -4627816.365 8  -3606089.60324        28.750           3.781
  21463898.065   -14596225.563 7 -11277969.53122        22.250           2.219
 91  7  9  2 51 29.9990000  0  3G 3G17G23
  20293372.050    -2483799.755 7  -1935428.34022        24.750           1.844
  20168969.823    -4634628.887 8  -3611398.05724        29.250           3.781
  21455560.003   -14640046.300 7 -11312115.52822        22.250           2.281
 91  7  9  2 51 44.9990000  0  3G 3G17G23
  20294352.917    -2478645.857 7  -1931412.30822        25.000           1.750
  20167685.636    -4641371.733 8  -3616652.22924        29.000           3.656
  21447237.901   -14683774.844 7 -11346189.69822        21.750           2.063
 91  7  9  2 51 59.9990000  0  3G 3G17G23
  20295355.862    -2473381.320 7  -1927310.07822        25.500           1.813
  20166414.745    -4648051.484 8  -3621857.22424        28.250           3.594
  21438932.589   -14727417.642 7 -11380197.04822        22.000           2.125
 91  7  9  2 52 14.9990000  0  3G 3G17G23
  20296379.019    -2468003.293 7  -1923119.41622        25.250           1.719
  20165156.940    -4654665.417 8  -3627010.94024        28.750           3.656
  21430643.769   -14770971.809 7 -11414135.32922        21.750           2.188
 91  7  9  2 52 29.9990000  0  3G 3G17G23
  20297424.886    -2462504.657 7  -1918834.76522        25.750           1.656
  20163911.753    -4661206.835 8  -3632108.14424        28.750           3.813
  21422372.237   -14814430.363 7 -11447999.11422        21.250           2.156
 91  7  9  2 52 44.9990000  0  3G 3G17G23
  20298493.198    -2456895.594 7  -1914464.07122        25.250           1.688
  20162679.019    -4667686.079 8  -3637156.90524        29.250           3.813
  21414122.581   -14857803.417 7 -11481796.27022        21.500           2.188
 91  7  9  2 52 59.9990000  0  3G 3G17G23
  20299584.503    -2451163.972 7  -1909997.87222        26.750           1.750
  20161459.714    -4674091.029 8  -3642147.77024        28.500           3.750
  21405884.698   -14901078.749 7 -11515517.27522        20.750           2.281
 91  7  9  2 53 14.9990000  0  3G 3G17G23
  20300696.183    -2445314.235 7  -1905439.63922        25.500           1.719
  20160255.167    -4680425.990 8  -3647084.10824        29.250           3.813
  21397669.644   -14944260.590 7 -11549165.43522        21.250           2.156
 91  7  9  2 53 29.9990000  0  3G 3G17G23
  20301830.886    -2439353.434 7  -1900794.86622        25.000           1.750
  20159061.917    -4686698.498 8  -3651971.78424        29.750           3.813
  21389468.800   -14987355.948 7 -11582746.20322        21.750           2.281
 91  7  9  2 53 44.9990000  0  3G 3G17G23
  20302988.214    -2433265.543 7  -1896051.05422        25.000           1.656
  20157882.300    -4692892.491 8  -3656798.27424        29.500           3.906
  21381286.862   -15030348.878 7 -11616247.16122        21.750           2.250
 91  7  9  2 53 59.9990000  0  3G 3G17G23
  20304170.105    -2427056.759 7  -1891213.04122        25.500           1.594
  20156717.487    -4699014.558 8  -3661568.72824        29.000           3.969
  21373126.995   -15073245.474 7 -11649673.05922        22.750           2.281
 91  7  9  2 54 14.9990000  0  3G 3G17G23
  20305374.323    -2420732.282 7  -1886284.88422        25.500           1.594
  20155564.636    -4705069.910 8  -3666287.18924        28.750           4.031
  21364980.464   -15116051.013 7 -11683027.99022        22.750           2.344
 91  7  9  2 54 29.9990000  0  3G 3G17G23
  20306599.558    -2414294.719 7  -1881268.60022        26.250           1.688
  20154425.503    -4711061.066 8  -3670955.62924        28.500           3.938
  21356850.315   -15158767.747 7 -11716313.73722        22.250           2.188
 91  7  9  2 54 44.9990000  0  3G 3G17G23
  20307843.495    -2407749.370 7  -1876168.33322        25.250           1.719
  20153295.800    -4716993.580 8  -3675578.37524        28.250           3.969
  21348737.300   -15201401.047 7 -11749534.47222        22.500           2.188
 91  7  9  2 54 59.9990000  0  3G 3G17G23
  20309113.480    -2401086.902 7  -1870976.79622        26.250           1.750
  20152180.878    -4722858.302 8  -3680148.29024        28.250           3.969
  21340641.987   -15243941.389 7 -11782682.76422        22.250           2.250
 91  7  9  2 55 14.9990000  0  3G 3G17G23
  20310402.417    -2394308.939 7  -1865695.27222        25.750           1.719
  20151076.503    -4728657.197 8  -3684666.91224        28.500           3.906
  21332565.151   -15286390.541 7 -11815759.99422        22.000           2.375
 91  7  9  2 55 29.9990000  0  3G 3G17G23
  20311717.558    -2387404.325 7  -1860315.04422        26.500           1.719
  20149988.386    -4734379.034 8  -3689125.48824        29.000           4.031
  21324504.480   -15328737.172 7 -11848757.34022        21.250           2.406
 91  7  9  2 55 44.9990000  0  3G 3G17G23
  20313051.878    -2380385.348 7  -1854845.71722        26.500           1.750
  20148911.620    -4740036.622 8  -3693533.99424        29.250           4.000
  21316463.558   -15370993.778 7 -11881684.53722        21.500           2.406
 91  7  9  2 55 59.9990000  0  3G 3G17G23
  20314409.886    -2373244.893 7  -1849281.73522        26.500           1.750
  20147847.761    -4745622.589 8  -3697886.69224        28.500           4.063
  21308443.925   -15413153.003 7 -11914535.84622        22.250           2.375
 91  7  9  2 56 14.9990000  0  3G 3G17G23
  20315793.550    -2365978.092 7  -1843619.29322        26.750           1.813
  20146799.456    -4751132.358 8  -3702180.01924        29.250           4.156
  21300438.401   -15455209.973 7 -11947307.47723        21.500           2.500
 91  7  9  2 56 29.9990000  0  3G 3G17G23
  20317198.745    -2358592.724 7  -1837864.46922        27.000           1.688
  20145764.581    -4756573.848 8  -3706420.14024        29.250           4.344
  21292453.659   -15497172.169 7 -11980005.27023        21.500           2.563
 91  7  9  2 56 44.9990000  0  3G 3G17G23
  20318626.901    -2351088.318 7  -1832016.88022        27.500           1.844
  20144741.136    -4761946.697 8  -3710606.77424        28.500           4.281
  21284487.612   -15539039.527 7 -12012629.15623        22.000           2.500
 91  7  9  2 56 59.9990000  0  3G 3G17G23
  20320078.214    -2343462.569 8  -1826074.74422        28.000           1.813
  20143732.323    -4767248.592 8  -3714738.12424        28.250           4.438
  21276538.534   -15580809.319 7 -12045177.01622        21.750           2.406
 91  7  9  2 57 14.9990000  0  3G 3G17G23
  20321552.128    -2335713.754 7  -1820036.69922        27.750           1.844
  20142737.792    -4772477.980 8  -3718812.97024        29.000           4.469
  21268606.901   -15622479.768 7 -12077647.46922        21.250           2.313
 91  7  9  2 57 29.9990000  0  3G 3G17G23
  20323049.394    -2327847.945 8  -1813907.50522        28.250           1.906
  20141753.784    -4777640.820 8  -3722835.96424        29.000           4.438
  21260693.940   -15664056.801 7 -12110045.13123        20.750           2.500
 91  7  9  2 57 44.9990000  0  3G 3G17G23
  20324568.550    -2319872.894 8  -1807693.18422        28.500           1.844
  20140783.292    -4782745.557 8  -3726813.67725        29.000           4.531
  21252801.511   -15705548.386 7 -12142376.20122        21.500           2.469
 91  7  9  2 57 59.9990000  0  3G 3G17G23
  20326108.886    -2311773.147 7  -1801381.69322        27.000           1.938
  20139827.253    -4787776.411 8  -3730733.82025        29.500           4.531
  21244925.276   -15746938.765 7 -12174628.41723        22.000           2.500
 91  7  9  2 58 14.9990000  0  3G 3G17G23
  20327671.980    -2303560.939 7  -1794982.57222        27.000           1.938
  20138880.198    -4792745.999 8  -3734606.22625        30.000           4.531
  21237064.097   -15788240.267 7 -12206811.38622        21.750           2.375
 91  7  9  2 58 29.9990000  0  3G 3G17G23
  20329254.394    -2295232.810 7  -1788493.11822        26.750           1.875
  20137947.034    -4797650.927 8  -3738428.24524        29.750           4.469
  21229224.573   -15829449.305 7 -12238922.31423        22.250           2.500
 91  7  9  2 58 44.9990000  0  3G 3G17G23
  20330866.159    -2286768.098 7  -1781897.24222        27.250           1.844
  20137029.831    -4802471.061 8  -3742184.19225        30.250           4.500
  21221402.839   -15870545.309 7 -12270945.15822        22.000           2.469
 91  7  9  2 58 59.9990000  0  3G 3G17G23
  20332499.394    -2278185.741 7  -1775209.68922        26.750           1.938
  20136126.276    -4807224.747 8  -3745888.36024        30.500           4.469
  21213599.839   -15911547.053 7 -12302894.54623        21.750           2.594
 91  7  9  2 59 14.9990000  0  3G 3G17G23
  20334157.581    -2269481.537 7  -1768427.19122        27.250           1.938
  20135233.987    -4811908.373 8  -3749537.94324        29.750           4.469
  21205816.690   -15952450.212 7 -12334767.11423        21.500           2.750
 91  7  9  2 59 29.9990000  0  3G 3G17G23
  20335834.862    -2260658.966 7  -1761552.46822        26.250           1.938
  20134356.347    -4816525.354 8  -3753135.58824        30.500           4.344
  21198050.206   -15993258.242 7 -12366565.54923        21.000           2.781
 91  7  9  2 59 44.9990000  0  3G 3G17G23
  20337536.597    -2251710.634 7  -1754579.74522        26.500           1.938
  20133490.034    -4821068.559 8  -3756675.74924        29.750           4.281
  21190305.011   -16033963.720 7 -12398284.08223        21.750           2.750
 91  7  9  2 59 59.9990000  0  3G 3G17G23
  20339264.370    -2242640.091 7  -1747511.79222        26.750           1.938
  20132640.878    -4825541.556 8  -3760161.20424        30.250           4.438
  21182577.292   -16074570.118 7 -12429925.40623        22.000           2.844
 91  7  9  3  0 14.9990000  0  3G 3G17G23
  20341012.542    -2233449.928 7  -1740350.62322        26.750           1.969
  20131801.472    -4829947.078 8  -3763594.07824        30.250           4.406
  21174870.980   -16115079.993 7 -12461491.51623        22.250           3.125
 91  7  9  3  0 29.9990000  0  3G 3G17G23
  20342783.870    -2224142.110 7  -1733097.78822        26.750           2.031
  20130975.394    -4834287.190 8  -3766975.98625        30.500           4.594
  21167177.628   -16155494.948 7 -12492983.66723        21.250           3.125
 91  7  9  3  0 44.9990000  0  3G 3G17G23
  20344579.042    -2214707.527 7  -1725746.16122        26.500           1.969
  20130163.878    -4838552.984 8  -3770299.98625        31.250           4.625
  21159506.370   -16195806.193 7 -12524395.01323        20.750           3.219
 91  7  9  3  0 59.9990000  0  3G 3G17G23
  20346396.425    -2205155.632 7  -1718303.12222        26.500           2.031
  20129365.230    -4842753.961 8  -3773573.47925        31.000           4.656
  21151855.073   -16236023.117 7 -12555732.85423        21.250           3.250
 91  7  9  3  1 14.9990000  0  3G 3G17G23
  20348237.245    -2195485.522 7  -1710767.97522        27.250           2.063
  20128578.073    -4846889.223 8  -3776795.76225        31.000           4.563
  21144218.355   -16276144.546 7 -12586996.28223        20.750           3.344
 91  7  9  3  1 29.9990000  0  3G 3G17G23
  20350100.581    -2185696.845 7  -1703140.43222        27.500           2.031
  20127802.136    -4850958.510 8  -3779966.64025        30.000           4.625
  21136604.636   -16316170.204 7 -12618185.09723        21.250           3.375
 91  7  9  3  1 44.9990000  0  3G 3G17G23
  20351986.839    -2175783.621 7  -1695415.84522        27.750           2.156
  20127041.144    -4854956.285 8  -3783081.78925        29.500           4.625
  21129008.175   -16356094.151 7 -12649294.64224        21.000           3.531
 91  7  9  3  1 59.9990000  0  3G 3G17G23
  20353894.190    -2165757.994 7  -1687603.67822        27.250           2.156
  20126292.519    -4858894.598 8  -3786150.59924        30.500           4.469
  21121423.401   -16395928.336 7 -12680334.25024        20.500           3.750
 91  7  9  3  2 14.9990000  0  3G 3G17G23
  20355823.276    -2155615.273 7  -1679700.26422        27.000           2.156
  20125555.753    -4862768.621 8  -3789169.31924        30.250           4.469
  21113863.362   -16435667.772 7 -12711300.02724        21.000           3.688
 91  7  9  3  2 29.9990000  0  3G 3G17G23
  20357778.800    -2145349.050 7  -1671700.60522        27.500           2.219
  20124830.761    -4866572.639 8  -3792133.48724        29.750           4.344
  21106318.987   -16475306.352 7 -12742187.21924        21.500           3.719
 91  7  9  3  2 44.9990000  0  3G 3G17G23
  20359752.558    -2134969.241 7  -1663612.44022        27.000           2.156
  20124120.534    -4870316.256 8  -3795050.58924        29.500           4.313
  21098795.159   -16514853.669 7 -12773003.29324        22.250           3.750
 91  7  9  3  2 59.9990000  0  3G 3G17G23
  20361750.495    -2124476.178 7  -1655436.02222        27.250           2.281
  20123419.565    -4874000.083 8  -3797921.10924        29.750           4.250
  21091285.097   -16554310.291 7 -12803748.69424        22.000           3.688
 91  7  9  3  3 14.9990000  0  3G 3G17G23
  20363771.175    -2113860.203 7  -1647163.84522        27.250           2.188
  20122730.558    -4877614.343 8  -3800737.40924        29.250           4.375
  21083797.526   -16593666.181 7 -12834415.60024        22.500           3.688
 91  7  9  3  3 29.9990000  0  3G 3G17G23
  20365816.933    -2103114.655 7  -1638790.68722        26.000           2.281
  20122058.784    -4881152.440 8  -3803494.37624        30.250           4.344
  21076330.292   -16632914.708 7 -12864998.84224        22.750           3.688
 91  7  9  3  3 44.9990000  0  3G 3G17G23
  20367883.339    -2092245.677 7  -1630321.35322        25.500           2.219
  20121398.472    -4884621.004 8  -3806197.15824        30.000           4.375
  21068878.847   -16672061.998 7 -12895503.20124        22.750           3.750
 91  7  9  3  3 59.9990000  0  3G 3G17G23
  20369974.323    -2081260.052 7  -1621761.12222        25.500           2.344
  20120750.151    -4888026.882 8  -3808851.08824        29.500           4.313
  21061446.659   -16711114.927 7 -12925934.03224        23.500           3.750
 91  7  9  3  4 14.9990000  0  3G 3G17G23
  20372085.831    -2070156.710 7  -1613109.17122        25.250           2.313
  20120113.198    -4891368.792 8  -3811455.17924        29.000           4.438
  21054032.714   -16750072.242 7 -12956290.36424        24.000           3.594
 91  7  9  3  4 29.9990000  0  3G 3G17G23
  20374223.940    -2058931.812 7  -1604362.49622        24.750           2.313
  20119491.284    -4894643.040 8  -3814006.54324        29.250           4.406
  21046639.714   -16788929.922 7 -12986569.04824        24.750           3.594
 91  7  9  3  4 44.9990000  0  3G 3G17G23
  20376381.769    -2047586.814 7  -1595522.24122        24.000           2.250
  20118880.925    -4897851.137 8  -3816506.36524        29.000           4.375
  21039263.831   -16827689.181 7 -13016771.02924        25.000           3.625
 91  7  9  3  4 59.9990000  0  3G 3G17G23
  20378562.776    -2036116.751 7  -1586584.53122        24.250           2.344
  20118284.159    -4900988.307 8  -3818950.91924        29.000           4.344
  21031906.933   -16866345.202 7 -13046892.57224        24.500           3.719
 91  7  9  3  5 14.9990000  0  3G 3G17G23
  20380770.565    -2024521.442 7  -1577549.23222        24.250           2.313
  20117700.558    -4904054.702 8  -3821340.32524        28.250           4.438
  21024571.589   -16904897.994 7 -13076933.70424        25.750           3.688
 91  7  9  3  5 29.9990000  0  3G 3G17G23
  20382999.480    -2012803.760 7  -1568418.57622        24.000           2.375
  20117129.980    -4907052.891 8  -3823676.58424        28.250           4.344
  21017254.550   -16943349.926 7 -13106896.22924        26.250           3.563
 91  7  9  3  5 44.9990000  0  3G 3G17G23
  20385251.644    -2000961.880 7  -1559191.14622        23.250           2.281
  20116572.831    -4909981.797 8  -3825958.84424        28.250           4.375
  21009955.597   -16981699.436 7 -13136778.93824        26.250           3.531
 91  7  9  3  5 59.9990000  0  3G 3G17G23
  20387531.370    -1988999.945 7  -1549870.15722        24.000           2.281
  20116027.769    -4912845.274 7  -3828190.12624        27.250           4.344
  21002677.300   -17019950.448 7 -13166584.89424        27.000           3.563
 91  7  9  3  6 14.9990000  0  3G 3G17G23
  20389828.722    -1976915.014 7  -1540453.33622        24.000           2.281
  20115495.269    -4915640.354 7  -3830368.11524        26.500           4.344
  20995419.105   -17058099.934 7 -13196311.74523        27.750           3.438
 91  7  9  3  6 29.9990000  0  3G 3G17G23
  20392152.394    -1964704.792 7  -1530938.88222        23.750           2.406
  20114976.886    -4918364.805 7  -3832491.06724        26.750           4.313
  20988176.456   -17096145.533 7 -13225957.65323        26.750           3.313
 91  7  9  3  6 44.9990000  0  3G 3G17G23
  20394499.800    -1952372.128 7  -1521329.02222        23.250           2.313
  20114470.667    -4921021.590 7  -3834561.29524        26.500           4.344
  20980959.175   -17134090.023 7 -13255524.77723        27.500           3.250
 91  7  9  3  6 59.9990000  0  3G 3G17G23
  20396867.597    -1939921.577 7  -1511627.29422        23.000           2.188
  20113977.237    -4923615.414 7  -3836582.44924        26.500           4.375
  20973753.605   -17171937.957 7 -13285016.66323        27.250           3.281
 91  7  9  3  7 14.9990000  0  3G 3G17G23
  20399262.987    -1927347.723 7  -1501829.47922        24.000           2.219
  20113495.855    -4926141.054 7  -3838550.48224        25.500           4.281
  20966573.737   -17209683.861 7 -13314429.04523        27.500           3.125
 91  7  9  3  7 29.9990000  0  3G 3G17G23
  20401678.651    -1914653.485 7  -1491937.87622        23.500           2.281
  20113027.730    -4928601.345 7  -3840467.59724        25.750           4.313
  20959410.815   -17247330.546 7 -13343764.11123        27.750           3.156
 91  7  9  3  7 44.9990000  0  3G 3G17G23
  20404117.253    -1901840.118 7  -1481953.43922        23.500           2.281
  20112571.714    -4930997.660 7  -3842334.85724        26.250           4.281
  20952263.433   -17284879.257 7 -13373022.82323        27.500           3.125
 91  7  9  3  7 59.9990000  0  3G 3G17G23
  20406577.636    -1888903.238 7  -1471872.75422        23.750           2.313
  20112130.011    -4933325.900 7  -3844149.07724        26.750           4.313
  20945136.722   -17322325.524 7 -13402201.72023        27.500           2.969
 91  7  9  3  8 14.9990000  0  3G 3G17G23
  20409061.784    -1875849.330 7  -1461700.87822        23.250           2.375
  20111698.495    -4935592.618 7  -3845915.35024        25.750           4.250
  20938031.933   -17359675.770 8 -13431305.80123        29.000           3.094
 91  7  9  3  8 29.9990000  0  3G 3G17G23
  20411569.331    -1862672.204 7  -1451432.99522        23.000           2.188
  20111279.034    -4937791.324 7  -3847628.63024        25.500           4.313
  20930942.206   -17396923.663 8 -13460330.12123        29.250           3.188
 91  7  9  3  8 44.9990000  0  3G 3G17G23
  20414100.151    -1849371.994 7  -1441069.20122        22.750           2.344
  20110873.058    -4939922.668 7  -3849289.41324        25.500           4.313
  20923873.636   -17434069.291 8 -13489274.72423        29.000           3.125
 91  7  9  3  8 59.9990000  0  3G 3G17G23
  20416655.933    -1835952.122 7  -1430612.16722        22.500           2.250
  20110481.120    -4941989.694 7  -3850900.09124        26.000           4.406
  20916824.089   -17471115.879 8 -13518142.17323        28.500           3.219
 91  7  9  3  9 14.9990000  0  3G 3G17G23
  20419231.605    -1822409.356 7  -1420059.37022        23.000           2.188
  20110099.784    -4943989.460 7  -3852458.35724        25.750           4.406
  20909791.956   -17508060.363 8 -13546930.05223        28.000           3.188
 91  7  9  3  9 29.9990000  0  3G 3G17G23
  20421831.308    -1808744.527 7  -1409411.45322        22.750           2.031
  20109733.683    -4945923.051 7  -3853965.05124        26.750           4.438
  20902783.261   -17544903.381 8 -13575638.88823        28.250           3.219
 91  7  9  3  9 44.9990000  0  3G 3G17G23
  20424454.683    -1794958.958 7  -1398669.46322        22.500           2.063
  20109377.792    -4947791.771 7  -3855421.19925        27.250           4.594
  20895790.190   -17581646.236 8 -13604269.65423        28.000           3.063
 91  7  9  3  9 59.9990000  0  3G 3G17G23
  20427100.901    -1781050.581 7  -1387831.76722        22.000           2.094
  20109033.503    -4949593.476 7  -3856825.13024        26.750           4.438
  20888816.628   -17618286.597 8 -13632820.57023        28.000           3.063
 91  7  9  3 10 14.9990000  0  3G 3G17G23
  20429769.940    -1767022.857 7  -1376901.08322        22.500           2.000
  20108701.034    -4951331.919 7  -3858179.76024        26.500           4.406
  20881864.073   -17654828.065 8 -13661294.41823        28.250           3.000
 91  7  9  3 10 29.9990000  0  3G 3G17G23
  20432464.519    -1752870.672 7  -1365873.41122        22.500           2.031
  20108385.464    -4953001.794 7  -3859480.96524        27.250           4.438
  20874928.683   -17691265.403 7 -13689687.13923        27.750           3.031
 91  7  9  3 10 44.9990000  0  3G 3G17G23
  20435180.136    -1738596.217 7  -1354750.47422        22.500           1.938
  20108080.347    -4954605.448 7  -3860730.57325        27.000           4.563
  20868016.714   -17727600.725 8 -13718000.36823        28.250           3.000
 91  7  9  3 10 59.9990000  0  3G 3G17G23
  20437920.472    -1724199.187 7  -1343532.01322        23.500           1.906
  20107787.894    -4956142.878 7  -3861928.56924        27.000           4.469
  20861118.933   -17763833.645 7 -13746233.76923        27.250           2.969
 91  7  9  3 11 14.9990000  0  3G 3G17G23
  20440682.370    -1709678.378 7  -1332217.10622        23.000           1.844
  20107507.644    -4957612.671 7  -3863073.86825        26.500           4.563
  20854245.972   -17799962.770 8 -13774386.30823        28.250           2.875
 91  7  9  3 11 29.9990000  0  3G 3G17G23
  20443469.323    -1695031.872 7  -1320804.24422        23.000           1.844
  20107242.183    -4959012.954 7  -3864165.00125        27.500           4.625
  20847389.050   -17835986.293 7 -13802456.58123        27.500           2.813
 91  7  9  3 11 44.9990000  0  3G 3G17G23
  20446282.284    -1680265.574 7  -1309298.03822        24.250           1.844
  20106986.245    -4960349.925 7  -3865206.79725        27.250           4.531
  20840554.276   -17871910.184 7 -13830449.20923        27.500           2.719
 91  7  9  3 11 59.9990000  0  3G 3G17G23
  20449112.120    -1665379.476 7  -1297698.49122        24.000           1.906
  20106745.019    -4961623.501 7  -3866199.20325        27.250           4.500
  20833736.987   -17907734.092 7 -13858363.93423        27.500           2.688
 91  7  9  3 12 14.9990000  0  3G 3G17G23
  20451971.589    -1650370.448 7  -1286003.15222        24.000           1.844
  20106514.612    -4962830.586 8  -3867139.79625        28.000           4.531
  20826939.440   -17943454.867 7 -13886198.28623        27.000           2.844
 91  7  9  3 12 29.9990000  0  3G 3G17G23
  20454849.378    -1635238.554 7  -1274212.07222        24.250           1.813
  20106297.675    -4963971.510 7  -3868028.83125        27.750           4.688
  20820161.534   -17979072.579 7 -13913952.33523        27.000           2.813
 91  7  9  3 12 44.9990000  0  3G 3G17G23
  20457752.245    -1619982.547 7  -1262324.29022        24.000           1.875
  20106095.214    -4965044.800 8  -3868865.17125        28.500           4.531
  20813403.565   -18014585.872 7 -13941625.02223        27.000           2.719
 91  7  9  3 12 59.9990000  0  3G 3G17G23
  20460677.300    -1604609.694 7  -1250345.43622        23.500           1.906
  20105899.737    -4966058.104 8  -3869654.76125        28.750           4.500
  20806664.831   -18050001.958 7 -13969221.95523        27.500           2.656
 91  7  9  3 13 14.9990000  0  3G 3G17G23
  20463624.917    -1589114.325 7  -1238271.12822        23.750           1.969
  20105721.253    -4967005.719 8  -3870393.17125        28.500           4.625
  20799944.089   -18085315.126 7 -13996738.69923        27.250           2.688
 91  7  9  3 13 29.9990000  0  3G 3G17G23
  20466598.925    -1573497.501 7  -1226102.18422        24.250           2.000
  20105552.425    -4967888.522 8  -3871081.07725        28.250           4.656
  20793245.620   -18120526.107 7 -14024175.81823        27.250           2.719
 91  7  9  3 13 44.9990000  0  3G 3G17G23
  20469594.347    -1557756.359 7  -1213836.36922        24.000           1.781
  20105398.534    -4968703.810 8  -3871716.36725        28.500           4.563
  20786564.183   -18155632.234 7 -14051531.23523        27.500           2.625
 91  7  9  3 13 59.9990000  0  3G 3G17G23
  20472611.370    -1541889.868 7  -1201472.87022        23.000           1.875
  20105256.597    -4969450.455 8  -3872298.17025        29.500           4.500
  20779903.722   -18190632.136 7 -14078803.87523        26.750           2.594
 91  7  9  3 14 14.9990000  0  3G 3G17G23
  20475654.526    -1525902.010 7  -1189014.81122        23.500           1.906
  20105122.870    -4970133.033 8  -3872830.06024        29.000           4.438
  20773262.136   -18225529.829 7 -14105996.87723        27.000           2.625
 91  7  9  3 14 29.9990000  0  3G 3G17G23
  20478719.050    -1509794.591 7  -1176463.58022        23.500           2.063
  20105007.394    -4970753.198 8  -3873313.31525        29.000           4.531
  20766640.737   -18260327.290 7 -14133111.78123        26.000           2.656
 91  7  9  3 14 44.9980000  0  3G 3G17G23
  20481806.482    -1493572.950 7  -1163823.34922        24.000           2.000
  20104900.029    -4971314.814 8  -3873750.94224        29.500           4.438
  20760037.467   -18295026.219 7 -14160149.88623        25.500           2.594
 91  7  9  3 14 59.9980000  0  3G 3G17G23
  20484917.482    -1477227.932 7  -1151086.98422        24.250           2.000
  20104807.014    -4971811.290 8  -3874137.81124        29.750           4.406
  20753453.654   -18329624.068 7 -14187109.22623        24.750           2.625
 91  7  9  3 15 14.9980000  0  3G 3G17G23
  20488049.264    -1460760.075 7  -1138254.89122        23.750           1.875
  20104722.154    -4972242.153 8  -3874473.55624        29.750           4.344
  20746890.732   -18364118.026 7 -14213987.61823        25.000           2.656
 91  7  9  3 15 29.9980000  0  3G 3G17G23
  20491208.772    -1444169.463 7  -1125327.15222        24.750           1.844
  20104653.514    -4972607.350 8  -3874758.13424        29.250           4.250
  20740346.686   -18398508.096 7 -14240785.06123        25.000           2.781
 91  7  9  3 15 44.9980000  0  3G 3G17G23
  20494386.092    -1427463.947 7  -1112309.87422        24.250           1.781
  20104596.717    -4972914.800 8  -3874997.71324        29.000           4.219
  20733820.326   -18432802.136 7 -14267507.67123        25.500           2.781
 91  7  9  3 15 59.9980000  0  3G 3G17G23
  20497591.639    -1410634.330 7  -1099195.89522        24.750           1.813
  20104550.850    -4973155.396 8  -3875185.19024        29.250           4.250
  20727315.311   -18466990.552 7 -14294147.98523        25.000           2.813
 91  7  9  3 16 14.9980000  0  3G 3G17G23
  20500815.459    -1393681.084 7  -1085985.58722        24.500           1.781
  20104517.678    -4973329.620 8                        29.000
  20720828.795   -18501074.012 7 -14320706.50923        25.000           2.844
 91  7  9  3 16 29.9980000  0  3G 3G17G23
  20504065.193    -1376606.250 7  -1072680.52922        25.000           1.813
  20104494.889    -4973439.766 8                        28.500
  20714363.232   -18535054.469 7 -14347184.75923        25.250           2.813
 91  7  9  3 16 44.9980000  0  3G 3G17G23
  20507337.904    -1359410.372 7  -1059281.14522        25.250           1.719
  20104487.615    -4973486.083 8                        29.000
  20707915.162   -18568932.374 7 -14373583.10123        24.750           2.844
 91  7  9  3 16 59.9980000  0  3G 3G17G23
  20510632.420    -1342093.242 7  -1045787.28522        24.750           1.781
  20104491.248    -4973468.598 8                        29.500
  20701489.326   -18602707.295 7 -14399901.21723        24.500           2.875
 91  7  9  3 17 14.9980000  0  3G 3G17G23
  20513952.193    -1324648.342 7  -1032193.85622        25.500           1.844
  20104507.865    -4973380.804 8                        28.500
  20695082.811   -18636372.625 7 -14426133.92923        24.750           2.781
 91  7  9  3 17 29.9980000  0  3G 3G17G23
  20517295.631    -1307076.344 7  -1018501.40022        25.000           1.875
  20104535.303    -4973223.368 8                        28.750
  20688697.311   -18669929.057 7 -14452281.79323        25.000           2.844
 91  7  9  3 17 44.9980000  0  3G 3G17G23
  20520663.725    -1289386.319 7  -1004716.96222        25.500           1.781
  20104575.522    -4973005.431 8                        28.500
  20682330.061   -18703385.670 7 -14478351.87723        24.250           2.844
 91  7  9  3 17 59.9980000  0  3G 3G17G23
  20524052.100    -1271574.629 7   -990837.73222        25.500           1.813
  20104635.006    -4972723.515 8  -3874848.71324        29.250           3.813
  20675983.256   -18736738.729 7 -14504341.26823        24.500           2.844
 91  7  9  3 18 14.9980000  0  3G 3G17G23
  20527464.232    -1253642.208 7   -976864.41422        25.500           1.906
  20104697.959    -4972378.364 8  -3874579.76324        28.500           3.813
  20669655.764   -18769988.948 7 -14530250.50823        24.750           2.813
 91  7  9  3 18 29.9980000  0  3G 3G17G23
  20530899.826    -1235586.736 7   -962795.22722        25.250           1.938
  20104777.709    -4971967.797 8  -3874259.85424        28.750           3.719
  20663349.131   -18803133.840 7 -14556077.68323        24.250           2.781
 91  7  9  3 18 44.9980000  0  3G 3G17G23
  20534361.686    -1217407.495 7   -948629.59022        26.250           2.000
  20104865.100    -4971491.194 8  -3873888.46724        28.250           3.719
  20657061.607   -18836172.953 7 -14581822.42423        24.750           2.719
 91  7  9  3 18 59.9980000  0  3G 3G17G23
  20537840.225    -1199106.803 7   -934369.32222        25.500           2.125
  20104969.904    -4970950.628 8  -3873467.25524        28.500           3.563
  20650794.154   -18869108.220 7 -14607486.25223        24.500           2.719
 91  7  9  3 19 14.9980000  0  3G 3G17G23
  20541348.053    -1180682.538 7   -920012.75922        25.750           2.031
  20105083.404    -4970344.104 8  -3872994.64424        28.250           3.563
  20644546.740   -18901937.682 7 -14633067.62523        24.500           2.688
 91  7  9  3 19 29.9980000  0  3G 3G17G23
  20544874.803    -1162139.717 7   -905563.81022        25.250           1.969
  20105213.107    -4969676.697 8  -3872474.58124        28.000           3.531
  20638319.279   -18934665.914 7 -14658570.13123        24.500           2.688
 91  7  9  3 19 44.9980000  0  3G 3G17G23
  20548428.272    -1143474.748 7   -891019.67422        25.250           1.938
  20105349.881    -4968945.135 8  -3871904.54024        28.000           3.531
  20632110.186   -18967289.635 7 -14683991.20423        24.250           2.813
 91  7  9  3 19 59.9980000  0  3G 3G17G23
  20552002.092    -1124691.476 7   -876383.36422        24.750           1.969
  20105502.397    -4968153.178 8  -3871287.43024        28.500           3.531
  20625919.240   -18999812.424 7 -14709333.63923        23.750           2.813
 91  7  9  3 20 14.9980000  0  3G 3G17G23
  20555598.498    -1105787.927 7   -861653.32322        24.750           1.875
  20105664.381    -4967298.564 8  -3870621.50124        28.000           3.531
  20619754.725   -19032232.215 7 -14734595.81623        25.250           2.844
 91  7  9  3 20 29.9980000  0  3G 3G17G23
  20559219.350    -1086765.042 7   -846830.30422        25.000           1.781
  20105839.912    -4966382.299 7  -3869907.53824        27.250           3.500
  20613602.498   -19064549.926 7 -14759778.43923        24.500           2.969
 91  7  9  3 20 44.9980000  0  3G 3G17G23
  20562863.397    -1067621.308 7   -831913.11522        24.750           1.813
  20106025.881    -4965402.940 7  -3869144.40624        27.500           3.500
  20607471.443   -19096763.963 7 -14784880.28123        24.250           2.750
 91  7  9  3 20 59.9980000  0  3G 3G17G23
  20566529.975    -1048357.021 7   -816901.97222        24.250           1.813
  20106221.865    -4964360.882 7  -3868332.42323        27.750           3.438
  20601360.897   -19128874.569 7 -14809901.51223        24.750           2.906
 91  7  9  3 21 14.9980000  0  3G 3G17G23
  20570217.428    -1028969.908 7   -801795.11122        24.000           1.656
  20106433.740    -4963253.865 7  -3867469.81823        27.500           3.313
  20595271.717   -19160879.422 7 -14834840.34523        25.000           2.813
 91  7  9  3 21 29.9980000  0  3G 3G17G23
  20573931.178    -1009460.597 7   -786593.02422        24.500           1.719
  20106656.373    -4962082.613 7  -3866557.17223        27.250           3.281
  20589200.998   -19192778.953 7 -14859697.11423        24.750           2.875
 91  7  9  3 21 44.9980000  0  3G 3G17G23
  20577664.209     -989835.669 7   -771300.86522        25.000           1.625
  20106888.873    -4960853.572 7  -3865599.48623        27.000           3.344
  20583151.600   -19224579.586 7 -14884476.82223        25.000           2.844
 91  7  9  3 21 59.9980000  0  3G 3G17G23
  20581422.334     -970089.448 7   -755914.20522        24.250           1.625
  20107137.350    -4959561.177 8  -3864592.42223        28.000           3.250
  20577116.357   -19256275.610 7 -14909175.01523        24.250           2.969
 91  7  9  3 22 14.9980000  0  3G 3G17G23
  20585202.693     -950223.066 7   -740433.91722        24.750           1.719
  20107394.928    -4958206.360 7  -3863536.73323        27.500           3.344
  20571105.350   -19287867.868 7 -14933792.35423        24.250           2.906
 91  7  9  3 22 29.9980000  0  3G 3G17G23
  20589006.904     -930230.325 7   -724855.15122        24.500           1.656
  20107665.412    -4956783.076 7  -3862427.68723        27.750           3.219
  20565115.779   -19319350.636 7 -14958324.38123        24.250           2.969
 91  7  9  3 22 44.9980000  0  3G 3G17G23
  20592835.029     -910113.877 7   -709179.99922        25.000           1.750
  20107950.272    -4955294.010 8  -3861267.38123        28.000           3.250
  20559144.107   -19350726.034 7 -14982772.74023        23.500           2.906
 91  7  9  3 22 59.9980000  0  3G 3G17G23
  20596687.795     -889873.954 7   -693408.62422        25.250           1.750
  20108244.967    -4953739.524 7  -3860056.09624        27.750           3.500
  20553195.639   -19381994.373 7 -15007137.69323        24.250           2.969
 91  7  9  3 23 14.9980000  0  3G 3G17G23
  20600562.006     -869511.619 7   -677541.87722        25.000           1.813
  20108552.725    -4952120.611 7  -3858794.60923        27.250           3.469
  20547264.990   -19413156.721 7 -15031420.03623        24.750           2.906
 91  7  9  3 23 29.9980000  0  3G 3G17G23
  20604457.967     -849035.799 7   -661586.69022        24.500           1.844
  20108871.084    -4950445.921 7  -3857489.66023        27.250           3.344
  20541351.147   -19444221.738 7 -15055626.52823        24.500           3.031
 91  7  9  3 23 44.9980000  0  3G 3G17G23
  20608374.506     -828445.271 7   -645542.12322        24.000           2.125
  20109200.748    -4948714.584 7  -3856140.57723        27.250           3.313
  20535459.787   -19475188.265 7 -15079756.28523        25.250           3.000
 91  7  9  3 23 59.9980000  0  3G 3G17G23
  20612317.561     -807729.414 7   -629399.89922        23.500           2.063
  20109542.381    -4946915.895 7  -3854739.00224        27.250           3.531
  20529589.365   -19506045.516 7 -15103800.88123        25.750           3.000
 91  7  9  3 24 14.9980000  0  3G 3G17G23
  20616283.740     -786890.763 7   -613161.98922        23.250           2.125
  20109898.123    -4945052.362 7  -3853286.90323        27.000           3.438
  20523738.303   -19536795.828 7 -15127762.16423        26.500           3.000
 91  7  9  3 24 29.9980000  0  3G 3G17G23
  20620272.217     -765935.968 7   -596833.58122        24.250           2.188
  20110262.732    -4943130.453 7  -3851789.32024        26.750           3.500
  20517904.639   -19567446.042 7 -15151645.43823        25.500           3.063
 91  7  9  3 24 44.9980000  0  3G 3G17G23
  20624281.537     -744867.334 7   -580416.47222        23.750           2.094
  20110640.568    -4941152.650 7  -3850248.17523        27.750           3.375
  20512089.217   -19597998.171 7 -15175452.29223        24.750           3.031
 91  7  9  3 24 59.9980000  0  3G 3G17G23
  20628312.951     -723679.357 7   -563906.37322        24.500           1.969
  20111028.404    -4939113.563 7  -3848659.29123        26.750           3.469
  20506297.654   -19628446.808 7 -15199178.49323        26.000           3.125
 91  7  9  3 25 14.9980000  0  3G 3G17G23
  20632367.506     -702372.080 7   -547303.31422        24.000           2.031
  20111427.779    -4937012.862 7  -3847022.38723        27.000           3.469
  20500521.506   -19658791.580 7 -15222823.74623        26.250           3.094
 91  7  9  3 25 29.9980000  0  3G 3G17G23
  20636445.467     -680942.214 7   -530604.73122        24.500           2.125
  20111839.936    -4934847.684 7  -3845335.24723        27.000           3.438
  20494766.826   -19689029.265 7 -15246385.56223        26.000           3.125
 91  7  9  3 25 44.9980000  0  3G 3G17G23
  20640545.631     -659399.596 7   -513818.28622        25.000           2.094
  20112262.107    -4932627.701 7  -3843605.40024        27.000           3.563
  20489032.522   -19719169.554 7 -15269871.48623        26.000           3.125
 91  7  9  3 25 59.9980000  0  4G 3G21G17G23
  20644668.404     -637734.358 7   -496936.29222        25.000           1.844
  24096683.990      -57681.336 4                         6.750
  20112697.857    -4930342.768 7  -3841824.94824        27.000           3.750
  20483316.600   -19749202.474 7 -15293273.70423        26.000           3.063
 91  7  9  3 26 14.9980000  0  4G 3G21G17G23
  20648812.701     -615952.454 7   -479963.39322        24.500           1.781
  24085722.123     -115335.083 5                         7.500
  20113143.178    -4927998.848 7  -3839998.52524        27.500           3.563
  20477621.357   -19779133.903 7 -15316596.88523        25.750           2.875
 91  7  9  3 26 29.9980000  0  4G 3G21G17G23
  20652981.326     -594048.089 7   -462895.06222        24.750           1.750
  24074754.756     -172956.230 4                         7.250
  20113600.943    -4925590.389 8  -3838121.81424        28.000           3.719
  20471943.889   -19808958.025 7 -15339836.49523        24.750           2.875
 91  7  9  3 26 44.9980000  0  4G 3G21G17G23
  20657172.592     -572022.997 7   -445732.66222        24.500           1.719
  24063792.537     -230545.995 5                         7.500
  20114071.998    -4923119.326 8  -3836196.31724        28.250           3.656
  20466290.850   -19838676.535 7 -15362993.80823        25.500           2.906
 91  7  9  3 26 59.9980000  0  4G 3G21G17G23
  20661386.576     -549880.635 7   -428478.86822        24.750           1.656
  24052844.662     -288107.860 5                         7.500
  20114552.264    -4920588.657 8  -3834224.37724        28.000           3.688
  20460654.857   -19868292.899 7 -15386071.49323        26.000           2.938
 91  7  9  3 27 14.9980000  0  4G 3G21G17G23
  20665623.373     -527617.018 7   -411130.60822        24.000           1.625
  24041892.170     -345637.703 5                         7.500
  20115046.248    -4917994.454 7  -3832202.91624        27.750           3.781
  20455040.061   -19897802.914 7 -15409066.26823        26.250           3.000
 91  7  9  3 27 29.9980000  0  4G 3G21G17G23
  20669881.795     -505236.042 7   -393690.88522        23.750           1.688
  24030948.709     -403139.087 5        -0.44931         7.750           0.125
  20115549.482    -4915340.815 7  -3830135.15724        27.250           3.875
  20449442.889   -19927210.399 7 -15431981.17823        26.250           2.969
 91  7  9  3 27 44.9980000  0  4G 3G21G17G23
  20674160.873     -482737.658 7   -376159.69422        22.500           1.625
  24020017.709     -460611.628 5    -44784.18721         8.500           0.031
  20116068.600    -4912627.524 7  -3828020.91324        27.750           3.938
  20443867.154   -19956515.080 7 -15454816.00323        26.750           2.938
 91  7  9  3 27 59.9980000  0  4G 3G21G17G23
  20678466.764     -460118.150 7   -358534.10722        23.000           1.563
  24009086.240     -518051.639 5    -89542.51921         8.500           0.156
  20116596.943    -4909850.941 8  -3825857.34024        28.250           3.906
  20438310.107   -19985713.403 7 -15477567.94023        26.250           3.031
 91  7  9  3 28 14.9980000  0  4G 3G21G17G23
  20682793.029     -437374.264 7   -340811.61522        22.000           1.531
  23998156.623     -575455.365 5   -134272.58821         7.750           0.094
  20117137.857    -4907007.596 8  -3823641.74324        28.000           3.938
  20432775.584   -20014801.695 7 -15500234.11523        27.000           3.094
 91  7  9  3 28 29.9980000  0  4G 3G21G17G23
  20687146.490     -414506.006 7   -322992.19322        22.500           1.625
  23987242.881     -632822.661 5   -178974.29821         8.000           0.156
  20117689.607    -4904097.506 7  -3821374.14624        27.750           4.125
  20427262.139   -20043780.022 7 -15522814.59223        27.250           3.094
 91  7  9  3 28 44.9980000  0  4G 3G21G17G23
  20691521.748     -391518.848 7   -305080.13222        22.500           1.625
  23976332.857     -690158.901 5   -223651.78221         8.000           0.156
  20118257.693    -4901126.330 8  -3819058.94124        28.000           4.094
  20421765.334   -20072653.949 7 -15545313.74223        27.250           3.063
 91  7  9  3 28 59.9980000  0  4G 3G21G17G23
  20695918.647     -368407.515 7   -287071.31322        22.000           1.531
  23965425.748     -747458.639 5   -268300.86421         7.500           0.125
  20118834.662    -4898088.636 7  -3816691.90824        27.750           4.156
  20416291.623   -20101418.034 7 -15567727.30323        27.750           3.063
 91  7  9  3 29 14.9980000  0  4G 3G21G17G23
  20700339.287     -345173.230 7   -268966.67022        21.750           1.500
  23954534.311     -804722.739 5   -312922.12921         8.250           0.156
  20119424.561    -4894985.424 8  -3814273.82324        28.000           4.406
  20410839.615   -20130073.160 7 -15590055.95223        27.750           3.125
 91  7  9  3 29 29.9980000  0  4G 3G21G17G23
  20704783.912     -321820.314 7   -250769.60621        22.250           1.438
  23943640.897     -861955.424 5   -357518.97021         8.500           0.250
  20120027.732    -4891821.127 8  -3811808.13325        28.250           4.563
  20405405.076   -20158623.759 7 -15612303.13923        27.250           3.094
 91  7  9  3 29 44.9980000  0  4G 3G21G17G23
  20709251.107     -298345.851 7   -232477.83221        22.250           1.469
  23932762.514     -919153.511 5   -402088.83121         9.000           0.313
  20120640.959    -4888592.985 7  -3809292.70024        27.750           4.438
  20399995.311   -20187066.886 8 -15634466.59823        28.000           3.063
 91  7  9  3 29 59.9980000  0  4G 3G21G17G23
  20713741.467     -274751.622 7   -214092.71621        22.750           1.438
  23921882.232     -976318.413 5   -446632.83421         8.750           0.156
  20121267.264    -4885302.503 7  -3806728.69025        27.750           4.500
  20394602.076   -20215403.892 8 -15656547.35923        28.000           3.063
 91  7  9  3 30 14.9980000  0  4G 3G21G17G23
  20718256.779     -251035.544 7   -195612.66521        23.500           1.469
  23911005.701    -1033447.829 5   -491149.16921         8.000           0.313
  20121905.647    -4881947.655 7  -3804114.52125        27.500           4.531
  20389230.576   -20243632.865 7 -15678543.92923        27.750           3.063
 91  7  9  3 30 29.9980000  0  4G 3G21G17G23
  20722789.068     -227200.873 7   -177040.20421        23.000           1.344
  23900140.990    -1090544.886 5   -535640.30421         8.250           0.344
  20122556.365    -4878531.763 7  -3801452.78625        27.750           4.531
  20383877.264   -20271756.904 7 -15700458.73123        27.750           3.063
 91  7  9  3 30 44.9980000  0  4G 3G21G17G23
  20727348.076     -203248.302 7   -158375.86521        23.000           1.219
  23889283.272    -1147610.138 5   -580106.64621         8.000           0.313
  20123218.225    -4875055.479 8  -3798743.98925        28.000           4.531
  20378547.131   -20299776.758 7 -15722292.37323        27.750           3.000
 91  7  9  3 30 59.9980000  0  4G 3G21G17G23
  20731930.881     -179174.980 7   -139617.43221        23.750           1.156
  23878438.631    -1204640.314 5   -624545.66921         9.250           0.438
  20123892.193    -4871515.647 7  -3795985.67625        27.500           4.594
  20373234.381   -20327689.367 7 -15744042.46423        27.250           3.125
 91  7  9  3 31 14.9980000  0  4G 3G21G17G23
  20736531.959     -154982.765 7   -120766.36421        23.250           1.219
  23867590.678    -1261637.156 5   -668958.69621         9.000           0.344
  20124576.584    -4867914.370 7  -3793179.49025        27.250           4.563
  20367942.889   -20355496.564 7 -15765710.41823        27.500           3.344
 91  7  9  3 31 29.9980000  0  4G 3G21G17G23
  20741158.772     -130673.167 7   -101823.83021        22.750           1.188
  23856743.725    -1318601.914 5   -713346.74221         8.750           0.375
  20125274.201    -4864252.981 7  -3790326.45725        27.750           4.531
  20362671.522   -20383199.730 7 -15787297.31523        27.500           3.344
 91  7  9  3 31 44.9980000  0  4G 3G21G17G23
  20745806.522     -106246.194 7    -82789.83221        22.250           1.281
  23845912.326    -1375534.306 5   -757709.57821         8.750           0.438
  20125982.365    -4860531.473 7  -3787426.58325        27.500           4.625
  20357419.662   -20410798.629 8 -15808802.96023        28.250           3.344
 91  7  9  3 31 59.9980000  0  4G 3G21G17G23
  20750476.850      -81700.099 7    -63663.01421        22.000           1.250
  23835081.607    -1432432.538 5   -802045.78321         8.250           0.563
  20126702.006    -4856748.012 7  -3784478.43425        27.500           4.531
  20352189.537   -20438291.536 8 -15830226.02023        28.250           3.219
 91  7  9  3 32 14.9980000  0  4G 3G21G17G23
  20755171.475      -57030.536 7    -44439.98621        23.000           1.250
  23824263.350    -1489291.967 5   -846351.75321         7.750           0.469
  20127433.623    -4852898.097 7  -3781478.50324        27.500           4.406
  20346976.045   -20465674.015 7 -15851562.97423        27.500           3.313
 91  7  9  3 32 29.9980000  0  4G 3G21G17G23
  20759890.795      -32237.504 7    -25120.75221        22.250           1.219
  23813451.100    -1546112.403 5   -890627.33521         8.000           0.531
  20128179.045    -4848981.929 7  -3778426.95324        27.250           4.406
  20341787.818   -20492946.040 7 -15872813.87823        27.750           3.188
 91  7  9  3 32 44.9980000  0  4G 3G21G17G23
  20764630.498       -7322.124 7     -5706.18221        22.250           1.344
  23802646.295    -1602894.489 5   -934873.03121         8.000           0.344
  20128938.514    -4845000.584 7  -3775324.60024        27.750           4.469
  20336616.795   -20520108.510 7 -15893979.45023        27.000           3.031
 91  7  9  3 32 59.9980000  0  4G 3G21G17G23
  20769395.287       17714.518 7     13802.87921        22.250           1.438
  23791849.068    -1659639.226 5   -979089.63121         8.500           0.500
  20129707.428    -4840955.121 7  -3772172.29325        27.250           4.625
  20331470.162   -20547162.455 7 -15915060.45923        27.750           3.219
 91  7  9  3 33 14.9980000  0  4G 3G21G17G23
  20774181.654       42867.136 7     33402.31221        21.750           1.375
  23781057.225    -1716351.512 5  -1023280.93721         9.250           0.375
  20130488.522    -4836850.520 7  -3768973.90725        27.000           4.563
  20326342.240   -20574112.893 7 -15936060.81623        27.750           3.188
 91  7  9  3 33 29.9980000  0  4G 3G21G17G23
  20778991.232       68147.605 7     53101.35921        22.000           1.344
  23770275.717    -1773019.523 5  -1067437.75121         9.000           0.375
  20131283.389    -4832675.021 7  -3765720.27524        27.250           4.469
  20321236.482   -20600947.999 7 -15956971.27623        27.250           3.188
 91  7  9  3 33 44.9980000  0  4G 3G21G17G23
  20783826.537       93546.055 7     72892.34821        23.500           1.469
  23759495.201    -1829652.744 5  -1111567.47521         8.750           0.438
  20132088.365    -4828438.545 7  -3762419.11824        26.250           4.375
  20316146.381   -20627677.680 7 -15977799.56523        26.500           3.125
 91  7  9  3 33 59.9980000  0  4G 3G21G17G23
  20788683.131      119065.957 7     92777.98622        23.000           1.500
  23748722.772    -1886247.228 5  -1155667.01521         9.000           0.469
  20132905.787    -4824137.347 7  -3759067.54024        25.750           4.469
  20311080.584   -20654298.177 7 -15998542.81323        26.500           3.063
 91  7  9  3 34 14.9980000  0  4G 3G21G17G23
  20793557.107      144687.555 7    112742.84821        21.750           1.469
  23737961.311    -1942822.644 5  -1199751.66621         9.250           0.469
  20133733.162    -4819791.177 7  -3755680.91424        25.500           4.469
  20306033.186   -20680829.164 7 -16019216.31423        27.250           2.969
 91  7  9  3 34 29.9980000  0  4G 3G21G17G23
  20798458.561      170439.539 7    132809.31722        22.000           1.500
  23727203.248    -1999350.185 5  -1243799.02021         9.250           0.563
  20134574.959    -4815371.347 7  -3752236.89525        26.000           4.563
  20301007.342   -20707241.942 7 -16039797.73723        27.000           2.906
 91  7  9  3 34 44.9980000  0  4G 3G21G17G23
  20803382.576      196317.216 7    152973.72922        22.000           1.500
  23716455.240    -2055834.201 5  -1287812.46721         8.750           0.438
  20135430.998    -4810882.499 7  -3748739.08325        26.750           4.563
  20296004.037   -20733541.104 7 -16060290.58023        27.500           2.844
 91  7  9  3 34 59.9980000  0  4G 3G21G17G23
  20808331.006      222321.050 7    173236.44022        22.250           1.563
  23705712.936    -2112273.932 5  -1331791.40121         8.500           0.438
  20136297.053    -4806323.899 7  -3745186.92224        25.750           4.406
  20291020.014   -20759726.042 7 -16080694.39823        27.500           2.969
 91  7  9  3 35 14.9980000  0  4G 3G21G17G23
  20813302.303      248442.659 7    193590.92221        23.000           1.406
  23694982.850    -2168677.538 5  -1375742.19121         8.750           0.344
  20137176.068    -4801704.065 7  -3741587.05124        25.750           4.313
  20286058.350   -20785805.051 7 -16101015.71723        27.000           3.031
 91  7  9  3 35 29.9980000  0  4G 3G21G17G23
  20818292.811      274676.304 7    214032.71321        22.750           1.375
  23684249.045    -2225050.840 5  -1419669.37421         8.500           0.406
  20138064.076    -4797028.749 7  -3737943.95124        25.500           4.281
  20281114.553   -20811783.797 7 -16121258.90623        27.000           2.938
 91  7  9  3 35 44.9980000  0  4G 3G21G17G23
  20823305.928      301016.257 7    234557.33021        22.750           1.375
  23673524.928    -2281399.082 5  -1463577.04021         8.000           0.344
  20138964.772    -4792303.364 7  -3734261.83324        25.750           4.281
  20276186.607   -20837667.957 7 -16141428.37023        26.500           3.000
 91  7  9  3 35 59.9980000  0  4G 3G21G17G23
  20828341.186      327475.572 7    255174.97221        23.000           1.438
  23662815.631    -2337708.872 5  -1507454.72221         8.000           0.344
  20139876.225    -4787514.941 7  -3730530.60124        25.500           4.156
  20271282.865   -20863444.180 7 -16161513.71923        26.750           2.813
 91  7  9  3 36 14.9980000  0  4G 3G21G17G23
  20833400.826      354066.641 7    275895.29021        23.500           1.438
  23652109.443    -2393967.507 5  -1551292.54621         8.000           0.438
  20140802.232    -4782651.120 7  -3726740.61324        26.000           4.156
  20266400.943   -20889100.016 7 -16181505.25723        27.000           2.781
 91  7  9  3 36 29.9980000  0  4G 3G21G17G23
  20838483.936      380774.607 7    296706.66322        23.250           1.500
  23641404.764    -2450189.790 5  -1595102.05121         7.500           0.406
  20141738.732    -4777726.677 7  -3722903.37324        25.000           4.031
  20261539.600   -20914650.418 8 -16201414.63223        28.000           2.750
 91  7  9  3 36 44.9980000  0  4G 3G21G17G23
  20843589.740      407604.835 7    317613.32822        23.250           1.625
  23630720.264    -2506370.107 5  -1638878.84021         8.000           0.344
  20142688.787    -4772736.286 7  -3719014.77024        25.000           4.031
  20256698.350   -20940089.830 7 -16221237.51923        27.500           2.844
 91  7  9  3 36 59.9980000  0  4G 3G21G17G23
  20848715.975      434547.086 7    338607.28022        23.000           1.625
  23620036.826    -2562518.323 5  -1682630.62021         8.750           0.406
  20143648.959    -4767689.860 7  -3715082.49224        26.000           3.781
  20251875.897   -20965428.270 7 -16240981.71923        26.250           2.875
 91  7  9  3 37 14.9980000  0  4G 3G21G17G23
  20853865.350      461608.016 7    359693.68722        23.000           1.656
  23609355.279    -2618627.613 5  -1726352.05621         8.750           0.250
  20144622.186    -4762580.703 7  -3711101.32524        26.250           3.844
  20247075.670   -20990659.126 7 -16260642.09323        26.250           2.875
 91  7  9  3 37 29.9980000  0  4G 3G21G17G23
  20859037.475      488790.324 7    380874.68422        22.000           1.750
  23598688.217    -2674694.873 5  -1770040.74221         8.750           0.281
  20145606.170    -4757405.893 7  -3707069.01024        26.750           3.781
  20242294.006   -21015779.513 7 -16280216.40923        26.000           2.813
 91  7  9  3 37 44.9980000  0  4G 3G21G17G23
  20864232.779      516090.350 7    402147.40822        22.250           1.625
  23588024.982    -2730723.611 5  -1813699.42421         9.250           0.125
  20146601.873    -4752169.287 7  -3702988.53924        27.000           3.844
  20237535.186   -21040792.957 7 -16299707.40523        25.750           2.813
 91  7  9  3 37 59.9980000  0  4G 3G21G17G23
  20869448.162      543501.843 7    423507.00022        21.000           1.719
  23577373.295    -2786719.899 5  -1857332.82621         9.500           0.156
  20147608.772    -4746877.035 7  -3698864.70724        26.500           3.781
  20232795.209   -21065705.693 7 -16319119.93623        26.750           2.875
 91  7  9  3 38 14.9980000  0  4G 3G21G17G23
  20874686.482      571025.816 7    444954.23322        20.250           1.656
  23566722.764    -2842682.368 5  -1900939.87521         9.000           0.156
  20148628.100    -4741527.935 7  -3694696.57924        27.000           3.781
  20228073.592   -21090516.631 7 -16338453.15923        26.750           2.750
 91  7  9  3 38 29.9980000  0  4G 3G21G17G23
  20879947.920      598664.364 7    466490.73922        20.250           1.594
  23556082.834    -2898608.747 5  -1944518.80221         9.750           0.188
  20149655.787    -4736120.090 7  -3690482.67824        27.000           3.813
  20223370.436   -21115223.621 7 -16357705.37923        26.250           2.750
 91  7  9  3 38 44.9980000  0  4G 3G21G17G23
  20885229.248      626421.318 7    488119.52222        20.500           1.781
  23545441.443    -2954495.111 5  -1988066.53121         9.500           0.156
  20150698.928    -4730649.342 7  -3686219.75624        27.500           3.781
  20218691.662   -21139822.638 7 -16376873.44223        26.500           2.844
 91  7  9  3 38 59.9980000  0  4G 3G21G17G23
  20890531.701      654296.923 6    509840.75322        19.750           1.719
  23534818.428    -3010340.644 5  -2031582.46021        10.000           0.156
  20151748.865    -4725115.326 7  -3681907.53324        27.000           3.844
  20214033.639   -21164313.174 7 -16395956.94623        26.500           2.844
 91  7  9  3 39 14.9980000  0  4G 3G21G17G23
  20895860.514      682291.509 7    531654.70822        20.000           1.625
  23524197.607    -3066145.007 5  -2075066.29721        10.250           0.188
  20152815.397    -4719517.732 7  -3677545.77124        27.250           3.688
  20209388.998   -21188695.099 7 -16414955.83423        26.250           2.813
 91  7  9  3 39 29.9980000  0  4G 3G21G17G23
  20901211.154      710404.604 7    553561.00622        20.250           1.656
  23513586.357    -3121908.214 5  -2118518.10721         9.750           0.156
  20153892.397    -4713856.826 7  -3673134.68024        27.250           3.688
  20204771.873   -21212968.580 7 -16433870.22923        26.500           2.719
 91  7  9  3 39 44.9980000  0  4G 3G21G17G23
  20906583.412      738637.343 7    575560.51722        20.250           1.531
  23502982.420    -3177628.997 5  -2161936.82921        10.000           0.188
  20154980.279    -4708131.549 7  -3668673.41924        27.500           3.813
  20200172.342   -21237132.506 7 -16452699.25623        25.750           2.719
 91  7  9  3 39 59.9980000  0  4G 3G21G17G23
  20911975.326      766988.600 6    597652.39122        19.000           1.563
  23492384.740    -3233308.121 5  -2205323.05021        10.000           0.219
  20156084.311    -4702343.031 8  -3664162.88824        29.000           3.750
  20195594.076   -21261187.781 7 -16471443.62823        26.250           2.719
 91  7  9  3 40 14.9980000  0  4G 3G21G17G23
  20917394.186      795457.151 6    619835.66922        19.250           1.688
  23481801.397    -3288946.501 5  -2248677.54421        10.750           0.219
  20157196.303    -4696492.240 8  -3659603.82524        28.000           3.781
  20191039.123   -21285135.435 7 -16490104.12523        26.750           2.688
 91  7  9  3 40 29.9980000  0  4G 3G21G17G23
  20922838.303      824050.117 7    642115.89322        20.500           1.563
  23471222.537    -3344536.947 5  -2291994.72521        11.250           0.281
  20158323.295    -4690572.143 7  -3654990.77124        27.500           3.750
  20186503.389   -21308968.459 7 -16508675.29923        26.750           2.594
 91  7  9  3 40 44.9980000  0  4G 3G21G17G23
  20928300.998      852762.268 7    664488.98622        20.250           1.563
  23460654.045    -3400084.359 5  -2335278.35821        10.500           0.250
  20159463.764    -4684587.711 8  -3650327.57924        29.000           3.750
  20181988.397   -21332691.782 7 -16527160.99523        26.750           2.594
 91  7  9  3 40 59.9980000  0  4G 3G21G17G23
  20933786.428      881588.354 7    686950.86822        20.250           1.656
  23450088.170    -3455593.850 5  -2378532.42521        10.500           0.188
  20160613.295    -4678544.074 8  -3645618.25624        28.500           3.656
  20177494.889   -21356310.741 7 -16545565.36123        26.750           2.656
 91  7  9  3 41 14.9980000  0  4G 3G21G17G23
  20939292.107      910528.827 7    709501.87022        20.250           1.594
  23439529.561    -3511064.562 5  -2421756.29221        10.250           0.344
  20161774.240    -4672440.770 8  -3640862.43624        28.750           3.594
  20173018.647   -21379824.596 7 -16563887.83923        26.000           2.781
 91  7  9  3 41 29.9980000  0  4G 3G21G17G23
  20944821.326      939585.311 7    732143.26922        20.500           1.563
  23428983.123    -3566494.541 5  -2464948.43521        10.250           0.313
  20162945.459    -4666276.172 8  -3636058.85624        28.750           3.563
  20168563.342   -21403231.771 7 -16582127.19123        25.750           2.719
 91  7  9  3 41 44.9980000  0  4G 3G21G17G23
  20950375.037      968756.821 7    754874.29822        20.750           1.531
  23418441.951    -3621884.195 5  -2508109.10021        10.500           0.313
  20164131.928    -4660050.945 8  -3631208.03724        29.250           3.625
  20164130.748   -21426532.904 7 -16600283.92523        25.750           2.594
 91  7  9  3 41 59.9980000  0  4G 3G21G17G23
  20955948.482      998046.232 7    777697.20622        21.500           1.563
  23407911.592    -3677230.620 5  -2551236.12721        10.750           0.469
  20165330.240    -4653762.110 8  -3626307.64923        29.250           3.406
  20159715.725   -21449725.084 7 -16618355.75123        25.750           2.656
 91  7  9  3 42 14.9980000  0  4G 3G21G17G23
  20961543.217     1027450.581 7    800609.67622        21.250           1.500
  23397385.006    -3732536.898 5  -2594331.85921        10.500           0.344
  20166537.272    -4647413.007 8  -3621360.30124        28.500           3.531
  20155325.732   -21472811.445 7 -16636345.10923        27.000           2.594
 91  7  9  3 42 29.9980000  0  4G 3G21G17G23
  20967160.154     1056963.521 7    823606.75721        21.500           1.438
  23386867.186    -3787808.677 5  -2637400.72521        10.500           0.344
  20167755.920    -4641009.182 8  -3616370.31624        29.000           3.500
  20150950.365   -21495797.891 7 -16654256.61323        25.750           2.625
 91  7  9  3 42 44.9980000  0  4G 3G21G17G23
  20972798.412     1086594.912 7    846696.15022        21.500           1.563
  23376358.475    -3843036.054 5  -2680434.98121        10.500           0.344
  20168986.951    -4634541.182 8  -3611330.31623        29.000           3.313
  20146597.076   -21518674.649 7 -16672082.65423        25.500           2.719
 91  7  9  3 42 59.9980000  0  4G 3G21G17G23
  20978456.936     1116344.364 7    869877.53322        21.500           1.594
  23365858.350    -3898219.134 5  -2723434.72021        10.750           0.406
  20170229.850    -4628009.105 8  -3606240.38923        29.000           3.469
  20142265.670   -21541442.155 7 -16689823.57023        25.750           2.781
 91  7  9  3 43 14.9980000  0  4G 3G21G17G23
  20984141.381     1146211.212 7    893150.39422        21.750           1.500
  23355366.623    -3953358.093 5  -2766400.08221        11.000           0.375
  20171484.256    -4621413.526 8  -3601100.98223        29.250           3.438
  20137952.147   -21564100.757 7 -16707479.61523        25.250           2.844
 91  7  9  3 43 29.9980000  0  4G 3G21G17G23
  20989847.787     1176188.807 7    916509.54522        22.250           1.656
  23344881.865    -4008459.529 5  -2809336.22021        10.500           0.375
  20172750.311    -4614761.113 8  -3595917.29223        29.250           3.469
  20133660.529   -21586656.909 7 -16725055.83923        25.000           2.656
 91  7  9  3 43 44.9980000  0  4G 3G21G17G23
  20995573.826     1206294.511 7    939968.52822        21.750           1.594
  23334404.787    -4063505.698 5  -2852229.26321        10.000           0.438
  20174030.787    -4608034.171 8  -3590675.51523        29.750           3.344
  20129391.881   -21609093.217 7 -16742538.66423        25.500           2.656
 91  7  9  3 43 59.9980000  0  4G 3G21G17G23
  21001327.154     1236517.981 7    963519.27522        22.250           1.563
  23323936.756    -4118506.584 5  -2895087.03821         9.500           0.406
  20175323.514    -4601243.048 8  -3585383.73323        30.250           3.375
  20125139.295   -21631419.947 7 -16759936.10623        23.750           2.594
 91  7  9  3 44 14.9980000  0  4G 3G21G17G23
  21007096.545     1266851.271 7    987155.59822        22.000           1.531
  23313477.334    -4173469.929 5  -2937915.57021         9.500           0.344
  20176625.842    -4594395.648 8  -3580048.10223        30.250           3.250
  20120913.381   -21653644.875 7 -16777254.21823        24.000           2.625
 91  7  9  3 44 29.9980000  0  4G 3G21G17G23
  21012891.436     1297305.324 7   1010886.02522        21.750           1.625
  23303029.842    -4228384.617 5  -2980706.18921         9.750           0.438
  20177941.272    -4587481.001 8  -3574660.06423        30.250           3.313
  20116705.092   -21675757.049 7 -16794484.47423        24.000           2.594
 91  7  9  3 44 44.9980000  0  4G 3G21G17G23
  21018710.732     1327873.346 7   1034705.26622        22.250           1.625
  23292586.311    -4283257.271 5  -3023464.02921         9.500           0.500
  20179268.225    -4580505.652 8  -3569224.72823        29.750           3.344
  20112518.100   -21697763.037 7 -16811631.99423        25.000           2.531
 91  7  9  3 44 59.9980000  0  4G 3G21G17G23
  21024549.287     1358556.430 7   1058614.14622        21.750           1.719
  23282152.201    -4338086.222 5  -3066187.83921         9.500           0.469
  20180607.279    -4573468.457 8  -3563741.19823        29.500           3.313
  20108350.764   -21719661.629 7 -16828695.82523        25.250           2.563
 91  7  9  3 45 14.9980000  0  4G 3G21G17G23
  21030411.365     1389356.633 7   1082614.28822        22.250           1.688
  23271727.404    -4392869.154 5  -3108875.78221         9.000           0.531
  20181959.490    -4566366.983 8  -3558207.58423        29.750           3.406
  20104202.834   -21741450.791 7 -16845674.38023        24.750           2.500
 91  7  9  3 45 29.9980000  0  4G 3G21G17G23
  21036293.436     1420273.514 7   1106705.35822        23.000           1.750
  23261311.779    -4447606.429 5  -3151528.13721         9.000           0.656
  20183323.240    -4559201.691 8  -3552624.24523        29.500           3.375
  20100077.482   -21763130.868 7 -16862567.93923        24.250           2.500
 91  7  9  3 45 44.9980000  0  4G 3G21G17G23
  21042199.100     1451300.071 7   1130881.88122        23.750           1.656
  23250897.436    -4502304.518 5  -3194149.97921         8.750           0.563
  20184698.600    -4551979.469 8  -3546996.53723        29.250           3.313
  20095974.607   -21784708.509 7 -16879381.68222        24.250           2.438
 91  7  9  3 45 59.9980000  0  4G 3G21G17G23
  21048122.342     1482431.988 7   1155140.50322        23.000           1.594
  23240500.482    -4556967.711 5  -3236744.63221         9.000           0.563
  20186081.029    -4544704.852 8  -3541328.00223        29.250           3.250
  20091884.147   -21806188.253 7 -16896119.13722        24.250           2.469
 91  7  9  3 46 14.9980000  0  4G 3G21G17G23
  21054067.412     1513678.359 7   1179488.31822        23.000           1.500
  23230102.193    -4611586.721 5  -3279304.85021         8.750           0.656
  20187476.217    -4537368.666 8  -3535611.48723        29.000           3.406
  20087818.115   -21827560.768 7 -16912773.03923        24.750           2.625
 91  7  9  3 46 29.9980000  0  4G 3G21G17G23
  21060038.436     1545043.804 7   1203928.92322        23.250           1.563
  23219726.045    -4666156.318 5  -3321826.56421         9.250           0.563
  20188886.256    -4529965.736 8  -3529842.97023        29.000           3.281
  20083771.904   -21848821.142 7 -16929339.56323        24.750           2.625
 91  7  9  3 46 44.9980000  0  4G 3G21G17G23
  21066026.647     1576516.299 7   1228452.93222        23.750           1.500
  23209347.068    -4720688.425 5  -3364319.05921         9.500           0.531
  20190304.936    -4522508.158 8  -3524031.87523        28.750           3.344
  20079745.311   -21869981.569 7 -16945828.19523        24.500           2.656
 91  7  9  3 46 59.9980000  0  4G 3G21G17G23
  21072036.178     1608107.837 7   1253069.71022        22.250           1.500
  23198976.022    -4775170.786 5  -3406772.79421         8.750           0.531
  20191738.217    -4514983.782 8  -3518168.71723        29.250           3.344
  20075742.459   -21891029.879 7 -16962229.48223        25.000           2.563
 91  7  9  3 47 14.9980000  0  4G 3G21G17G23
  21078070.498     1639810.899 7   1277773.39122        22.250           1.563
  23188614.436    -4829610.551 5  -3449193.35321         8.250           0.594
  20193180.592    -4507399.971 8  -3512259.25923        29.500           3.188
  20071754.279   -21911973.266 7 -16978548.99723        24.250           2.594
 91  7  9  3 47 29.9980000  0  4G 3G21G17G23
  21084125.904     1671626.288 7   1302564.57321        22.750           1.438
  23178263.350    -4884006.568 5  -3491579.81721         9.250           0.594
  20194636.272    -4499755.866 8  -3506302.81423        29.750           3.219
  20067787.998   -21932811.012 7 -16994786.19623        23.750           2.625
 91  7  9  3 47 44.9980000  0  4G 3G21G17G23
  21090205.201     1703566.284 7   1327452.86821        22.750           1.313
  23167928.709    -4938346.512 5  -3533922.57621         9.750           0.625
  20196103.857    -4492039.272 8  -3500289.88123        29.750           3.125
  20063846.397   -21953530.965 7 -17010931.61723        24.500           2.531
 91  7  9  3 47 59.9980000  0  4G 3G21G17G23
  21096300.436     1735614.958 7   1352425.85121        21.500           1.406
  23157597.897    -4992645.691 5  -3576233.58121        10.500           0.531
  20197581.787    -4484265.493 8  -3494232.39423        29.250           3.219
  20059924.920   -21974148.303 7 -17026997.06422        25.500           2.469
 91  7  9  3 48 14.9980000  0  4G 3G21G17G23
  21102419.115     1767762.352 7   1377475.75721        22.000           1.375
  23147271.147    -5046914.086 5  -3618520.58721        10.500           0.500
  20199072.475    -4476444.537 8  -3488138.14123        29.250           3.281
  20056016.529   -21994673.264 7 -17042990.53122        25.250           2.438
 91  7  9  3 48 29.9980000  0  4G 3G21G17G23
  21108556.959     1800021.462 7   1402612.71021        21.750           1.344
  23136947.600    -5101138.322 5  -3660773.19521        10.500           0.563
  20200571.803    -4468563.398 8  -3481996.99423        29.250           3.156
  20052132.123   -22015092.723 7 -17058901.79723        25.250           2.500
 91  7  9  3 48 44.9980000  0  4G 3G21G17G23
  21114717.834     1832392.867 7   1427837.17322        21.750           1.500
  23126639.436    -5155317.524 5  -3702990.70221        10.250           0.375
  20202081.967    -4460621.431 8  -3475808.44023        28.500           3.219
  20048267.732   -22035405.863 7 -17074730.22023        25.500           2.531
 91  7  9  3 48 59.9980000  0  4G 3G21G17G23
  21120899.084     1864871.902 7   1453145.47221        22.000           1.375
  23116336.045    -5209456.053 5  -3745176.50821        10.750           0.469
  20203604.529    -4452623.042 8  -3469575.92523        28.750           3.313
  20044419.123   -22055617.190 7 -17090479.29923        25.000           2.594
 91  7  9  3 49 14.9980000  0  4G 3G21G17G23
  21127099.748     1897465.578 7   1478543.13321        21.000           1.344
  23106044.022    -5263546.395 5  -3787324.76521        10.750           0.469
  20205138.647    -4444560.960 8  -3463293.77923        29.000           3.375
  20040594.865   -22075719.660 7 -17106143.55823        25.750           2.531
 91  7  9  3 49 29.9980000  0  4G 3G21G17G23
  21133326.092     1930171.251 7   1504028.07121        22.250           1.375
  23095756.365    -5317591.230 5  -3829437.59221        10.500           0.438
  20206684.670    -4436437.869 8  -3456964.09123        29.000           3.438
  20036789.264   -22095715.861 7 -17121725.00823        25.500           2.625
 91  7  9  3 49 44.9980000  0  4G 3G21G17G23
  21139570.654     1962990.468 7   1529601.47821        21.750           1.469
  23085486.842    -5371588.774 5  -3871513.53921        11.750           0.500
  20208242.170    -4428252.110 7  -3450585.57623        27.750           3.406
  20033005.678   -22115604.313 7 -17137222.50723        26.750           2.563
 91  7  9  3 49 59.9980000  0  4G 3G21G17G23
  21145835.561     1995916.290 7   1555257.94021        22.000           1.375
  23075213.709    -5425545.435 5  -3913557.63321        11.750           0.375
  20209810.865    -4420010.425 8  -3444163.48123        28.000           3.375
  20029239.756   -22135391.547 7 -17152641.12423        26.500           2.594
 91  7  9  3 50 14.9980000  0  4G 3G21G17G23
  21152120.920     2028957.041 7   1581003.97621        21.750           1.250
  23064958.951    -5479452.474 6  -3955563.05821        12.750           0.375
  20211392.178    -4411704.275 7  -3437691.15223        27.750           3.469
  20025495.029   -22155069.146 7 -17167974.32023        26.000           2.500
 91  7  9  3 50 29.9980000  0  4G 3G21G17G23
  21158431.459     2062110.076 7   1606837.49121        22.750           1.188
  23054706.912    -5533312.567 6  -3997531.91121        12.750           0.375
  20212983.022    -4403336.425 7  -3431170.74623        26.750           3.438
  20021771.623   -22174639.776 7 -17183224.16122        26.000           2.469
 91  7  9  3 50 44.9980000  0  4G 3G21G17G23
  21164759.514     2095376.658 7   1632759.48721        21.500           1.125
  23044469.553    -5587123.879 6  -4039462.75621        13.000           0.563
  20214587.607    -4394905.338 7  -3424601.06724        26.750           3.531
  20018068.904   -22194101.875 7 -17198389.42622        26.750           2.438
 91  7  9  3 50 59.9980000  0  4G 3G21G17G23
  21171112.764     2128751.299 7   1658765.69721        22.000           1.156
  23034235.662    -5640891.627 6  -4081359.64921        13.000           0.438
  20216202.178    -4386416.466 7  -3417986.36024        26.500           3.594
  20014384.545   -22213460.864 7 -17213474.35422        26.750           2.313
 91  7  9  3 51 14.9980000  0  4G 3G21G17G23
  21177485.451     2162236.091 7   1684857.72421        22.500           1.125
  23024013.857    -5694613.681 6  -4123220.93621        13.250           0.438
  20217829.311    -4377867.672 7  -3411324.95924        26.500           3.719
  20010719.936   -22232714.820 7 -17228477.43422        26.750           2.406
 91  7  9  3 51 29.9980000  0  4G 3G21G17G23
  21183877.701     2195831.039 7   1711035.59421        22.000           1.188
  23013800.920    -5748289.431 6  -4165046.12721        13.500           0.531
  20219467.576    -4369258.265 7  -3404616.32824        26.250           3.656
  20007076.178   -22251863.093 7 -17243398.15422        26.750           2.313
 91  7  9  3 51 44.9980000  0  4G 3G21G17G23
  21190292.475     2229537.509 7   1737300.36021        22.500           1.094
  23003591.170    -5801917.402 6  -4206834.11721        12.500           0.500
  20221116.014    -4360587.090 7  -3397859.56124        25.000           3.750
  20003453.014   -22270904.598 7 -17258235.68622        27.000           2.438
 91  7  9  3 51 59.9980000  0  4G 3G21G17G23
  21196727.662     2263353.669 7   1763650.60821        23.250           1.000
  22993399.732    -5855499.072 6  -4248586.01621        13.750           0.469
  20222779.811    -4351855.634 7  -3391055.83924        25.250           3.906
  19999848.272   -22289840.859 7 -17272991.21022        26.000           2.406
 91  7  9  3 52 14.9980000  0  4G 3G21G17G23
  21203184.404     2297281.186 7   1790087.62421        23.250           1.063
  22983207.639    -5909032.350 6  -4290300.19821        13.500           0.469
  20224452.678    -4343062.190 7  -3384203.80324        25.000           3.875
  19996267.811   -22308670.116 7 -17287663.36022        27.250           2.344
 91  7  9  3 52 29.9980000  0  4G 3G21G17G23
  21209659.897     2331315.008 7   1816607.47121        22.500           1.031
  22973034.170    -5962522.153 6  -4331980.50521        13.750           0.469
  20226136.506    -4334211.760 7  -3377307.35724        24.750           3.781
  19992702.553   -22327397.512 7 -17302256.12122        27.500           2.344
 91  7  9  3 52 44.9980000  0  4G 3G21G17G23
  21216156.131     2365456.125 7   1843210.93121        22.500           1.031
  22962862.654    -6015967.111 6  -4373625.86921        13.750           0.438
  20227832.123    -4325303.164 7  -3370365.58724        24.500           3.844
  19989158.514   -22346021.608 7 -17316768.40222        27.000           2.344
 91  7  9  3 52 59.9980000  0  4G 3G21G17G23
  21222672.092     2399694.426 7   1869890.11321        22.750           0.969
  22952698.029    -6069377.270 6  -4415244.11721        14.000           0.531
  20229536.076    -4316346.564 7  -3363386.41724        24.250           3.719
  19985630.772   -22364552.744 7 -17331208.24722        26.750           2.375
 91  7  9  3 53 14.9980000  0  4G 3G21G17G23
  21229209.756     2434042.328 7   1896654.68221        22.250           1.031
  22942539.537    -6122739.781 6  -4456825.24621        13.250           0.469
  20231252.662    -4307329.120 7  -3356359.83824        25.000           3.750
  19982126.982   -22382978.221 7 -17345565.75922        27.500           2.344
 91  7  9  3 53 29.9980000  0  4G 3G21G17G23
  21235763.443     2468488.961 7   1923496.20021        22.500           0.875
  22932395.717    -6176065.258 6  -4498377.51521        13.500           0.469
  20232976.881    -4298261.862 7  -3349294.44024        24.750           3.875
  19978636.170   -22401308.779 7 -17359849.30022        26.500           2.375
 91  7  9  3 53 44.9980000  0  4G 3G21G17G23
  21242340.303     2503047.403 7   1950424.84721        21.750           0.875
  22922260.748    -6229340.002 6  -4539890.24921        13.750           0.469
  20234715.139    -4289131.200 7  -3342179.63024        24.750           3.969
  19975170.029   -22419531.153 7 -17374048.54722        26.750           2.406
 91  7  9  3 53 59.9980000  0  4G 3G21G17G23
  21248936.857     2537711.765 7   1977436.02321        21.750           0.969
  22912129.490    -6282569.814 6  -4581367.97421        13.500           0.500
  20236464.217    -4279943.040 7  -3335020.02924        25.000           3.969
  19971721.592   -22437651.278 7 -17388168.12122        27.500           2.469
 91  7  9  3 54 14.9980000  0  4G 3G21G17G23
  21255551.115     2572485.688 7   2004532.58321        20.750           1.000
  22902009.686    -6335750.889 6  -4622807.73421        13.250           0.406
  20238223.123    -4270693.575 7  -3327812.65124        25.500           4.000
  19968293.506   -22455665.229 7 -17402204.95523        27.500           2.563
 91  7  9  3 54 29.9980000  0  4G 3G21G17G23
  21262190.623     2607364.549 7   2031710.88821        21.250           1.031
  22891898.139    -6388887.386 6  -4664212.75121        13.000           0.469
  20239994.357    -4261387.293 7  -3320561.00024        25.750           3.938
  19964884.990   -22473577.854 7 -17416162.84923        26.750           2.500
 91  7  9  3 54 44.9980000  0  4G 3G21G17G23
  21268846.904     2642351.038 7   2058973.07621        21.250           0.969
  22881792.686    -6441976.240 6  -4705580.64121        12.250           0.469
  20241776.850    -4252021.407 7  -3313262.91824        26.000           3.969
  19961496.412   -22491386.086 7 -17430039.38823        27.250           2.531
 91  7  9  3 54 59.9980000  0  4G 3G21G17G23
  21275526.436     2677439.667 7   2086314.85121        20.750           1.063
  22871700.522    -6495022.655 6  -4746915.45321        12.000           0.438
  20243570.889    -4242600.969 7  -3305922.30924        26.500           3.938
  19958126.193   -22509095.075 7 -17443838.59423        27.000           2.563
 91  7  9  3 55 14.9980000  0  4G 3G21G17G23
  21282222.756     2712631.885 7   2113737.34921        20.500           0.875
  22861612.232    -6548024.915 5  -4788215.87521        11.000           0.469
  20245373.076    -4233124.657 7  -3298538.16924        27.000           4.031
  19954775.623   -22526703.335 7 -17457559.32123        27.250           2.531
 91  7  9  3 55 29.9980000  0  4G 3G21G17G23
  21288940.100     2747931.506 7   2141243.52921        20.500           1.000
  22851539.154    -6600978.946 5  -4829478.69721        11.250           0.469
  20247189.748    -4223588.478 7  -3291107.37624        27.250           3.875
  19951445.764   -22544207.221 7 -17471198.70023        27.000           2.656
 91  7  9  3 55 44.9980000  0  4G 3G21G17G23
  21295677.701     2783337.636 7   2168832.70521        21.000           1.031
  22841468.537    -6653885.183 5  -4870704.30521        11.000           0.469
  20249012.506    -4213992.997 7  -3283630.37324        26.500           3.938
  19948133.232   -22561607.218 7 -17484757.13023        26.750           2.625
 91  7  9  3 55 59.9980000  0  4G 3G21G17G23
  21302436.537     2818846.732 7   2196502.10921        21.000           1.000
  22831411.990    -6706746.945 5  -4911895.24121        11.000           0.531
  20250851.600    -4204341.627 7  -3276109.82424        26.750           4.063
  19944841.686   -22578906.916 7 -17498237.41523        26.750           2.563
 91  7  9  3 56 14.9980000  0  4G 3G21G17G23
  21309213.131     2854462.745 7   2224254.82621        20.500           1.031
  22821359.881    -6759559.895 5  -4953048.14421        10.750           0.469
  20252697.975    -4194630.171 7  -3268542.45124        27.000           4.031
  19941568.553   -22596101.985 7 -17511636.16323        26.250           2.625
 91  7  9  3 56 29.9980000  0  4G 3G21G17G23
  21316011.475     2890189.423 7   2252093.77521        20.000           0.938
  22811322.365    -6812320.275 5  -4994160.09321        11.250           0.469
  20254560.084    -4184855.060 7  -3260925.48624        27.500           4.125
  19938318.545   -22613188.885 7 -17524950.62523        27.000           2.563
 91  7  9  3 56 44.9980000  0  4G 3G21G17G23
  21322831.365     2926021.016 7   2280014.47921        20.000           0.969
  22801292.576    -6865033.333 5  -5035235.16721        11.250           0.594
  20256430.701    -4175021.662 7  -3253263.09924        27.250           4.219
  19935085.162   -22630173.183 7 -17538185.13523        27.000           2.500
 91  7  9  3 56 59.9980000  0  4G 3G21G17G23
  21329667.193     2961958.378 6   2308017.60721        19.000           1.000
  22791268.287    -6917697.856 5  -5076272.40221        11.500           0.500
  20258312.537    -4165128.787 7  -3245554.36324        26.750           4.063
  19931873.725   -22647053.830 7 -17551338.88723        27.500           2.594
 91  7  9  3 57 14.9980000  0  4G 3G21G17G23
  21336526.467     2998002.954 6   2336104.27621        19.250           0.938
  22781254.037    -6970312.116 5  -5117270.50821        11.250           0.594
  20260207.147    -4155174.945 7  -3237798.12024        27.500           4.188
  19928680.975   -22663829.278 7 -17564410.66722        27.500           2.469
 91  7  9  3 57 29.9980000  0  4G 3G21G17G23
  21343405.951     3034155.092 6   2364274.76621        19.000           0.969
  22771251.061    -7022875.460 5  -5158228.92521        10.500           0.563
  20262112.639    -4145159.807 8  -3229994.11424        28.000           4.219
  19925509.303   -22680499.187 7 -17577400.19923        27.500           2.563
 91  7  9  3 57 44.9980000  0  4G 3G21G17G23
  21350305.693     3070415.284 6   2392529.43621        18.750           0.906
  22761262.834    -7075387.180 5  -5199147.10921        11.750           0.594
  20264030.397    -4135082.513 8  -3222141.67824        28.000           4.281
  19922357.389   -22697062.813 7 -17590306.91623        27.000           2.625
 91  7  9  3 57 59.9980000  0  4G 3G21G17G23
  21357225.982     3106784.142 6   2420868.79421        18.250           0.938
  22751279.732    -7127846.213 6  -5240024.23521        12.000           0.625
  20265960.936    -4124942.249 8  -3214240.17624        28.000           4.250
  19919225.943   -22713519.282 7 -17603130.14023        27.500           2.625
 91  7  9  3 58 14.9980000  0  4G 3G21G17G23
  21364168.178     3143260.307 6   2449291.76721        18.250           0.875
  22741305.443    -7180253.660 6  -5280861.17621        12.000           0.531
  20267901.990    -4114740.521 8  -3206290.77524        28.250           4.125
  19916115.482   -22729869.945 7 -17615870.92123        27.750           2.563
 91  7  9  3 58 29.9980000  0  4G 3G21G17G23
  21371128.639     3179843.336 6   2477798.00621        17.500           0.938
  22731341.397    -7232609.603 6  -5321657.97221        12.250           0.625
  20269854.787    -4104477.114 8  -3198293.31624        28.250           4.281
  19913023.006   -22746115.065 7 -17628529.45523        27.500           2.500
 91  7  9  3 58 44.9980000  0  4G 3G21G17G23
  21378112.740     3216531.413 6   2506386.09121        18.000           1.063
  22721387.193    -7284915.646 6  -5362415.89021        12.250           0.625
  20271819.037    -4094153.922 8  -3190249.27624        28.000           4.344
  19909951.889   -22762256.277 7 -17641107.02523        27.500           2.500
 91  7  9  3 58 59.9980000  0  4G 3G21G17G23
  21385112.959     3253323.886 6   2535055.52821        17.500           0.969
  22711441.490    -7337171.981 6  -5403135.07921        12.750           0.688
  20273794.170    -4083771.322 8  -3182158.94424        28.000           4.219
  19906899.584   -22778294.120 7 -17653604.04422        27.500           2.469
 91  7  9  3 59 14.9980000  0  4G 3G21G17G23
  21392133.287     3290222.890 6   2563807.97821        17.750           0.906
  22701509.131    -7389376.379 6  -5443813.79421        12.750           0.656
  20275781.865    -4073327.361 8  -3174020.79224        28.000           4.313
  19903867.693   -22794226.625 7 -17666018.97622        27.000           2.469
 91  7  9  3 59 29.9980000  0  4G 3G21G17G23
  21399176.264     3327223.916 6   2592639.94421        18.500           0.969
  22691586.568    -7441532.690 6  -5484455.03121        13.750           0.750
  20277780.068    -4062826.151 7  -3165838.03724        27.500           4.344
  19900854.436   -22810058.105 7 -17678355.19623        27.000           2.531
 91  7  9  3 59 44.9980000  0  4G 3G21G17G23
  21406237.584     3364331.057 6   2621554.58021        18.250           0.875
  22681671.232    -7493636.512 6  -5525055.37521        13.750           0.750
  20279788.982    -4052263.190 7  -3157607.16124        27.250           4.313
  19897861.826   -22825784.077 7 -17690609.20123        27.500           2.563
 91  7  9  3 59 59.9980000  0  4G 3G21G17G23
  21413314.272     3401542.560 6   2650550.54021        16.750           0.813
  22671762.318    -7545689.480 6  -5565616.07921        13.500           0.781
  20281812.147    -4041640.304 8  -3149329.59424        28.000           4.344
  19894889.818   -22841406.297 8 -17702782.35723        28.000           2.656
 91  7  9  4  0 14.9980000  0  4G 3G21G17G23
  21420417.959     3438856.370 6   2679626.22321        17.000           0.906
  22661866.990    -7597693.068 6  -5606138.32021        13.750           0.781
  20283842.967    -4030959.062 8  -3141006.55424        28.000           4.281
  19891937.686   -22856926.650 8 -17714876.13823        28.000           2.656
 91  7  9  4  0 29.9980000  0  4G 3G21G17G23
  21427539.076     3476274.849 6   2708783.46821        16.500           0.875
  22651985.193    -7649644.831 6  -5646620.16921        14.250           0.781
  20285888.467    -4020217.229 8  -3132636.29524        28.250           4.406
  19889001.834   -22872342.700 7 -17726888.64123        27.750           2.719
 91  7  9  4  0 44.9980000  0  4G 3G21G17G23
  21434679.014     3513804.510 6   2738027.33521        15.500           0.844
  22642108.334    -7701538.115 6  -5687056.44821        14.500           0.813
  20287944.162    -4009408.112 8  -3124213.61624        28.000           4.250
  19886090.037   -22887647.846 8 -17738814.73623        28.000           2.594
 91  7  9  4  0 59.9980000  0  4G 3G21G17G23
  21441840.131     3551440.475 6   2767354.05821        15.250           0.938
  22632241.412    -7753377.311 6  -5727450.58921        14.250           0.813
  20290015.107    -3998536.366 8  -3115742.13124        29.250           4.156
  19883196.795   -22902846.816 7 -17750658.09223        27.500           2.625
 91  7  9  4  1 14.9980000  0  4G 3G21G17G23
  21449027.154     3589180.501 6   2796761.85821        17.000           0.906
  22622385.740    -7805164.377 6  -5767804.10121        14.000           0.813
  20292092.943    -3987604.189 8  -3107223.55624        28.750           4.094
  19880323.686   -22917941.942 7 -17762420.52623        27.750           2.531
 91  7  9  4  1 29.9980000  0  4G 3G21G17G23
  21456223.592     3627025.812 6   2826251.68321        16.250           0.844
  22612542.443    -7856897.668 6  -5808115.70821        15.000           0.781
  20294188.053    -3976609.872 8  -3098656.55524        29.250           4.063
  19877472.389   -22932931.482 7 -17774100.68723        27.750           2.625
 91  7  9  4  1 44.9980000  0  4G 3G21G17G23
  21463446.272     3664977.697 6   2855824.57321        16.250           0.906
  22602710.287    -7908575.675 6  -5848384.24221        15.500           0.813
  20296290.037    -3965552.237 8  -3090040.21824        29.000           4.094
  19874640.287   -22947814.251 7 -17785697.64823        27.750           2.750
 91  7  9  4  1 59.9980000  0  4G 3G21G17G23
  21470691.475     3703035.196 6   2885479.75021        16.250           0.844
  22592885.787    -7960198.963 6  -5888610.15421        15.750           0.781
  20298407.982    -3954431.832 8  -3081374.96624        30.500           3.906
  19871827.975   -22962590.918 7 -17797211.93523        27.250           2.875
 91  7  9  4  2 14.9980000  0  4G 3G21G17G23
  21477951.748     3741202.051 6   2915220.14521        16.250           0.938
  22583074.553    -8011763.389 6  -5928790.17921        15.500           0.750
  20300535.514    -3943244.743 8  -3072657.76324        29.500           3.906
  19869037.725   -22977257.549 7 -17808640.48123        27.750           2.813
 91  7  9  4  2 29.9980000  0  4G 3G21G17G23
  21485235.717     3779478.249 6   2945045.74221        16.250           0.906
  22573271.084    -8063268.710 6  -5968924.15721        15.250           0.813
  20302676.279    -3931990.784 8  -3063888.44224        29.500           4.031
  19866268.717   -22991814.258 8 -17819983.37023        28.000           2.906
 91  7  9  4  2 44.9980000  0  4G 3G21G17G23
  21492539.107     3817858.674 6   2974952.55921        16.750           0.969
  22563481.397    -8114719.581 6  -6009015.69121        14.750           0.813
  20304830.553    -3920674.788 8  -3055070.78824        29.750           3.906
  19863518.436   -23006265.908 8 -17831244.39423        28.250           2.688
 91  7  9  4  2 59.9980000  0  4G 3G21G17G23
  21499862.678     3856343.153 6   3004940.44921        17.000           0.844
  22553702.350    -8166116.000 6  -6049064.80621        14.750           0.719
  20306996.451    -3909296.809 8  -3046204.83224        30.000           3.844
  19860787.936   -23020612.507 8 -17842423.56023        28.000           2.656
 91  7  9  4  3 14.9980000  0  4G 3G21G17G23
  21507204.467     3894929.068 6   3035007.38621        17.250           0.719
  22543928.498    -8217460.262 6  -6089073.27021        14.000           0.563
  20309171.889    -3897859.389 8  -3037292.56724        29.500           3.844
  19858077.889   -23034856.591 8 -17853522.84823        28.500           2.844
 91  7  9  4  3 29.9980000  0  4G 3G21G17G23
  21514568.170     3933620.894 6   3065156.84821        18.000           0.781
  22534168.389    -8268747.596 6  -6129037.38021        14.000           0.656
  20311361.397    -3886357.875 8  -3028330.35124        29.750           3.844
  19855387.225   -23048993.803 8 -17864538.85523        28.000           2.813
 91  7  9  4  3 44.9980000  0  4G 3G21G17G23
  21521952.990     3972417.116 6   3095387.67221        18.000           0.813
  22524421.186    -8319979.060 6  -6168957.96821        14.000           0.625
  20313563.272    -3874793.284 8  -3019318.98024        30.500           3.750
  19852716.850   -23063025.400 7 -17875472.57023        27.750           3.031
 91  7  9  4  3 59.9980000  0  4G 3G21G17G23
  21529354.529     4011317.231 6   3125699.42621        18.250           0.813
  22514685.764    -8371154.996 6  -6208835.27921        14.250           0.656
  20315773.061    -3863166.408 8  -3010259.08024        29.750           3.750
  19850066.537   -23076951.799 8 -17886324.31523        28.000           2.969
 91  7  9  4  4 14.9980000  0  4G 3G21G17G23
  21536775.639     4050318.333 6   3156089.88421        17.750           0.844
  22504953.498    -8422277.896 6  -6248671.26121        13.500           0.594
  20317998.842    -3851479.711 8  -3001152.56224        30.500           3.719
  19847436.443   -23090775.732 7 -17897096.21423        27.750           3.000
 91  7  9  4  4 29.9980000  0  4G 3G21G17G23
  21544216.303     4089422.893 6   3186560.96021        18.000           0.844
  22495235.740    -8473344.874 6  -6288463.66321        13.000           0.625
  20320235.967    -3839730.395 8  -2991997.25724        30.750           3.625
  19844828.037   -23104494.331 8 -17907786.02823        28.500           3.094
 91  7  9  4  4 44.9980000  0  4G 3G21G17G23
  21551677.467     4128627.722 6   3217110.16621        18.250           0.875
  22485529.568    -8524358.734 6  -6328214.68221        13.750           0.531
  20322480.350    -3827921.271 8  -2982795.34124        30.000           3.625
  19842234.264   -23118110.794 7 -17918396.26323        27.750           3.000
 91  7  9  4  4 59.9980000  0  4G 3G21G17G23
  21559158.162     4167935.608 6   3247739.67421        18.250           0.875
  22475830.529    -8575316.445 6  -6367921.95621        13.000           0.688
  20324740.764    -3816049.605 8  -2973544.68924        30.500           3.594
  19839663.006   -23131622.386 7 -17928924.78023        27.250           2.969
 91  7  9  4  5 14.9980000  0  4G 3G21G17G23
  21566658.123     4207345.821 6   3278448.91821        18.500           0.875
  22466147.514    -8626218.499 6  -6407585.85421        13.500           0.625
  20327010.475    -3804115.995 8  -2964245.76724        30.500           3.688
  19837111.139   -23145029.641 7 -17939371.99323        27.500           3.000
 91  7  9  4  5 29.9980000  0  4G 3G21G17G23
  21574176.592     4246858.961 6   3309238.36421        17.750           0.844
  22456470.170    -8677063.950 6  -6447205.64621        13.250           0.625
  20329295.193    -3792119.714 8  -2954898.01624        30.750           3.625
  19834579.897   -23158331.799 7 -17949737.30523        27.500           3.031
 91  7  9  4  5 44.9980000  0  4G 3G21G17G23
  21581713.897     4286470.676 6   3340104.62421        17.500           0.875
  22446805.631    -8727856.935 6  -6486784.55721        12.750           0.656
  20331588.639    -3780064.901 8  -2945504.65024        31.250           3.625
  19832068.529   -23171532.972 7 -17960023.94223        27.750           2.906
 91  7  9  4  5 59.9980000  0  4G 3G21G17G23
  21589271.154     4326185.236 6   3371051.01921        18.000           0.906
  22437148.529    -8778592.686 6  -6526318.87221        12.000           0.688
  20333894.248    -3767947.047 8  -2936062.17124        30.750           3.656
  19829577.232   -23184628.757 8 -17970228.44723        28.250           2.938
 91  7  9  4  6 14.9980000  0  4G 3G21G17G23
  21596848.240     4366000.156 6   3402075.61221        17.750           0.875
  22427503.975    -8829273.255 6  -6565810.18121        12.250           0.563
  20336210.795    -3755768.318 8  -2926572.25124        30.500           3.625
  19827104.232   -23197621.664 8 -17980352.79423        28.250           2.906
 91  7  9  4  6 29.9980000  0  4G 3G21G17G23
  21604444.920     4405916.237 6   3433179.05521        17.750           0.750
  22417870.967    -8879897.581 6  -6605257.67921        12.250           0.688
  20338541.834    -3743527.852 8  -2917034.22424        30.750           3.594
  19824650.912   -23210510.673 8 -17990396.17623        28.000           2.813
 91  7  9  4  6 44.9980000  0  4G 3G21G17G23
  21612059.654     4445936.063 6   3464363.31721        17.500           0.906
  22408248.615    -8930462.779 6  -6644659.08621        12.250           0.656
  20340882.881    -3731223.038 8  -2907446.05524        31.000           3.688
  19822218.709   -23223293.169 8 -18000356.56623        28.000           2.719
 91  7  9  4  6 59.9980000  0  4G 3G21G17G23
  21619696.232     4486060.188 6   3495628.84921        17.500           0.969
  22398642.717    -8980967.780 6  -6684013.59321        12.500           0.781
  20343236.529    -3718852.583 8  -2897806.73324        30.500           3.656
  19819807.084   -23235968.082 8 -18010233.12023        28.500           2.813
 91  7  9  4  7 14.9980000  0  4G 3G21G17G23
  21627350.061     4526286.937 6   3526974.36121        16.750           0.875
  22389038.826    -9031414.203 6  -6723322.47221        12.000           0.688
  20345601.975    -3706418.146 8  -2888117.56024        30.500           3.688
  19817414.982   -23248537.387 8 -18020027.38223        28.750           2.781
 91  7  9  4  7 29.9980000  0  4G 3G21G17G23
  21635022.959     4566616.483 6   3558399.98021        16.250           0.938
  22379452.553    -9081801.595 6  -6762585.33421        12.500           0.625
  20347981.889    -3693919.550 8  -2878378.39324        30.250           3.563
  19815043.186   -23261000.775 8 -18029739.11423        28.250           2.688
 91  7  9  4  7 44.9980000  0  4G 3G21G17G23
  21642717.967     4607047.858 6   3589904.92321        16.500           0.938
  22369872.490    -9132130.193 6  -6801802.38321        12.750           0.750
  20350371.225    -3681357.144 8  -2868589.50324        30.500           3.625
  19812692.592   -23273358.843 8 -18039368.78523        28.500           2.719
 91  7  9  4  7 59.9980000  0  4G 3G21G17G23
  21650430.568     4647577.150 6   3621486.16521        15.750           0.844
  22360306.826    -9182403.994 6  -6840976.74821        12.750           0.875
  20352773.404    -3668734.971 8  -2858754.04124        30.750           3.656
  19810360.287   -23285615.570 8 -18048919.47323        29.000           2.719
 91  7  9  4  8 14.9980000  0  4G 3G21G17G23
  21658161.998     4688204.347 6   3653143.70721        16.250           0.813
  22350749.842    -9232622.572 6  -6880108.07021        12.750           0.875
  20355186.936    -3656052.690 8  -2848871.74324        29.750           3.688
  19808047.475   -23297770.803 8 -18058391.08823        29.000           2.781
 91  7  9  4  8 29.9980000  0  4G 3G21G17G23
  21665910.522     4728931.537 6   3684879.16521        15.750           0.781
  22341204.397    -9282783.363 6  -6919194.36621        13.250           0.938
  20357611.568    -3643307.990 8  -2838940.79824        30.250           3.719
  19805752.318   -23309822.120 8 -18067781.73423        28.250           2.688
 91  7  9  4  8 44.9980000  0  4G 3G21G17G23
  21673681.912     4769757.540 6   3716691.62821        16.250           0.688
  22331672.318    -9332887.203 6  -6958236.28021        13.500           0.844
  20360048.967    -3630502.093 8  -2828962.18124        30.500           3.688
  19803478.928   -23321770.765 8 -18077092.37023        28.000           2.625
 91  7  9  4  8 59.9980000  0  4G 3G21G17G23
  21681467.865     4810682.914 6   3748581.51021        15.750           0.719
  22322148.709    -9382932.984 6  -6997232.96521        13.750           0.844
  20362497.584    -3617634.064 8  -2818935.13524        29.500           3.656
  19801225.654   -23333615.803 8 -18086322.26423        28.750           2.750
 91  7  9  4  9 14.9980000  0  4G 3G21G17G23
  21689276.881     4851709.418 6   3780550.22121        16.250           0.750
  22312633.943    -9432918.863 6  -7036182.96621        13.750           0.781
  20364957.631    -3604701.858 8  -2808858.09024        29.000           3.656
  19798991.678   -23345355.536 8 -18095470.10423        28.750           2.750
 91  7  9  4  9 29.9980000  0  4G 3G21G17G23
  21697101.459     4892837.430 6   3812598.01021        15.500           0.625
  22303134.912    -9482844.164 6  -7075085.77721        14.000           0.781
  20367431.420    -3591704.830 8  -2798730.52723        28.500           3.406
  19796777.678   -23356989.408 8 -18104535.46923        29.500           2.750
 91  7  9  4  9 44.9980000  0  4G 3G21G17G23
  21704947.201     4934065.694 6   3844723.91421        15.250           0.594
  22293644.506    -9532709.840 6  -7113942.11721        14.250           0.875
  20369917.272    -3578644.051 8  -2788553.29523        29.000           3.313
  19794582.662   -23368518.649 8 -18113519.28923        29.000           2.656
 91  7  9  4  9 59.9980000  0  4G 3G21G17G23
  21712810.600     4975394.310 6   3876928.01421        15.500           0.688
  22284167.662    -9582515.071 6  -7152751.35421        14.750           0.813
  20372414.428    -3565519.237 8  -2778326.16523        28.750           3.281
  19792409.365   -23379942.740 8 -18122421.18023        28.750           2.656
 91  7  9  4 10 14.9980000  0  4G 3G21G17G23
  21720695.006     5016818.909 6   3909206.89921        16.250           0.688
  22274698.803    -9632264.345 6  -7191516.98921        15.000           0.813
  20374924.006    -3552334.819 8  -2768052.59123        28.500           3.313
  19790255.326   -23391266.159 8 -18131244.62323        28.250           2.750
 91  7  9  4 10 29.9980000  0  4G 3G21G17G23
  21728595.451     5058339.480 6   3941560.57321        15.750           0.688
  22265245.076    -9681957.127 6  -7230238.59021        15.000           0.781
  20377442.256    -3539090.168 7  -2757732.07423        27.500           3.313
  19788118.568   -23402488.755 8 -18139989.50523        28.750           2.719
 91  7  9  4 10 44.9980000  0  4G 3G21G17G23
  21736512.951     5099957.982 6   3973990.55321        15.500           0.563
  22255799.506    -9731591.113 6  -7268914.37721        15.250           0.813
  20379974.201    -3525783.218 7  -2747363.02623        27.750           3.188
  19786003.147   -23413608.476 8 -18148654.22223        29.000           2.781
 91  7  9  4 10 59.9980000  0  4G 3G21G17G23
  21744452.686     5141677.403 6   4006499.18721        15.750           0.531
  22246368.061    -9781163.153 6  -7307541.90021        15.750           0.844
  20382521.240    -3512410.996 8  -2736943.11223        28.000           3.188
  19783907.467   -23424622.272 8 -18157236.40223        29.000           2.625
 91  7  9  4 11 14.9980000  0  4G 3G21G17G23
  21752413.857     5183493.704 6   4039083.30421        16.250           0.719
  22236944.904    -9830676.808 6  -7346123.93621        15.500           0.906
  20385076.420    -3498977.032 7  -2726475.07923        27.500           3.250
  19781831.514   -23435533.791 8 -18165738.89223        29.250           2.813
 91  7  9  4 11 29.9980000  0  4G 3G21G17G23
  21760387.045     5225404.801 6   4071741.28521        16.000           0.563
  22227535.139    -9880133.802 6  -7384661.81321        16.000           0.969
  20387646.303    -3485483.178 8  -2715960.38923        28.500           3.281
  19779774.787   -23446345.149 8 -18174163.33723        28.750           2.750
 91  7  9  4 11 44.9980000  0  4G 3G21G17G23
  21768381.990     5267414.574 6   4104476.15421        16.250           0.625
  22218134.014    -9929529.874 6  -7423152.20821        16.500           0.906
  20390225.084    -3471925.358 8  -2705395.86023        28.250           3.156
  19777735.186   -23457052.296 8 -18182506.57423        28.000           2.750
 91  7  9  4 11 59.9980000  0  4G 3G21G17G23
  21776395.170     5309521.001 6   4137286.35521        16.750           0.563
  22208744.272    -9978866.758 6  -7461596.47621        17.000           0.969
  20392816.100    -3458305.502 7  -2694782.98823        27.250           3.094
  19775717.389   -23467656.845 8 -18190769.86823        28.000           2.750
 91  7  9  4 12 14.9980000  0  4G 3G21G17G23
  21784426.084     5351725.035 6   4170172.59721        16.500           0.500
  22199368.240   -10028143.142 6  -7499993.63121        17.000           0.781
  20395420.873    -3444622.296 7  -2684120.74423        27.000           3.031
  19773719.975   -23478158.013 8 -18198952.59223        28.250           2.688
 91  7  9  4 12 29.9980000  0  4G 3G21G17G23
  21792474.272     5394025.839 6   4203134.26021        16.000           0.625
  22190002.873   -10077359.652 6  -7538344.12621        17.250           0.969
  20398036.147    -3430876.573 7  -2673409.78523        26.750           3.000
  19771741.162   -23488556.431 8 -18207055.24523        28.250           2.813
 91  7  9  4 12 44.9980000  0  4G 3G21G17G23
  21800543.576     5436421.014 6   4236169.44421        16.500           0.594
  22180647.092   -10126518.083 6  -7576649.36621        17.000           0.844
  20400662.936    -3417070.084 7  -2662651.47923        25.750           2.969
  19769781.201   -23498854.354 8 -18215079.59523        28.500           2.688
 91  7  9  4 12 59.9980000  0  4G 3G21G17G23
  21808627.232     5478912.783 6   4269279.90921        16.750           0.594
  22171304.084   -10175616.170 6  -7614907.58021        17.500           0.938
  20403301.295    -3403200.888 7  -2651844.30823        25.750           2.938
  19767841.740   -23509049.852 8 -18223024.14823        28.500           2.781
 91  7  9  4 13 14.9980000  0  4G 3G21G17G23
  21816734.451     5521498.214 6   4302463.34821        16.250           0.469
  22161971.998   -10224656.199 6  -7653120.55521        18.000           0.969
  20405952.397    -3389271.453 7  -2640990.19623        26.500           3.000
  19765919.928   -23519145.105 8 -18230890.59323        28.000           2.844
 91  7  9  4 13 29.9980000  0  4G 3G21G17G23
  21824853.459     5564177.700 6   4335720.07221        16.750           0.656
  22152653.154   -10273637.335 6  -7691287.63221        19.000           0.938
  20408614.709    -3375280.964 7  -2630088.51023        26.500           3.000
  19764018.365   -23529139.819 7 -18238678.68623        27.500           2.719
 91  7  9  4 13 44.9980000  0  4G 3G21G17G23
  21832992.193     5606944.684 6   4369044.97521        17.000           0.531
  22143340.592   -10322566.184 6  -7729413.97521        18.000           0.938
  20411289.443    -3361235.965 7  -2619144.35823        26.250           3.031
  19762134.279   -23539040.366 7 -18246393.38723        27.500           2.594
 91  7  9  4 13 59.9980000  0  4G 3G21G17G23
  21841148.936     5649807.803 6   4402444.79421        16.250           0.563
  22134040.037   -10371433.574 6  -7767492.43721        17.250           0.813
  20413972.818    -3347127.477 7  -2608150.72523        26.250           2.938
  19760270.397   -23548837.921 8 -18254027.85623        28.000           2.719
 91  7  9  4 14 14.9980000  0  4G 3G21G17G23
  21849323.584     5692761.668 6   4435915.31221        16.000           0.656
  22124752.318   -10420244.424 6  -7805526.81321        17.250           0.938
  20416669.326    -3332960.723 7  -2597111.69423        26.500           2.875
  19758424.529   -23558537.630 8 -18261586.08123        28.000           2.594
 91  7  9  4 14 29.9980000  0  4G 3G21G17G23
  21857513.506     5735807.562 6   4469457.56021        16.000           0.656
  22115477.014   -10468997.283 6  -7843516.02121        17.500           0.875
  20419375.553    -3318734.202 7  -2586026.08923        25.750           2.875
  19756598.225   -23568138.422 8 -18269067.23923        28.250           2.688
 91  7  9  4 14 44.9970000  0  4G 3G21G17G23
  21865725.228     5778945.790 6   4503071.75221        16.250           0.625
  22106212.423   -10517685.403 6  -7881454.78021        18.000           0.844
  20422095.087    -3304445.517 7  -2574892.04723        26.000           2.844
  19754789.876   -23577636.195 7 -18276468.11223        27.500           2.750
 91  7  9  4 14 59.9970000  0  4G 3G21G17G23
  21873951.501     5822182.265 6   4536762.49521        15.500           0.531
  22096957.954   -10566314.483 6  -7919347.53521        17.750           1.000
  20424825.603    -3290092.257 7  -2563707.68123        26.500           2.969
  19753001.571   -23587031.799 7 -18283789.38323        27.250           2.688
 91  7  9  4 15 14.9970000  0  4G 3G21G17G23
  21882195.251     5865513.201 6   4570526.83621        15.250           0.625
  22087713.446   -10614882.110 6  -7957192.39521        17.250           0.906
  20427569.462    -3275676.048 7  -2552474.27223        26.500           2.969
  19751232.618   -23596325.575 7 -18291031.30123        27.250           2.594
 91  7  9  4 15 29.9970000  0  4G 3G21G17G23
  21890458.188     5908939.221 6   4604365.27721        14.500           0.688
  22078483.165   -10663387.128 6  -7994988.49021        17.000           0.875
  20430325.423    -3261195.964 7  -2541191.08923        26.750           3.063
  19749484.079   -23605516.597 7 -18298193.14523        27.750           2.688
 91  7  9  4 15 44.9970000  0  4G 3G21G17G23
  21898743.438     5952458.556 6   4638276.44521        14.500           0.688
  22069266.126   -10711831.217 6  -8032737.10721        17.000           0.813
  20433094.626    -3246653.794 7  -2529859.52523        27.500           3.063
  19747754.806   -23614606.519 7 -18305276.19823        27.500           2.531
 91  7  9  4 15 59.9970000  0  4G 3G21G17G23
  21907043.376     5996071.543 6   4672260.55321        14.500           0.531
  22060059.438   -10760213.383 6  -8070437.45521        17.250           0.969
  20435871.493    -3232048.774 7  -2518478.99023        27.000           3.094
  19746044.634   -23623594.986 7 -18312280.20223        27.500           2.688
 91  7  9  4 16 14.9970000  0  4G 3G21G17G23
  21915361.001     6039780.967 6   4706319.82721        14.250           0.563
  22050866.017   -10808530.432 6  -8108087.05121        17.000           0.844
  20438664.540    -3217377.799 7  -2507047.06523        27.000           3.094
  19744354.306   -23632478.858 7 -18319202.69223        27.750           2.563
 91  7  9  4 16 29.9970000  0  4G 3G21G17G23
  21923691.649     6083583.962 6   4740452.01121        13.750           0.469
  22041682.423   -10856785.115 6  -8145688.04021        16.750           0.781
  20441467.806    -3202643.698 7  -2495565.94323        26.750           3.156
  19742681.423   -23641261.014 7 -18326045.92923        27.250           2.531
 91  7  9  4 16 44.9970000  0  4G 3G21G17G23
  21932045.220     6127479.960 6   4774656.68121        13.250           0.438
  22032510.954   -10904977.717 6  -8183240.67121        16.750           0.875
  20444282.587    -3187846.412 7  -2484035.59123        26.750           3.000
  19741031.149   -23649941.617 8 -18332810.03423        28.000           2.719
 91  7  9  4 16 59.9970000  0  4G 3G21G17G23
  21940416.759     6171467.936 6   4808933.00721        15.000           0.531
  22023353.157   -10953108.874 6  -8220745.44321        16.250           0.938
  20447111.665    -3172986.969 7  -2472456.80423        26.500           3.063
  19739397.790   -23658521.938 7 -18339495.99423        27.250           2.563
 91  7  9  4 17 14.9970000  0  4G 3G21G17G23
  21948808.938     6215553.200 6   4843285.14021        15.000           0.375
  22014207.040   -11001172.874 6  -8258197.90021        16.500           0.938
  20449951.946    -3158059.752 7  -2460825.20323        27.000           3.063
  19737786.767   -23666996.468 7 -18346099.52223        27.750           2.625
 91  7  9  4 17 29.9970000  0  4G 3G21G17G23
  21957210.517     6259732.285 6   4877710.38521        14.000           0.344
  22005073.017   -11049172.835 6  -8295600.42621        16.250           1.000
  20452805.274    -3143068.250 7  -2449143.50823        27.000           3.063
  19736192.103   -23675368.439 7 -18352623.13723        27.500           2.563
 91  7  9  4 17 44.9970000  0  4G 3G21G17G23
  21965639.665     6304004.786 6   4912208.42321        14.750           0.406
  21995948.282   -11097108.867 6  -8332953.14521        15.750           1.000
  20455667.954    -3128012.690 7  -2437411.91323        25.500           3.031
  19734618.056   -23683638.168 7 -18359067.06822        27.750           2.438
 91  7  9  4 17 59.9970000  0  4G 3G21G17G23
  21974081.931     6348368.518 6   4946777.54621        14.500           0.375
  21986839.243   -11144982.545 6  -8370257.27521        15.750           1.063
  20458543.306    -3112894.731 7  -2425631.69223        25.000           2.969
  19733062.837   -23691807.451 8 -18365432.73922        28.000           2.438
 91  7  9  4 18 14.9970000  0  4G 3G21G17G23
  21982541.134     6392824.661 6   4981418.67221        14.500           0.438
  21977740.946   -11192792.471 6  -8407511.72421        15.750           1.156
  20461432.493    -3097712.925 7  -2413801.71523        24.250           3.000
  19731528.657   -23699875.205 8 -18371719.29622        28.750           2.281
 91  7  9  4 18 29.9970000  0  4G 3G21G17G23
  21991018.743     6437375.606 6   5016133.67921        14.250           0.500
  21968658.157   -11240535.961 6  -8444714.42621        16.000           1.031
  20464339.212    -3082464.694 7  -2401919.97823        25.000           2.906
  19730012.556   -23707839.002 8 -18377924.84122        28.000           2.344
 91  7  9  4 18 44.9970000  0  4G 3G21G17G23
  21999511.860     6482015.199 6   5050917.77021        14.250           0.469
  21959582.728   -11288218.662 6  -8481869.72521        15.250           1.188
  20467249.259    -3067155.827 7  -2389990.99823        25.000           2.938
  19728515.063   -23715704.750 8 -18384054.01523        28.250           2.531
 91  7  9  4 18 59.9970000  0  4G 3G21G17G23
  22008026.415     6526747.611 6   5085774.17921        14.500           0.406
  21950519.110   -11335836.279 6  -8518974.31821        14.750           1.063
  20470175.720    -3051782.267 7  -2378011.59123        24.250           2.969
  19727038.923   -23723468.144 8 -18390103.42422        29.000           2.406
 91  7  9  4 19 14.9970000  0  4G 3G21G17G23
  22016553.751     6571568.502 6   5120699.53321        14.500           0.500
  21941467.540   -11383392.510 6  -8556031.07521        13.750           1.125
  20473113.056    -3036347.846 7  -2365984.77623        24.000           3.000
  19725580.993   -23731133.064 8 -18396076.06422        29.500           2.375
 91  7  9  4 19 29.9970000  0  4G 3G21G17G23
  22025100.978     6616478.606 6   5155694.39821        14.750           0.469
  21932434.556   -11430886.408 6  -8593039.26121        15.000           1.125
  20476059.782    -3020851.531 7  -2353909.72423        23.500           3.031
  19724140.985   -23738698.769 8 -18401971.38823        29.750           2.531
 91  7  9  4 19 44.9970000  0  4G 3G21G17G23
  22033663.985     6661481.627 6   5190761.65921        14.250           0.500
  21923406.899   -11478313.995 6  -8629995.79221        14.750           1.125
  20479022.993    -3005289.365 7  -2341783.35923        24.000           3.000
  19722719.860   -23746161.583 8 -18407786.57322        29.250           2.469
 91  7  9  4 19 59.9970000  0  4G 3G21G17G23
  22042245.298     6706580.183 6   5225903.37521        14.750           0.438
  21914395.165   -11525672.359 6  -8666898.39321        15.250           1.094
  20481997.540    -2989658.699 7  -2329603.62623        23.750           2.969
  19721321.290   -23753518.806 8 -18413519.47922        29.750           2.313
 91  7  9  4 20 14.9970000  0  4G 3G21G17G23
  22050845.665     6751770.463 6   5261116.56421        14.250           0.500
  21905396.595   -11572964.705 6  -8703749.55121        15.750           1.250
  20484985.337    -2973962.986 7  -2317373.20023        24.000           3.125
  19719939.384   -23760774.048 8 -18419172.92222        29.500           2.281
 91  7  9  4 20 29.9970000  0  4G 3G21G17G23
  22059464.720     6797056.623 6   5296404.46221        14.750           0.469
  21896410.087   -11620186.789 6  -8740545.95221        15.500           1.094
  20487983.556    -2958197.714 7  -2305088.58123        23.500           3.063
  19718579.337   -23767923.101 8 -18424743.60622        29.250           2.438
 91  7  9  4 20 44.9970000  0  4G 3G21G17G23
  22068098.649     6842431.348 6   5331761.38121        14.500           0.406
  21887437.228   -11667345.534 6  -8777293.00621        15.500           1.031
  20490995.384    -2942369.999 7  -2292755.30623        23.500           3.094
  19717238.415   -23774972.943 8 -18430237.00322        29.750           2.313
 91  7  9  4 20 59.9970000  0  4G 3G21G17G23
  22076752.837     6887903.257 6   5367194.01921        13.750           0.438
  21878475.681   -11714431.908 6  -8813983.66521        15.750           1.188
  20494018.688    -2926470.702 7  -2280366.24923        23.250           3.000
  19715917.079   -23781914.703 8 -18435646.17022        30.250           2.250
 91  7  9  4 21 14.9970000  0  4G 3G21G17G23
  22085421.251     6933467.051 6   5402698.22821        12.500           0.500
  21869532.845   -11761450.834 6  -8850621.75621        17.000           1.063
  20497060.212    -2910505.232 7  -2267925.62423        23.000           2.813
  19714616.626   -23788753.888 8 -18440975.40422        31.000           2.219
 91  7  9  4 21 29.9970000  0  4G 3G21G17G23
  22094109.735     6979123.196 6   5438274.43821        13.000           0.500
  21860595.040   -11808401.365 6  -8887206.54721        17.000           1.188
  20500110.063    -2894472.623 7  -2255432.68723        23.500           2.781
  19713333.423   -23795489.504 8 -18446223.92822        30.500           2.313
 91  7  9  4 21 44.9970000  0  4G 3G21G17G23
  22102817.743     7024872.454 6   5473923.18421        13.000           0.531
  21851669.860   -11855282.330 6  -8923737.14621        17.250           1.156
  20503175.228    -2878371.872 7  -2242886.65323        23.750           2.844
  19712070.876   -23802120.833 8 -18451391.20122        30.250           2.313
 91  7  9  4 21 59.9970000  0  4G 3G21G17G23
  22111535.938     7070713.563 6   5509643.49521        12.250           0.375
  21842766.399   -11902094.823 6  -8960214.39321        18.250           1.125
  20506250.376    -2862204.335 7  -2230288.56923        23.500           2.781
  19710829.728   -23808649.173 8 -18456478.22422        31.000           2.344
 91  7  9  4 22 14.9970000  0  4G 3G21G17G23
  22120276.446     7116646.794 5   5545435.60921        11.000           0.500
  21833869.313   -11948838.095 6  -8996637.69821        18.250           1.188
  20509342.204    -2845969.357 7  -2217637.94923        24.250           2.781
  19709607.907   -23815073.705 8 -18461484.34722        31.250           2.188
 91  7  9  4 22 29.9970000  0  4G 3G21G17G23
  22129035.720     7162668.444 5   5581296.61821        11.500           0.531
  21824986.165   -11995515.339 6  -9033009.56521        18.250           1.219
  20512443.056    -2829670.192 7  -2204937.31723        24.500           2.813
  19708402.798   -23821398.184 8 -18466412.52222        30.750           2.250
 91  7  9  4 22 44.9970000  0  4G 3G21G17G23
  22137810.618     7208778.105 5   5617226.19421        11.750           0.406
  21816118.329   -12042126.902 6  -9069330.25521        19.000           1.250
  20515555.282    -2813307.017 7  -2192186.79923        24.500           2.875
  19707219.001   -23827623.057 8 -18471263.08022        30.750           2.125
 91  7  9  4 22 59.9970000  0  4G 3G21G17G23
  22146606.673     7254977.930 6   5653226.01621        12.000           0.563
  21807262.259   -12088670.160 6  -9105597.70421        19.250           1.125
  20518681.446    -2796877.434 7  -2179384.53223        23.750           2.813
  19706054.095   -23833745.896 8 -18476034.11522        32.000           2.281
 91  7  9  4 23 14.9970000  0  4G 3G21G17G23
  22155411.524     7301267.438 5   5689295.71921        11.000           0.469
  21798418.306   -12135145.241 6  -9141812.03521        19.750           1.156
  20521822.571    -2780381.807 7  -2166530.78923        24.000           3.031
  19704908.376   -23839766.879 8 -18480725.79222        32.000           2.313
 91  7  9  4 23 29.9970000  0  4G 3G21G17G23
  22164232.446     7347644.048 5   5725433.31921        10.250           0.469
  21789588.829   -12181554.156 7  -9177974.80221        20.250           1.063
  20524970.673    -2763822.249 7  -2153627.24423        23.250           3.156
  19703781.954   -23845688.374 8 -18485339.94622        32.000           2.219
 91  7  9  4 23 44.9970000  0  4G 3G21G17G23
  22173075.978     7394110.410 5   5761640.86021        11.250           0.375
  21780768.470   -12227894.401 7  -9214084.07421        20.250           1.188
  20528136.712    -2747196.234 7  -2140671.90623        23.250           2.969
  19702672.634   -23851507.921 8 -18489874.66422        31.750           2.250
 91  7  9  4 23 59.9970000  0  4G 3G21G17G23
  22181940.149     7440668.145 6   5797919.60021        12.500           0.344
  21771965.282   -12274163.863 7  -9250138.17221        20.250           1.125
  20531314.103    -2730501.533 7  -2127663.04823        23.250           3.063
  19701586.556   -23857223.789 8 -18494328.58622        31.250           2.313
 91  7  9  4 24 14.9970000  0  4G 3G21G17G23
  22190816.774     7487312.881 6   5834266.10921        12.750           0.438
  21763169.470   -12320366.446 7  -9286140.15921        20.000           1.063
  20534503.368    -2713742.396 7  -2114603.98023        23.500           2.969
  19700517.009   -23862839.993 8 -18498704.84222        31.250           2.406
 91  7  9  4 24 29.9970000  0  4G 3G21G17G23
  22199708.454     7534043.084 6   5870679.22021        12.000           0.438
  21754388.595   -12366503.142 6  -9322090.81621        19.750           1.125
  20537704.728    -2696919.894 7  -2101495.53623        23.500           2.969
  19699468.657   -23868357.917 8 -18503004.52522        32.250           2.281
 91  7  9  4 24 44.9970000  0  4G 3G21G17G23
  22208616.446     7580857.214 6   5907157.74021        12.250           0.438
  21745623.884   -12412575.383 7  -9357991.24321        20.000           1.156
  20540916.501    -2680035.506 7  -2088338.86223        22.500           2.906
  19698436.165   -23873778.990 8 -18507228.74322        32.500           2.344
 91  7  9  4 24 59.9970000  0  4G 3G21G17G23
  22217542.415     7627758.831 6   5943704.43021        12.250           0.344
  21736869.024   -12458579.159 6  -9393838.32021        19.750           1.156
  20544142.720    -2663085.378 7  -2075130.96023        23.500           3.031
  19697424.688   -23879099.462 8 -18511374.56522        32.250           2.281
 91  7  9  4 25 14.9970000  0  4G 3G21G17G23
  22226485.165     7674747.707 6   5980319.12721        13.000           0.375
  21728128.032   -12504514.327 7  -9429631.94221        20.250           0.938
  20547379.665    -2646069.093 7  -2061871.51423        23.000           2.875
  19696428.860   -23884319.566 8 -18515442.17522        31.750           2.344
 91  7  9  4 25 29.9970000  0  4G 3G21G17G23
  22235447.743     7721826.299 6   6017003.71321        12.500           0.375
  21719399.071   -12550378.137 7  -9465369.95921        20.000           1.000
  20550631.001    -2628984.520 7  -2048558.85323        23.250           2.875
  19695456.321   -23889436.648 8 -18519429.50922        32.250           2.281
 91  7  9  4 25 44.9970000  0  4G 3G21G17G23
  22244415.938     7768987.607 6   6053752.74821        13.000           0.406
  21710685.196   -12596177.015 7  -9501057.37921        20.500           0.969
  20553895.587    -2611838.337 7  -2035198.18423        22.750           2.781
  19694500.415   -23894457.318 8 -18523341.72822        31.750           2.344
 91  7  9  4 25 59.9970000  0  4G 3G21G17G23
  22253405.524     7816234.425 6   6090568.42021        12.500           0.281
  21701983.610   -12641907.813 6  -9536691.75121        19.750           0.969
  20557168.329    -2594627.329 7  -2021787.00823        22.250           2.813
  19693566.603   -23899378.827 8 -18527176.68122        32.500           2.344
 91  7  9  4 26 14.9970000  0  4G 3G21G17G23
  22262413.235     7863561.740 6   6127446.82821        12.750           0.219
  21693293.610   -12687575.279 7  -9572276.77721        20.000           0.969
  20560455.438    -2577355.898 7  -2008328.75123        22.250           2.719
  19692645.860   -23904206.123 8 -18530938.20722        32.250           2.438
 91  7  9  4 26 29.9970000  0  4G 3G21G17G23
  22271434.688     7910971.747 6   6164389.65621        12.750           0.438
  21684616.478   -12733176.936 7  -9607810.52521        20.250           0.906
  20563755.196    -2560021.958 7  -1994821.78623        22.000           2.625
  19691743.954   -23908937.004 8 -18534624.61922        32.000           2.438
 91  7  9  4 26 44.9970000  0  4G 3G21G17G23
  22280473.587     7958463.116 6   6201395.90921        12.500           0.344
  21675949.649   -12778713.319 6  -9643293.40121        19.750           0.875
  20567062.587    -2542626.270 7  -1981266.70523        21.000           2.563
  19690863.251   -23913572.176 8 -18538236.50123        32.750           2.531
 91  7  9  4 26 59.9970000  0  4G 3G21G17G23
  22289525.056     8006034.531 5   6238464.52421        11.750           0.438
  21667295.485   -12824185.967 6  -9678726.61921        18.750           0.750
  20570383.720    -2525170.341 7  -1967664.67223        20.500           2.563
  19690000.681   -23918113.273 8 -18541775.06122        33.500           2.406
 91  7  9  4 27 14.9970000  0  4G 3G21G17G23
  22298594.001     8053689.016 6   6275597.84321        12.000           0.313
  21658657.040   -12869591.360 6  -9714107.43121        18.750           0.844
  20573719.423    -2507650.521 7  -1954012.86623        21.000           2.719
  19689154.735   -23922556.709 8 -18545237.44822        33.000           2.469
 91  7  9  4 27 29.9970000  0  4G 3G21G17G23
  22307679.048     8101429.250 5   6312797.99921        11.750           0.313
  21650029.415   -12914926.168 6  -9749433.24821        19.500           0.781
  20577068.040    -2490063.875 7  -1940308.98523        22.000           2.563
  19688326.063   -23926899.692 8 -18548621.57222        32.000           2.469
 91  7  9  4 27 44.9970000  0  4G 3G21G17G23
  22316777.915     8149251.033 5   6350061.71121        11.500           0.281
  21641417.142   -12960194.381 6  -9784707.16521        19.250           0.875
  20580425.813    -2472414.538 7  -1926556.24823        21.500           2.500
  19687520.610   -23931146.552 8 -18551930.80522        32.750           2.406
 91  7  9  4 27 59.9970000  0  4G 3G21G17G23
  22325893.345     8197156.299 5   6387390.46121        10.750           0.281
  21632816.399   -13005393.697 6  -9819927.39621        19.250           0.813
  20583795.337    -2454700.065 7  -1912752.76422        21.750           2.375
  19686730.259   -23935295.209 8 -18555163.54422        32.250           2.406
 91  7  9  4 28 14.9970000  0  4G 3G21G17G23
  22335023.353     8245143.617 5   6424783.14421        10.500           0.375
  21624226.376   -13050525.164 6  -9855094.76421        18.750           0.906
  20587178.282    -2436921.710 7  -1898899.49522        22.000           2.281
  19685958.954   -23939346.638 8 -18558320.50023        32.000           2.625
 91  7  9  4 28 29.9970000  0  4G 3G21G17G23
  22344173.931     8293214.886 5   6462241.24721        11.000           0.281
  21615649.032   -13095586.756 6  -9890207.68221        18.750           0.906
  20590573.571    -2419077.617 7  -1884995.00522        22.500           2.219
  19685206.454   -23943298.914 8 -18561400.17722        32.250           2.469
 91  7  9  4 28 44.9970000  0  4G 3G21G17G23
  22353335.329     8341368.802 5   6499763.75621        11.000           0.281
  21607091.071   -13140579.233 6  -9925266.74521        19.250           1.000
  20593983.696    -2401168.585 7  -1871039.91822        22.750           2.281
  19684473.548   -23947153.356 8 -18564403.65823        32.250           2.594
 91  7  9  4 28 59.9970000  0  4G 3G21G17G23
  22362514.767     8389602.244 5   6537348.21121        11.500           0.313
  21598541.337   -13185505.178 6  -9960273.96021        19.000           1.031
  20597402.923    -2383197.594 7  -1857036.55022        22.500           2.156
  19683757.353   -23950912.822 8 -18567333.11823        32.000           2.719
 91  7  9  4 29 14.9970000  0  4G 3G21G17G23
  22371707.493     8437912.873 5   6574992.82721        11.750           0.375
  21590002.274   -13230366.765 6  -9995231.02221        18.500           1.094
  20600832.642    -2365166.455 7  -1842986.31122        22.500           2.188
  19683058.626   -23954579.635 8 -18570190.38823        31.750           2.719
 91  7  9  4 29 29.9970000  0  4G 3G21G17G23
  22380916.126     8486304.348 5   6612700.43821        11.500           0.406
  21581479.282   -13275159.850 6 -10030134.70721        18.250           1.094
  20604278.876    -2347071.122 7  -1828886.04422        23.750           2.219
  19682379.735   -23958149.866 8 -18572972.39723        31.500           2.813
 91  7  9  4 29 44.9970000  0  4G 3G21G17G23
  22390141.946     8534780.359 5   6650473.90121        11.250           0.406
  21572969.142   -13319880.494 6 -10064981.94821        18.250           1.094
  20607733.853    -2328907.723 7  -1814732.75222        23.250           2.250
  19681719.696   -23961619.751 8 -18575676.20523        31.250           2.781
 91  7  9  4 29 59.9970000  0  4G 3G21G17G23
  22399380.040     8583334.502 5   6688308.28121        10.000           0.406
  21564473.657   -13364534.732 6 -10099777.43121        19.250           1.063
  20611201.134    -2310682.395 7  -1800531.19722        22.500           2.344
  19681076.454   -23964995.281 8 -18578306.49023        31.500           2.844
 91  7  9  4 30 14.9970000  0  4G 3G21G17G23
  22408634.720     8631968.372 5   6726204.75221        10.250           0.375
  21555990.360   -13409120.591 6 -10134519.65721        19.750           1.219
  20614683.837    -2292393.436 7  -1786280.06522        23.000           2.438
  19680454.423   -23968274.867 8 -18580862.04423        31.250           2.844
 91  7  9  4 30 29.9970000  0  4G 3G21G17G23
  22417906.329     8680678.695 5   6764160.79121        10.250           0.344
  21547517.376   -13453640.863 6 -10169210.75821        19.250           1.188
  20618173.962    -2274043.867 7  -1771981.70922        22.750           2.344
  19679847.251   -23971461.583 8 -18583345.16023        30.750           2.938
 91  7  9  4 30 44.9970000  0  4G 3G21G17G23
  22427186.587     8729469.294 5   6802179.41621        11.000           0.281
  21539056.087   -13498091.356 6 -10203847.48921        18.500           1.344
  20621677.306    -2255629.395 7  -1757632.77522        22.250           2.313
  19679260.454   -23974551.492 8 -18585752.86923        31.750           3.000
 91  7  9  4 30 59.9970000  0  4G 3G21G17G23
  22436492.532     8778339.426 6   6840260.02921        12.000           0.344
  21530612.587   -13542472.576 6 -10238430.24221        18.750           1.313
  20625194.188    -2237150.612 7  -1743233.72822        22.000           2.375
  19678689.759   -23977545.382 8 -18588085.77923        31.500           3.063
 91  7  9  4 31 14.9970000  0  4G 3G21G17G23
  22445805.251     8827286.252 6   6878400.35921        12.250           0.313
  21522178.532   -13586786.967 6 -10272960.91721        18.750           1.344
  20628722.126    -2218610.073 7  -1728786.57422        22.500           2.469
  19678136.829   -23980445.708 8 -18590345.78423        30.500           3.188
 91  7  9  4 31 29.9970000  0  4G 3G21G17G23
  22455136.813     8876312.479 6   6916602.57021        12.000           0.406
  21513758.665   -13631031.500 6 -10307437.16321        19.250           1.344
  20632263.540    -2200004.722 7  -1714288.88823        22.750           2.500
  19677603.892   -23983249.699 8 -18592530.71523        30.500           3.188
 91  7  9  4 31 44.9970000  0  4G 3G21G17G23
  22464479.470     8925419.159 5   6954867.46121        11.750           0.281
  21505355.509   -13675204.635 6 -10341857.76221        19.750           1.344
  20635817.345    -2181333.031 7  -1699739.52823        22.750           2.625
  19677090.907   -23985956.073 8 -18594639.58723        31.250           3.188
 91  7  9  4 31 59.9970000  0  4G 3G21G17G23
  22473840.017     8974603.482 6   6993192.89721        12.250           0.250
  21496960.313   -13719308.856 6 -10376224.67822        19.500           1.500
  20639381.493    -2162597.723 7  -1685140.58723        22.750           2.719
  19676592.220   -23988567.734 8 -18596674.65323        30.000           3.156
 91  7  9  4 32 14.9970000  0  4G 3G21G17G23
  22483212.970     9023865.834 6   7031579.11021        12.250           0.313
  21488579.985   -13763343.414 6 -10410537.30521        19.500           1.344
  20642957.556    -2143798.251 7  -1670491.64123        22.500           2.688
  19676112.431   -23991083.781 8 -18598635.20523        29.000           3.125
 91  7  9  4 32 29.9970000  0  4G 3G21G17G23
  22492601.446     9073200.189 6   7070021.41421        12.500           0.344
  21480211.329   -13807314.005 6 -10444800.10021        19.000           1.406
  20646547.688    -2124940.535 7  -1655797.32123        22.750           2.688
  19675652.095   -23993510.443 8 -18600526.11323        29.250           3.219
 91  7  9  4 32 44.9970000  0  4G 3G21G17G23
  22502004.978     9122612.275 6   7108524.31921        12.250           0.281
  21471858.438   -13851214.523 6 -10479008.29321        19.250           1.438
  20650148.188    -2106018.249 7  -1641052.68523        22.250           2.844
  19675207.407   -23995841.607 8 -18602342.61023        29.500           3.281
 91  7  9  4 32 59.9970000  0  4G 3G21G17G23
  22511419.571     9172100.841 6   7147086.78021        12.250           0.313
  21463519.392   -13895046.066 6 -10513162.72721        19.750           1.406
  20653759.813    -2087032.510 7  -1626258.59723        22.500           2.750
  19674783.446   -23998078.498 8 -18604085.65123        29.250           3.313
 91  7  9  4 33 14.9970000  0  4G 3G21G17G23
  22520852.173     9221665.216 5   7185708.33021        11.750           0.250
  21455190.681   -13938808.524 6 -10547263.32621        19.500           1.438
  20657388.118    -2067983.427 7  -1611415.16523        23.500           2.719
  19674374.610   -24000221.584 8 -18605755.59023        28.750           3.313
 91  7  9  4 33 29.9970000  0  4G 3G21G17G23
  22530296.790     9271306.825 6   7224390.07221        12.250           0.344
  21446876.306   -13982500.028 6 -10581308.64222        19.500           1.500
  20661023.220    -2048869.248 7  -1596521.00623        23.250           2.656
  19673985.110   -24002269.079 8 -18607351.03523        28.750           3.313
 91  7  9  4 33 44.9970000  0  4G 3G21G17G23
  22539760.938     9321023.484 6   7263130.27921        12.500           0.219
  21438576.149   -14026122.905 6 -10615300.48122        19.750           1.625
  20664673.188    -2029692.368 7  -1581577.98123        23.750           2.719
  19673612.470   -24004223.388 8 -18608873.87123        28.500           3.156
 91  7  9  4 33 59.9970000  0  4G 3G21G17G23
  22549232.618     9370811.986 6   7301926.46321        12.000           0.344
  21430287.462   -14069679.695 6 -10649240.81722        19.750           1.594
  20668334.978    -2010455.451 7  -1566588.16623        23.750           2.625
  19673258.134   -24006087.445 8 -18610326.38423        28.750           3.281
 91  7  9  4 34 14.9970000  0  4G 3G21G17G23
  22558722.079     9420671.539 5   7340778.05221        11.500           0.406
  21422010.313   -14113170.835 7 -10683130.00922        20.000           1.688
  20672004.720    -1991159.034 7  -1551552.00422        23.250           2.469
  19672921.337   -24007861.715 8 -18611708.94923        29.000           3.344
 91  7  9  4 34 29.9970000  0  4G 3G21G17G23
  22568224.735     9470605.795 5   7379687.82021        11.750           0.375
  21413749.931   -14156592.405 7 -10716964.98522        20.750           1.625
  20675690.673    -1971799.133 7  -1536466.36322        23.500           2.406
  19672600.204   -24009542.447 8 -18613018.61023        28.750           3.219
 91  7  9  4 34 44.9970000  0  4G 3G21G17G23
  22577739.353     9520613.405 5   7418654.74721        11.250           0.344
  21405499.837   -14199945.274 7 -10750746.41922        21.250           1.750
  20679383.712    -1952376.673 7  -1521331.98222        22.750           2.438
  19672298.798   -24011130.868 8 -18614256.32223        28.250           3.375
 91  7  9  4 34 59.9970000  0  4G 3G21G17G23
  22587271.649     9570694.583 5   7457679.01621        11.000           0.406
  21397261.681   -14243228.874 6 -10784473.89422        19.750           1.750
  20683095.860    -1932891.349 7  -1506148.61822        23.500           2.375
  19672015.579   -24012626.576 8 -18615421.80123        29.000           3.313
 91  7  9  4 35 14.9970000  0  4G 3G21G17G23
  22596816.407     9620848.555 5   7496759.99021        11.000           0.313
  21389040.681   -14286443.827 7 -10818147.87222        20.750           1.656
  20686815.399    -1913343.838 7  -1490916.79522        22.750           2.281
  19671746.673   -24014030.491 8 -18616515.77123        28.500           3.313
 91  7  9  4 35 29.9970000  0  4G 3G21G17G23
  22606370.095     9671077.028 5   7535899.01221        10.750           0.375
  21380826.665   -14329587.677 7 -10851766.44022        20.500           1.844
  20690541.587    -1893731.658 7  -1475634.58422        21.500           2.156
  19671499.212   -24015340.414 8 -18617536.50123        28.750           3.344
 91  7  9  4 35 44.9970000  0  4G 3G21G17G23
  22615945.735     9721378.882 5   7575095.21721        10.500           0.281
  21372633.071   -14372661.291 7 -10885330.28322        21.250           1.750
  20694290.188    -1874055.870 7  -1460302.81122        23.000           2.250
  19671265.063   -24016557.505 7 -18618484.86823        27.750           3.219
 91  7  9  4 35 59.9970000  0  4G 3G21G17G23
  22625528.767     9771750.488 5   7614345.76521        10.500           0.281
  21364446.634   -14415667.943 7 -10918841.95422        21.000           1.844
  20698045.649    -1854320.113 7  -1444924.29222        23.000           2.094
  19671050.759   -24017685.209 7 -18619363.59723        27.750           3.156
 91  7  9  4 36 14.9970000  0  4G 3G21G17G23
  22635130.884     9822196.342 5   7653654.19621        10.250           0.313
  21356277.751   -14458602.792 7 -10952297.66822        21.000           2.000
  20701814.063    -1834519.099 7  -1429494.92922        22.500           2.063
  19670855.001   -24018718.807 8 -18620169.00223        29.000           3.094
 91  7  9  4 36 29.9970000  0  4G 3G21G17G23
  22644745.829     9872714.932 5   7693019.28521        11.000           0.281
  21348121.946   -14501466.832 7 -10985698.19722        20.750           1.938
  20705592.673    -1814654.322 7  -1414015.88822        22.000           2.219
  19670675.860   -24019659.470 8 -18620901.99323        29.250           3.219
 91  7  9  4 36 44.9970000  0  4G 3G21G17G23
  22654368.688     9923305.590 5   7732440.52421        10.750           0.344
  21339976.642   -14544260.762 7 -11019044.10522        20.750           1.813
  20709384.806    -1794726.344 7  -1398487.59822        21.500           2.188
  19670516.829   -24020508.025 8 -18621563.21623        29.500           3.063
 91  7  9  4 36 59.9970000  0  4G 3G21G17G23
  22664006.767     9973962.004 5   7771913.00721        11.000           0.250
  21331845.431   -14586990.473 7 -11052339.97122        21.750           1.813
  20713186.938    -1774741.001 7  -1382914.61722        20.500           2.313
  19670369.938   -24021270.520 8 -18622157.38323        29.250           3.188
 91  7  9  4 37 14.9970000  0  4G 3G21G17G23
  22673665.860    10024683.272 6   7811436.01421        12.250           0.281
  21323727.337   -14629656.163 7 -11085585.94522        22.000           1.938
  20717001.017    -1754698.682 7  -1367297.23022        20.250           2.281
  19670239.345   -24021947.428 8 -18622684.83423        29.000           3.063
 91  7  9  4 37 29.9970000  0  4G 3G21G17G23
  22683325.134    10075474.844 6   7851013.81921        12.500           0.375
  21315622.173   -14672252.301 7 -11118777.73122        21.750           1.844
  20720827.142    -1734594.181 7  -1351631.38922        20.500           2.281
  19670126.993   -24022533.610 8 -18623141.57723        29.000           3.281
 91  7  9  4 37 44.9970000  0  4G 3G21G17G23
  22693006.337    10126338.410 6   7890647.74921        12.250           0.313
  21307529.985   -14714776.613 7 -11151913.54822        21.500           1.844
  20724665.095    -1714425.143 7  -1335915.25422        21.000           2.344
  19670037.446   -24023027.093 8 -18623526.11623        29.500           3.219
 91  7  9  4 37 59.9970000  0  4G 3G21G17G23
  22702700.290    10177269.228 6   7930334.05221        12.000           0.281
  21299448.173   -14757233.461 7 -11184996.79322        20.500           1.844
  20728514.923    -1694195.811 7  -1320152.12622        21.250           2.344
  19669960.938   -24023432.202 8 -18623841.78123        29.500           3.188
 91  7  9  4 38 14.9970000  0  4G 3G21G17G23
  22712404.360    10228264.465 5   7970070.53721        11.750           0.375
  21291383.556   -14799625.412 7 -11218029.47722        21.000           1.750
  20732374.743    -1673909.052 7  -1304344.26322        21.250           2.344
  19669897.173   -24023751.787 8 -18624090.79523        29.000           3.094
 91  7  9  4 38 29.9970000  0  4G 3G21G17G23
  22722124.313    10279337.742 5   8009867.86221        11.500           0.375
  21283331.610   -14841938.707 7 -11251000.85122        21.000           1.781
  20736250.962    -1653551.037 7  -1288480.88622        22.000           2.406
  19669855.821   -24023972.401 8 -18624262.69123        29.250           3.094
 91  7  9  4 38 44.9970000  0  4G 3G21G17G23
  22731850.829    10330475.055 5   8049715.08821        10.000           0.375
  21275292.790   -14884186.520 7 -11283921.21422        21.500           1.813
  20740135.485    -1633135.248 7  -1272572.48423        22.250           2.594
  19669830.071   -24024107.278 8                        29.500
 91  7  9  4 38 59.9970000  0  4G 3G21G17G23
  22741591.056    10381673.664 5   8089610.05921        10.000           0.375
  21267266.353   -14926371.626 7 -11316792.70622        22.250           1.781
  20744030.446    -1612664.364 7  -1256621.15323        21.250           2.563
  19669820.634   -24024159.454 8                        29.000
 91  7  9  4 39 14.9970000  0  4G 3G21G17G23
  22751354.056    10432936.463 5   8129555.05621        10.750           0.313
  21259249.134   -14968490.429 7 -11349612.53922        21.750           1.781
  20747937.845    -1592134.976 7  -1240624.23923        21.750           2.625
  19669825.837   -24024125.734 8                        29.000
 91  7  9  4 39 29.9970000  0  4G 3G21G17G23
  22761117.751    10484256.542 5   8169544.68121        11.000           0.344
  21251241.470   -15010549.588 7 -11382385.89722        21.000           1.875
  20751853.540    -1571553.566 7  -1224586.77723        22.500           2.563
  19669848.923   -24024012.946 8                        29.000
 91  7  9  4 39 44.9970000  0  4G 3G21G17G23
  22770895.610    10535637.409 5   8209581.65921        11.250           0.344
  21243253.353   -15052545.363 7 -11415109.87722        22.000           1.750
  20755782.485    -1550916.611 7  -1208506.03922        22.250           2.438
  19669886.243   -24023817.470 8                        29.250
 91  7  9  4 39 59.9970000  0  4G 3G21G17G23
  22780685.040    10587084.800 5   8249670.48621        11.000           0.375
  21235276.337   -15094471.339 7 -11447779.45722        22.250           1.688
  20759719.821    -1530217.904 7  -1192377.18522        21.750           2.344
  19669937.087   -24023532.966 8                        29.750
 91  7  9  4 40 14.9970000  0  4G 3G21G17G23
  22790484.681    10638595.383 5   8289808.55121        10.750           0.313
  21227310.009   -15136330.722 7 -11480397.14722        22.250           1.781
  20763671.907    -1509460.680 7  -1176202.73922        23.000           2.375
  19670009.563   -24023162.965 8 -18623631.95623        29.750           2.938
 91  7  9  4 40 29.9970000  0  4G 3G21G17G23
  22800302.017    10690181.675 5   8330005.63521        10.750           0.313
  21219358.767   -15178110.562 7 -11512952.85222        22.000           1.656
  20767631.735    -1488631.898 7  -1159972.51422        22.000           2.375
  19670099.313   -24022694.722 8 -18623267.07723        29.500           2.875
 91  7  9  4 40 44.9970000  0  4G 3G21G17G23
  22810134.915    10741845.137 5   8370262.82621        10.500           0.313
  21211424.415   -15219809.156 7 -11545445.24022        22.000           1.625
  20771610.899    -1467730.152 7  -1143685.44622        22.250           2.250
  19670206.024   -24022126.600 8 -18622824.39023        28.500           2.719
 91  7  9  4 40 59.9970000  0  4G 3G21G17G23
  22819978.532    10793572.865 5   8410570.09821        10.500           0.250
  21203502.220   -15261438.995 7 -11577884.07622        22.000           1.531
  20775600.626    -1446767.734 7  -1127351.09022        22.500           2.219
  19670330.837   -24021471.467 8 -18622313.90423        28.500           2.625
 91  7  9  4 41 14.9970000  0  4G 3G21G17G23
  22829835.501    10845366.830 5   8450928.96821        10.500           0.281
  21195593.868   -15302997.634 7 -11610267.42622        22.500           1.500
  20779602.509    -1425742.548 7  -1110967.82822        22.500           2.125
  19670474.642   -24020727.187 8 -18621733.93823        28.250           2.594
 91  7  9  4 41 29.9970000  0  4G 3G21G17G23
  22839700.446    10897222.836 5   8491336.18621        10.250           0.344
  21187697.196   -15344489.020 7 -11642598.35822        22.500           1.500
  20783612.173    -1404658.645 7  -1094538.80922        22.750           2.094
  19670630.345   -24019897.757 8 -18621087.63123        28.500           2.563
 91  7  9  4 41 44.9970000  0  4G 3G21G17G23
  22849580.532    10949145.570 5   8531795.43421        10.000           0.281
  21179818.220   -15385908.030 7 -11674872.89321        23.000           1.406
  20787637.001    -1383510.656 7  -1078059.85322        22.500           2.000
  19670807.267   -24018978.280 8 -18620371.17023        28.500           2.719
 91  7  9  4 41 59.9970000  0  4G 3G21G17G23
  22859475.251    11001130.361 5   8572303.02521         9.500           0.281
  21171946.962   -15427258.832 7 -11707094.28021        22.500           1.375
  20791673.782    -1362303.030 7  -1061534.41322        23.000           2.094
  19670997.509   -24017973.342 8 -18619588.09623        28.750           2.531
 91  7  9  4 42 14.9970000  0  4G 3G21G17G23
  22869380.563    11053175.811 5   8612857.87021        10.250           0.313
  21164091.470   -15468542.519 7 -11739263.37721        22.750           1.406
  20795720.220    -1341037.233 7  -1044963.66322        23.000           2.094
  19671205.563   -24016884.189 8 -18618739.40923        28.750           2.563
 91  7  9  4 42 29.9970000  0  4G 3G21G17G23
  22879297.509    11105290.569 5   8653466.73321         9.750           0.313
  21156251.524   -15509749.979 7 -11771373.07922        23.250           1.500
  20799776.712    -1319703.971 7  -1028340.35122        22.750           1.938
  19671429.704   -24015702.045 8 -18617818.26222        28.750           2.438
 91  7  9  4 42 44.9970000  0  4G 3G21G17G23
  22889225.290    11157468.645 5   8694124.92221         9.000           0.406
  21148421.860   -15550886.969 7 -11803427.85621        23.250           1.438
  20803850.563    -1298308.937 7  -1011668.89822        23.250           2.031
  19671671.157   -24014432.477 8 -18616828.97823        28.000           2.594
 91  7  9  4 42 59.9970000  0  4G 3G21G17G23
  22899164.837    11209710.096 5   8734832.48821         9.250           0.375
  21140608.485   -15591953.059 7 -11835427.39322        23.500           1.500
  20807932.493    -1276851.844 7   -994949.08322        23.250           1.938
  19671927.212   -24013075.466 7 -18615771.56523        27.500           2.656
 91  7  9  4 43 14.9970000  0  5G 3G21G17G11G23
  22909117.337    11262012.300 5   8775587.40921         8.500           0.281
  21132805.056   -15632950.318 7 -11867373.30321        23.250           1.375
  20812026.720    -1255335.155 7   -978182.83122        22.250           1.906
  23885728.087      -62101.526 5                         9.250
  19672202.806   -24011633.416 8 -18614647.90323        28.250           2.594
 91  7  9  4 43 29.9970000  0  5G 3G21G17G11G23
  22919081.001    11314375.608 5   8816389.94521         9.250           0.281
  21125017.134   -15673878.197 7 -11899265.13521        23.000           1.406
  20816135.923    -1233758.203 7   -961369.60322        23.000           1.906
  23873907.993     -124191.192 5                         9.250
  19672492.884   -24010105.959 8 -18613457.66323        28.000           2.594
 91  7  9  4 43 44.9970000  0  5G 3G21G17G11G23
  22929059.673    11366797.919 5   8857238.43521        10.000           0.250
  21117242.735   -15714738.419 7 -11931104.26021        23.250           1.344
  20820250.673    -1212122.637 7   -944510.73122        22.750           1.875
  23862094.899     -186271.380 5                         8.500
  19672800.313   -24008494.961 8 -18612202.34023        28.000           2.500
 91  7  9  4 43 59.9970000  0  5G 3G21G17G11G23
  22939047.532    11419281.982 5   8898135.08521        10.250           0.313
  21109480.485   -15755527.913 7 -11962888.26221        23.250           1.375
  20824380.556    -1190425.280 7   -927603.70422        22.750           1.938
  23850286.704     -248338.731 5                         8.500
  19673124.259   -24006797.451 8 -18610879.60423        28.000           2.625
 91  7  9  4 44 14.9970000  0  5G 3G21G17G11G23
  22949048.345    11471831.876 5   8939082.97221         9.750           0.250
  21101733.415   -15796242.148 7 -11994613.63421        24.250           1.406
  20828520.259    -1168662.046 7   -910645.34122        22.000           2.000
  23838480.110     -310388.477 5        -0.37431         8.500           0.500
  19673464.024   -24005009.123 7 -18609486.09923        27.750           2.781
 91  7  9  4 44 29.9970000  0  5G 3G21G17G11G23
  22959060.829    11524440.868 5   8980076.96621         9.750           0.188
  21093998.876   -15836887.661 7 -12026285.44121        24.750           1.313
  20832674.813    -1146839.390 7   -893640.67122        22.000           2.000
  23826674.681     -372426.778 5    -48341.87421         8.250           0.531
  19673820.603   -24003136.597 7 -18608026.99423        27.750           2.750
 91  7  9  4 44 44.9970000  0  5G 3G21G17G11G23
  22969080.134    11577110.909 5   9021118.49821         9.000           0.344
  21086277.493   -15877461.966 7 -12057901.76221        24.250           1.344
  20836837.868    -1124955.097 7   -876587.99322        21.750           2.000
  23814872.704     -434451.076 5    -96672.44821         7.500           0.500
  19674194.446   -24001177.909 8 -18606500.74623        28.750           2.594
 91  7  9  4 44 59.9970000  0  5G 3G21G17G11G23
  22979116.001    11629846.484 5   9062211.12521         9.000           0.188
  21078571.493   -15917960.164 7 -12089458.79521        24.750           1.313
  20841015.142    -1103004.104 7   -859483.32722        21.250           1.969
  23803069.470     -496456.121 4   -144988.01621         7.250           0.438
  19674582.790   -23999128.386 8 -18604903.71923        28.750           2.563
 91  7  9  4 45 14.9970000  0  5G 3G21G17G11G23
  22989161.946    11682639.803 5   9103348.74121         9.000           0.188
  21070877.470   -15958389.834 7 -12120962.41721        24.500           1.313
  20845204.673    -1080994.205 7   -842332.76622        21.250           1.938
  23791276.860     -558449.197 5   -193294.23921         8.250           0.500
  19674989.220   -23996995.650 8 -18603241.83623        28.500           2.625
 91  7  9  4 45 29.9970000  0  5G 3G21G17G11G23
  22999217.103    11735490.536 5   9144531.07421         9.250           0.188
  21063197.321   -15998750.898 7 -12152412.57721        24.250           1.219
  20849401.368    -1058925.098 7   -825136.05922        20.250           1.875
  23779476.665     -620429.879 5   -241590.82621         9.250           0.469
  19675412.040   -23994779.810 8 -18601515.19723        28.750           2.813
 91  7  9  4 45 44.9970000  0  5G 3G21G17G11G23
  23009288.392    11788401.077 5   9185760.02321        10.000           0.281
  21055530.821   -16039040.544 7 -12183807.08921        24.250           1.250
  20853615.267    -1036794.364 7   -807891.32222        20.750           2.094
  23767686.899     -682395.313 5   -289875.54921         9.500           0.375
  19675848.243   -23992478.355 8 -18599721.85023        28.250           2.750
 91  7  9  4 45 59.9970000  0  5G 3G21G17G11G23
  23019370.712    11841372.810 5   9227036.67721        10.250           0.219
  21047875.501   -16079256.931 7 -12215144.51621        23.500           1.313
  20857839.720    -1014600.164 7   -790597.14722        20.500           2.000
  23755899.376     -744343.245 5   -338146.61121         9.500           0.406
  19676303.384   -23990089.705 8 -18597860.56923        29.000           2.656
 91  7  9  4 46 14.9970000  0  5G 3G21G17G11G23
  23029461.970    11894404.130 5   9268359.71621        10.250           0.313
  21040237.478   -16119401.319 7 -12246425.84821        23.750           1.344
  20862073.306     -992343.759 7   -773254.51322        20.500           2.000
  23744115.329     -806274.701 5   -386404.83121        10.500           0.500
  19676773.759   -23987615.385 8 -18595932.53823        28.750           2.781
 91  7  9  4 46 29.9970000  0  5G 3G21G17G11G23
  23039562.017    11947500.081 5   9309733.14121         9.750           0.188
  21032612.993   -16159468.566 7 -12277647.07921        23.750           1.313
  20866318.774     -970019.905 7   -755859.31422        20.500           1.969
  23732337.321     -868184.153 5   -434645.92421        11.000           0.438
  19677261.548   -23985050.090 8 -18593933.58723        28.000           2.719
 91  7  9  4 46 44.9970000  0  5G 3G21G17G11G23
  23049675.181    12000648.309 5   9351147.30121         9.000           0.219
  21025002.446   -16199470.328 7 -12308817.27221        24.000           1.406
  20870581.220     -947640.549 7   -738420.84422        21.000           1.844
  23720552.712     -930083.083 5   -482878.81621        11.000           0.281
  19677764.556   -23982405.857 8 -18591873.13423        28.000           2.813
 91  7  9  4 46 59.9970000  0  5G 3G21G17G11G23
  23059799.517    12053855.958 5   9392607.74821         9.000           0.156
  21017402.517   -16239399.310 7 -12339930.75421        23.750           1.281
  20874850.798     -925198.449 7   -720933.49222        21.000           1.844
  23708780.532     -991963.915 5   -531097.63221        11.250           0.344
  19678285.399   -23979675.739 8 -18589745.76123        28.500           2.656
 91  7  9  4 47 14.9970000  0  5G 3G21G17G11G23
  23069938.446    12107114.918 5   9434108.17321         9.000           0.344
  21009815.743   -16279263.100 7 -12370993.43121        23.500           1.438
  20879131.110     -902701.283 7   -703403.24022        21.500           1.719
  23697004.017    -1053833.922 5   -579307.99221        10.750           0.375
  19678818.478   -23976867.532 8 -18587557.57323        28.250           2.719
 91  7  9  4 47 29.9970000  0  5G 3G21G17G11G23
  23080087.134    12160429.695 5   9475652.11321         8.750           0.281
  21002245.040   -16319056.719 7 -12402001.44222        23.750           1.500
  20883422.978     -880144.297 7   -685826.37222        21.500           1.813
  23685236.782    -1115688.096 5   -627505.98021        10.500           0.531
  19679369.165   -23973976.573 7 -18585304.88523        27.750           2.656
 91  7  9  4 47 44.9970000  0  5G 3G21G17G11G23
  23090240.579    12213803.132 5   9517241.74121         8.500           0.250
  20994685.712   -16358777.084 7 -12432952.36921        23.000           1.438
  20887729.142     -857524.507 7   -668200.56622        22.500           1.750
  23673467.165    -1177522.882 5   -675688.86621        10.500           0.469
  19679936.384   -23970999.697 8 -18582985.21523        28.000           2.750
 91  7  9  4 47 59.9970000  0  5G 3G21G17G11G23
  23100406.767    12267234.988 5   9558876.91521         7.750           0.281
  20987141.782   -16398424.248 7 -12463846.26122        23.500           1.625
  20892045.704     -834841.628 7   -650525.59922        23.000           1.906
  23661705.946    -1239337.924 5   -723856.38821        10.500           0.313
  19680518.907   -23967937.281 7 -18580598.89123        27.500           2.656
 91  7  9  4 48 14.9970000  0  5G 3G21G17G11G23
  23110589.759    12320721.708 5   9600554.81621         8.250           0.188
  20979611.009   -16438001.410 7 -12494685.59922        23.750           1.625
  20896374.353     -812099.187 7   -632804.22322        23.000           1.719
  23649945.360    -1301136.194 5   -772010.88121        10.750           0.281
  19681116.040   -23964792.634 7 -18578148.51323        27.500           2.688
 91  7  9  4 48 29.9970000  0  5G 3G21G17G11G23
  23120772.517    12374260.994 5   9642273.69221         8.000           0.281
  20972092.767   -16477510.133 7 -12525471.60722        23.250           1.719
  20900713.009     -789298.719 7   -615037.63122        22.750           1.844
  23638188.892    -1362919.034 5   -820153.28021        11.000           0.406
  19681730.642   -23961567.650 8 -18575635.53523        28.250           2.781
 91  7  9  4 48 44.9970000  0  5G 3G21G17G11G23
  23130973.759    12427857.185 5   9684036.93121         7.750           0.250
  20964586.649   -16516945.910 7 -12556200.78022        22.250           1.813
  20905062.907     -766435.611 7   -597222.22522        23.250           1.813
  23626436.587    -1424681.633 5   -868279.94121        10.750           0.469
  19682359.813   -23958257.963 8 -18573056.56223        28.500           2.813
 91  7  9  4 48 59.9970000  0  5G 3G21G17G11G23
  23141183.118    12481510.989 4   9725845.01321         7.250           0.219
  20957095.056   -16556307.734 7 -12586872.32222        21.500           1.719
  20909426.173     -743509.166 7   -579357.47622        23.750           1.875
  23614688.782    -1486422.776 5   -916389.84421        11.000           0.500
  19683007.407   -23954862.956 8 -18570411.10523        29.000           2.781
 91  7  9  4 49 14.9970000  0  5G 3G21G17G11G23
  23151405.376    12535215.455 4   9767692.61521         7.250           0.313
  20949618.376   -16595602.163 7 -12617491.35022        21.750           1.719
  20913800.696     -720525.989 7   -561448.50922        24.250           1.938
  23602942.595    -1548148.565 5   -964487.82021        10.750           0.469
  19683666.743   -23951389.089 8 -18567704.19423        29.250           2.781
 91  7  9  4 49 29.9970000  0  5G 3G21G17G11G23
  23161628.165    12588975.882 4   9809583.81021         7.250           0.313
  20942151.673   -16634823.407 7 -12648053.35722        21.250           1.750
  20918184.501     -697480.377 7   -543490.90222        23.250           1.813
  23591198.001    -1609852.931 5  -1012569.11121        10.000           0.469
  19684345.751   -23947830.905 8 -18564931.59023        30.000           2.781
 91  7  9  4 49 44.9970000  0  5G 3G21G17G11G23
  23171873.595    12642789.864 5   9851516.70721         7.500           0.281
  20934707.532   -16673973.609 7 -12678560.00622        22.250           1.813
  20922581.946     -674374.494 7   -525486.32022        23.000           2.031
  23579461.103    -1671537.834 5  -1060635.21921        10.000           0.469
  19685036.118   -23944190.826 8 -18562095.15923        29.250           2.688
 91  7  9  4 49 59.9970000  0  5G 3G21G17G11G23
  23182125.282    12696655.552 5   9893489.91221         8.000           0.344
  20927268.376   -16713054.344 7 -12709012.53022        21.500           2.031
  20926989.478     -651209.889 7   -507435.97622        22.000           2.000
  23567721.462    -1733204.469 5  -1108687.07621        10.250           0.625
  19685746.267   -23940470.521 8 -18559196.23023        31.000           2.813
 91  7  9  4 50 14.9970000  0  5G 3G21G17G11G23
  23192387.892    12750579.631 5   9935508.60421         7.750           0.156
  20919847.095   -16752058.458 7 -12739405.34522        21.500           2.094
  20931410.173     -627979.456 7   -489334.34322        23.000           2.125
  23555996.103    -1794845.441 5  -1156718.93621        10.250           0.594
  19686470.821   -23936663.050 8 -18556229.35523        30.500           2.844
 91  7  9  4 50 29.9970000  0  5G 3G21G17G11G23
  23202658.267    12804564.591 5   9977574.74821         7.750           0.219
  20912440.431   -16790982.912 7 -12769736.09122        21.750           2.063
  20935844.063     -604680.460 7   -471179.27922        23.000           1.875
  23544270.251    -1856457.478 5  -1204728.26821         9.750           0.500
  19687211.946   -23932765.764 8 -18553192.50223        30.500           2.750
 91  7  9  4 50 44.9970000  0  5G 3G21G17G11G23
  23212940.181    12858602.201 5  10019681.91821         7.500           0.219
  20905045.962   -16829835.533 7 -12800010.86022        21.500           2.094
  20940289.196     -581320.817 7   -452976.97522        22.750           1.969
  23532550.212    -1918048.237 5  -1252721.02421         9.750           0.625
  19687969.571   -23928786.698 8 -18550091.94123        30.750           2.750
 91  7  9  4 50 59.9970000  0  5G 3G21G17G11G23
  23223226.470    12912693.456 5  10061830.92821         7.500           0.156
  20897666.368   -16868615.276 7 -12830228.84222        22.000           2.125
  20944745.110     -557899.422 7   -434726.54122        21.250           1.813
  23520831.634    -1979616.378 5  -1300696.15221        10.500           0.531
  19688741.493   -23924724.782 8 -18546926.80623        31.000           2.969
 91  7  9  4 51 14.9970000  0  5G 3G21G17G11G23
  23233542.392    12966840.255 5  10104023.17021         8.500           0.125
  20890301.321   -16907319.779 7 -12860388.18422        21.750           2.188
  20949214.915     -534413.961 7   -416426.18622        21.500           1.781
  23509123.243    -2041159.024 5  -1348651.41521        11.000           0.500
  19689530.017   -23920577.813 8 -18543695.39423        30.000           2.969
 91  7  9  4 51 29.9970000  0  5G 3G21G17G11G23
  23243855.618    13021039.456 5  10146256.23421         9.000           0.219
  20882951.243   -16945951.863 7 -12890491.09622        21.750           2.250
  20953694.048     -510867.428 7   -398078.24822        21.250           1.813
  23497417.759    -2102678.663 5  -1396588.74821        11.000           0.531
  19690335.665   -23916349.005 8 -18540400.22623        30.750           3.031
 91  7  9  4 51 44.9970000  0  5G 3G21G17G11G23
  23254174.681    13075288.920 5  10188528.49321         8.500           0.219
  20875612.079   -16984512.996 7 -12920538.72622        21.250           2.188
  20958186.548     -487261.303 7   -379683.86722        21.000           1.781
  23485716.024    -2164176.582 5  -1444509.16521        11.500           0.469
  19691154.149   -23912040.118 8 -18537042.64923        30.500           2.875
 91  7  9  4 51 59.9970000  0  5G 3G21G17G11G23
  23264506.556    13129587.979 5  10230839.36721         9.000           0.188
  20868288.313   -17023003.760 7 -12950531.52722        22.250           2.125
  20962692.384     -463596.171 7   -361243.49922        21.000           1.656
  23474015.478    -2225652.956 5  -1492412.79621        11.500           0.500
  19691989.657   -23907651.725 8 -18533623.12323        29.750           2.938
 91  7  9  4 52 14.9970000  0  5G 3G21G17G11G23
  23274848.696    13183936.608 5  10273188.90021         9.000           0.219
  20860977.290   -17061423.760 7 -12980469.18922        22.000           2.156
  20967206.743     -439871.773 7   -342756.96522        22.000           1.625
  23462321.009    -2287107.208 5  -1540299.19621        11.250           0.469
  19692839.649   -23903183.654 8 -18530141.51723        29.500           2.750
 91  7  9  4 52 29.9970000  0  5G 3G21G17G11G23
  23285200.915    13238337.034 5  10315578.79821         8.250           0.250
  20853677.431   -17099770.414 7 -13010349.69122        21.500           2.156
  20971732.423     -416085.598 7   -324222.28322        21.750           1.750
  23450629.915    -2348536.552 5  -1588166.18921        11.750           0.594
  19693705.478   -23898633.703 8 -18526596.10123        29.750           2.750
 91  7  9  4 52 44.9970000  0  5G 3G21G17G11G23
  23295566.462    13292793.613 5  10358012.42621         8.000           0.156
  20846396.728   -17138038.894 7 -13040169.28722        22.000           2.188
  20976269.392     -392232.879 7   -305635.76122        21.250           1.688
  23438947.353    -2409935.698 6  -1636009.65621        12.250           0.563
  19694586.579   -23893997.286 8 -18522983.31723        29.250           2.844
 91  7  9  4 52 59.9970000  0  5G 3G21G17G11G23
  23305934.181    13347298.147 5  10400483.45621         7.500           0.250
  20839127.345   -17176237.147 7 -13069934.14822        21.750           2.188
  20980822.782     -368321.555 7   -287003.57122        21.500           1.656
  23427267.774    -2471312.282 6  -1683835.53021        12.000           0.594
  19695486.985   -23889282.227 8 -18519309.23323        30.000           2.781
 91  7  9  4 53 14.9970000  0  4G21G17G11G23
  20831870.782   -17214369.982 7 -13099648.04522        22.000           2.281
  20985381.931     -344356.630 7   -268329.60822        21.500           1.625
  23415590.907    -2532671.093 6  -1731647.51221        12.250           0.531
  19696396.743   -23884493.902 8 -18515578.07323        29.250           2.875
 91  7  9  4 53 29.9970000  0  4G21G17G11G23
  20824629.688   -17252429.087 7 -13129304.48622        22.250           2.406
  20989953.649     -320329.853 7   -249607.45122        21.500           1.563
  23403919.563    -2594003.331 6  -1779438.84821        13.500           0.594
  19697323.579   -23879624.125 8 -18511783.44523        29.000           2.906
 91  7  9  4 53 44.9970000  0  4G21G17G11G23
  20817399.423   -17290419.481 7 -13158907.38023        22.250           2.563
  20994534.212     -296246.165 7   -230840.95022        22.000           1.719
  23392253.735    -2655313.804 6  -1827213.21721        14.250           0.563
  19698264.493   -23874677.890 8 -18507929.23523        28.000           2.906
 91  7  9  4 53 59.9970000  0  4G21G17G11G23
  20810185.165   -17328333.398 7 -13188450.68223        22.250           2.531
  20999134.220     -272097.945 7   -212024.15322        22.500           1.781
  23380593.563    -2716594.330 6  -1874964.24321        13.500           0.438
  19699220.751   -23869647.722 7 -18504009.61723        27.500           2.844
 91  7  9  4 54 14.9970000  0  4G21G17G11G23
  20802983.384   -17366173.308 7 -13217936.32123        22.750           2.688
  21003737.923     -247887.520 7   -193158.89722        21.750           1.594
  23368936.368    -2777846.909 6  -1922693.47621        13.250           0.594
  19700195.845   -23864536.282 7 -18500026.68923        27.750           2.969
 91  7  9  4 54 29.9970000  0  4G21G17G11G23
  20795798.399   -17403942.425 7 -13247366.81023        24.000           2.563
  21008357.181     -223618.291 7   -174247.80922        21.250           1.688
  23357285.978    -2839074.479 6  -1970403.22521        12.750           0.531
  19701182.376   -23859347.078 7 -18495983.16723        27.750           2.906
 91  7  9  4 54 44.9970000  0  4G21G17G11G23
  20788624.649   -17441641.329 7 -13276742.56722        23.750           2.469
  21012988.649     -199290.747 7   -155291.28922        22.250           1.781
  23345634.384    -2900277.517 6  -2018093.87421        13.000           0.500
  19702183.970   -23854080.929 7 -18491879.68923        27.750           3.063
 91  7  9  4 54 59.9970000  0  4G21G17G11G23
  20781463.235   -17479268.666 7 -13306062.56523        23.250           2.531
  21017626.837     -174903.894 7   -136288.54222        21.500           1.875
  23333997.728    -2961454.341 6  -2065764.10721        12.500           0.500
  19703200.306   -23848736.579 7 -18487715.25523        27.500           2.938
 91  7  9  4 55 14.9970000  0  4G21G17G11G23
  20774317.009   -17516819.916 7 -13335323.28123        23.000           2.625
  21022280.399     -150453.221 7   -117236.07422        21.500           1.875
  23322359.149    -3022599.930 6  -2113409.98821        12.500           0.500
  19704233.712   -23843309.629 7 -18483486.44223        27.500           2.875
 91  7  9  4 55 29.9970000  0  4G21G17G11G23
  20767186.501   -17554294.878 7 -13364524.54823        23.250           2.531
  21026946.267     -125938.463 7    -98133.68222        22.000           1.781
  23310732.353    -3083713.927 6  -2161031.23421        12.250           0.594
  19705282.321   -23837800.120 7 -18479193.31723        27.750           2.719
 91  7  9  4 55 44.9970000  0  4G21G17G11G23
  20760068.142   -17591699.246 7 -13393670.80423        24.000           2.594
  21031620.665     -101365.543 7    -78985.96522        21.500           1.844
  23299107.618    -3144801.696 6  -2208632.07021        12.000           0.438
  19706345.493   -23832214.007 7 -18474840.50723        27.250           2.875
 91  7  9  4 55 59.9970000  0  4G21G17G11G23
  20752964.079   -17629030.557 7 -13422760.13223        24.500           2.531
  21036308.876      -76731.993 7    -59790.99822        21.000           1.781
  23287489.321    -3205860.489 6  -2256210.31921        12.250           0.438
  19707423.251   -23826549.008 7 -18470426.22323        26.500           2.969
 91  7  9  4 56 14.9970000  0  4G21G17G11G23
  20745874.743   -17666285.308 7 -13451789.80223        24.250           2.531
  21041008.610      -52034.597 7    -40546.26822        21.250           1.625
  23275874.946    -3266886.627 6  -2303763.13221        12.250           0.469
  19708518.438   -23820802.020 7 -18465948.06123        26.500           2.906
 91  7  9  4 56 29.9970000  0  4G21G17G11G23
  20738800.306   -17703469.077 7 -13480764.16023        24.750           2.625
  21045717.868      -27278.700 7    -21255.96222        20.750           1.750
  23264267.298    -3327885.100 6  -2351294.36621        12.750           0.438
  19709625.790   -23814978.563 7 -18461410.29323        26.750           3.063
 91  7  9  4 56 44.9970000  0  4G21G17G11G23
  20731738.579   -17740579.028 7 -13509681.00623        25.250           2.563
  21050441.524       -2461.269 7     -1917.70122        20.750           1.719
  23252664.095    -3388852.784 6  -2398801.61921        12.250           0.438
  19710748.204   -23809075.951 7 -18456810.84923        26.250           3.000
 91  7  9  4 56 59.9970000  0  4G21G17G11G23
  20724688.790   -17777614.647 7 -13538539.94723        24.250           2.625
  21055175.524       22417.824 7     17468.60222        21.500           1.688
  23241071.040    -3449788.892 6  -2446284.26921        12.500           0.563
  19711887.337   -23803094.071 7 -18452149.64623        26.250           3.094
 91  7  9  4 57 14.9970000  0  4G21G17G11G23
  20717655.485   -17814576.578 7 -13567341.44623        25.000           2.563
  21059921.548       47357.817 7     36902.35722        21.500           1.625
  23229479.384    -3510693.811 6  -2493742.61021        13.250           0.594
  19713039.642   -23797033.820 7 -18447427.36523        25.500           3.094
 91  7  9  4 57 29.9970000  0  4G21G17G11G23
  20710636.813   -17851465.626 7 -13596086.15023        25.750           2.563
  21064678.384       72357.531 7     56382.63322        22.000           1.656
  23217896.142    -3571568.123 6  -2541177.12521        13.250           0.531
  19714208.603   -23790896.123 7 -18442644.73823        25.250           3.031
 91  7  9  4 57 44.9970000  0  4G21G17G11G23
  20703628.618   -17888287.625 7 -13624778.61323        25.250           2.688
  21069448.048       97411.271 7     75905.00522        22.250           1.625
  23206317.712    -3632417.276 6  -2588592.04121        12.000           0.469
  19715391.267   -23784686.968 7 -18437806.43523        25.750           3.188
 91  7  9  4 57 59.9970000  0  4G21G17G11G23
  20696633.024   -17925037.821 7 -13653415.12023        24.750           2.750
  21074225.048      122524.027 7     95473.38122        22.250           1.500
  23194740.938    -3693236.136 6  -2635983.33321        12.750           0.500
  19716584.556   -23778401.892 7 -18432908.97023        25.500           3.094
 91  7  9  4 58 14.9970000  0  4G21G17G11G23
  20689654.665   -17961715.353 7 -13681995.00323        24.500           2.656
  21079017.353      147696.466 7    115088.27721        22.250           1.469
  23183176.032    -3754023.462 6  -2683350.07421        14.250           0.406
  19717796.774   -23772040.353 7 -18427951.92223        25.250           3.094
 91  7  9  4 58 29.9970000  0  4G21G17G11G23
  20682691.938   -17998319.956 7 -13710518.06323        26.000           2.813
  21083817.017      172928.923 7    134749.92622        20.750           1.594
  23171615.306    -3814778.711 6  -2730691.80121        14.250           0.656
  19719022.181   -23765601.965 7 -18422934.99523        25.750           3.156
 91  7  9  4 58 44.9970000  0  4G21G17G11G23
  20675738.720   -18034849.193 7 -13738982.40523        25.750           2.813
  21088630.009      198223.579 7    154460.04622        21.250           1.563
  23160060.985    -3875499.094 6  -2778006.37421        14.250           0.531
  19720262.087   -23759084.469 7 -18417856.43023        25.500           3.250
 91  7  9  4 58 59.9970000  0  4G21G17G11G23
  20668802.462   -18071303.912 7 -13767388.66423        26.500           2.781
  21093457.017      223579.548 7    174217.94521        20.250           1.438
  23148512.251    -3936185.059 6  -2825294.10721        13.750           0.531
  19721516.626   -23752489.039 7 -18412717.12323        25.500           3.281
 91  7  9  4 59 14.9970000  0  4G21G17G11G23
  20661878.017   -18107679.182 7 -13795733.02623        25.750           2.688
  21098293.665      249001.932 7    194027.61022        21.000           1.500
  23136969.017    -3996831.405 6  -2872550.97921        13.750           0.531
  19722787.267   -23745810.855 7 -18407513.33823        25.750           3.375
 91  7  9  4 59 29.9970000  0  4G21G17G11G23
  20654970.563   -18143988.121 7 -13824025.70123        25.500           2.594
  21103139.267      274477.123 7    213878.40422        21.000           1.531
  23125435.118    -4057450.900 6  -2919786.95321        14.750           0.500
  19724071.063   -23739063.116 7 -18402255.35423        25.750           3.469
 91  7  9  4 59 44.9970000  0  4G21G17G11G23
  20648075.868   -18180224.306 7 -13852261.70123        26.000           2.594
  21108001.485      300011.840 7    233775.58422        21.250           1.656
  23113905.813    -4118036.787 6  -2966996.72521        14.500           0.531
  19725369.009   -23732239.649 7 -18396938.35524        25.250           3.500
 91  7  9  4 59 59.9970000  0  4G21G17G11G23
  20641195.478   -18216386.264 7 -13880439.84123        26.250           2.531
  21112873.251      325607.645 7    253720.36522        21.750           1.719
  23102384.540    -4178587.366 6  -3014178.96821        14.250           0.594
  19726683.446   -23725339.525 7 -18391561.63424        25.750           3.531
 91  7  9  5  0 14.9970000  0  4G21G17G11G23
  20634327.415   -18252474.351 7 -13908560.42023        26.750           2.625
  21117752.228      351263.566 7    273711.98822        21.000           1.750
  23090868.384    -4239102.835 6  -3061333.86021        14.000           0.469
  19728012.079   -23718363.293 7 -18386125.60624        26.750           3.594
 91  7  9  5  0 29.9970000  0  4G21G17G11G23
  20627474.821   -18288491.145 7 -13936625.44922        26.500           2.469
  21122645.446      376977.050 7    293748.46422        20.250           1.688
  23079359.360    -4299585.194 6  -3108462.96421        13.500           0.500
  19729351.704   -23711313.530 7 -18380632.28524        27.250           3.531
 91  7  9  5  0 44.9970000  0  4G21G17G11G23
  20620633.181   -18324433.504 7 -13964632.47823        25.750           2.531
  21127551.337      402751.358 7    313832.33022        20.250           1.594
  23067853.751    -4360031.016 6  -3155563.56021        13.250           0.531
  19730708.407   -23704187.260 7 -18375079.35023        27.250           3.438
 91  7  9  5  0 59.9970000  0  4G21G17G11G23
  20613807.743   -18360302.136 7 -13992582.06322        25.250           2.375
  21132467.876      428585.687 7    333962.97522        20.750           1.531
  23056359.321    -4420440.712 6  -3202636.06421        13.500           0.594
  19732078.899   -23696985.245 8 -18369467.39123        28.000           3.438
 91  7  9  5  1 14.9970000  0  4G21G17G11G23
  20606996.165   -18396097.631 7 -14020474.64022        25.750           2.406
  21137393.743      454479.525 7    354139.98621        20.250           1.438
  23044870.970    -4480814.504 6  -3249680.56021        13.250           0.594
  19733463.970   -23689708.560 8 -18363797.22424        28.500           3.594
 91  7  9  5  1 29.9970000  0  4G21G17G11G23
  20600197.501   -18431819.582 7 -14048309.92122        26.000           2.313
  21142335.079      480433.289 7    374363.68222        21.250           1.500
  23033389.032    -4541151.525 6  -3296696.38821        13.750           0.531
  19734862.157   -23682356.950 8 -18358068.69924        28.250           3.563
 91  7  9  5  1 44.9970000  0  4G21G17G11G23
  20593418.759   -18467463.803 7 -14076084.63622        27.000           2.344
  21147284.603      506450.915 7    394637.14622        21.000           1.500
  23021917.837    -4601447.362 6  -3343680.13521        13.500           0.594
  19736276.306   -23674926.437 8 -18352278.69224        28.000           3.656
 91  7  9  5  1 59.9970000  0  4G21G17G11G23
  20586648.485   -18503036.791 7 -14103803.84022        26.500           2.219
  21152246.438      532526.000 7    414955.39522        21.500           1.625
  23010447.259    -4661708.252 6  -3390636.64621        14.250           0.625
  19737703.478   -23667423.331 7 -18346432.11224        27.750           3.500
 91  7  9  5  2 14.9970000  0  4G21G17G11G23
  20579891.571   -18538536.121 7 -14131465.65622        26.000           2.219
  21157220.868      558660.863 7    435320.22622        21.250           1.500
  22998990.290    -4721931.329 6  -3437563.72021        13.500           0.688
  19739146.735   -23659845.589 8 -18340527.38224        28.750           3.625
 91  7  9  5  2 29.9970000  0  4G21G17G11G23
  20573150.126   -18573959.907 7 -14159068.60822        26.250           2.188
  21162206.048      584857.080 7    455732.87222        21.250           1.563
  22987537.970    -4782114.442 6  -3484459.61521        13.000           0.656
  19740602.462   -23652191.611 8 -18334563.23924        28.250           3.563
 91  7  9  5  2 44.9970000  0  4G21G17G11G23
  20566425.032   -18609308.580 7 -14186613.03222        26.250           2.125
  21167201.563      611114.349 7    476193.08121        21.000           1.375
  22976092.478    -4842257.662 6  -3531324.42921        13.750           0.656
  19742073.610   -23644461.917 7 -18328540.10123        27.750           3.438
 91  7  9  5  2 59.9970000  0  4G21G17G11G23
  20559711.103   -18644584.796 7 -14214100.98522        25.750           2.125
  21172208.657      637430.120 7    496698.86422        21.500           1.531
  22964655.306    -4902363.309 6  -3578159.97521        13.750           0.719
  19743558.134   -23636659.434 7 -18322460.23723        27.750           3.438
 91  7  9  5  3 14.9970000  0  4G21G17G11G23
  20553013.595   -18679786.031 7 -14241530.49822        26.250           2.250
  21177228.829      663806.716 7    517252.04122        21.250           1.500
  22953224.696    -4962428.501 6  -3624964.00121        13.750           0.688
  19745057.704   -23628782.055 7 -18316322.02223        27.750           3.438
 91  7  9  5  3 29.9970000  0  4G21G17G11G23
  20546328.298   -18714915.247 7 -14268903.90022        26.250           2.250
  21182260.165      690240.908 7    537850.11122        21.250           1.625
  22941801.118    -5022455.934 6  -3671738.58921        13.750           0.594
  19746570.134   -23620832.767 7 -18310127.77023        27.250           3.438
 91  7  9  5  3 44.9970000  0  4G21G17G11G23
  20539654.071   -18749973.699 7 -14296222.18722        25.250           2.156
  21187300.735      716731.700 7    558492.25922        21.000           1.594
  22930385.759    -5082446.505 6  -3718484.46921        14.500           0.625
  19748097.235   -23612813.048 8 -18303878.63523        28.250           3.375
 91  7  9  5  3 59.9970000  0  4G21G17G11G23
  20532998.548   -18784960.216 7 -14323484.40922        26.000           2.188
  21192355.110      743279.998 7    579179.23322        21.500           1.656
  22918977.110    -5142398.588 6  -3765200.38521        13.750           0.469
  19749635.220   -23604721.769 8 -18297573.74623        28.000           3.250
 91  7  9  5  4 14.9970000  0  4G21G17G11G23
  20526354.696   -18819873.916 7 -14350689.89622        25.750           2.156
  21197416.548      769886.737 7    599911.75722        20.750           1.656
  22907576.493    -5202310.908 6  -3811885.29221        14.500           0.656
  19751190.126   -23596558.254 8 -18291212.55923        28.250           3.281
 91  7  9  5  4 29.9970000  0  4G21G17G11G23
  20519721.837   -18854714.281 7 -14377838.23522        25.250           2.250
  21202489.501      796552.411 7    620690.19922        20.500           1.781
  22896183.126    -5262182.599 6  -3858538.53221        15.500           0.625
  19752756.095   -23588322.077 8 -18284794.75423        28.000           3.313
 91  7  9  5  4 44.9970000  0  4G21G17G11G23
  20513108.212   -18889481.607 7 -14404929.64922        25.250           2.125
  21207574.509      823276.481 7    641514.14222        20.750           1.688
  22884796.040    -5322013.833 6  -3905160.25321        14.500           0.656
  19754337.595   -23580013.814 8 -18278320.79123        28.500           3.313
 91  7  9  5  4 59.9970000  0  4G21G17G11G23
  20506506.563   -18924175.656 7 -14431963.96222        24.750           2.219
  21212671.782      850059.154 7    662383.74122        20.500           1.750
  22873419.462    -5381803.955 6  -3951749.93421        14.750           0.656
  19755931.892   -23571633.661 8 -18271790.81723        28.250           3.250
 91  7  9  5  5 14.9970000  0  4G21G17G11G23
  20499918.485   -18958791.540 7 -14458937.36722        25.000           2.125
  21217779.446      876905.419 7    683302.90822        20.750           1.625
  22862050.696    -5441547.699 6  -3998303.48221        15.250           0.531
  19757541.376   -23563176.794 7 -18265201.05723        27.750           3.125
 91  7  9  5  5 29.9970000  0  4G21G17G11G23
  20493346.688   -18993331.371 7 -14485851.51722        25.250           2.156
  21222901.603      903812.941 7    704269.79722        21.000           1.688
  22850690.103    -5501246.740 6  -4044822.20021        15.500           0.656
  19759164.853   -23554645.365 7 -18258553.20023        27.000           3.125
 91  7  9  5  5 44.9970000  0  4G21G17G11G23
  20486788.517   -19027801.078 7 -14512711.00822        26.000           2.156
  21228031.751      930775.596 7    725279.64422        21.250           1.594
  22839335.446    -5560906.863 6  -4091310.60221        15.250           0.594
  19760800.563   -23546045.511 7 -18251852.01423        26.500           3.000
 91  7  9  5  5 59.9970000  0  4G21G17G11G23
  20480239.970   -19062199.127 7 -14539514.66522        24.750           2.094
  21233173.313      957795.043 7    746333.75422        21.250           1.625
  22827992.829    -5620525.941 6  -4137767.00321        16.000           0.563
  19762450.743   -23537375.909 7 -18245096.48623        26.500           2.938
 91  7  9  5  6 14.9970000  0  4G21G17G11G23
  20473710.142   -19096517.415 7 -14566256.16122        25.000           2.031
  21238326.501      984879.560 7    767438.57222        20.250           1.688
  22816655.181    -5680095.609 6  -4184184.90521        15.250           0.656
  19764115.673   -23528628.686 7 -18238280.46923        26.500           2.906
 91  7  9  5  6 29.9970000  0  4G21G17G11G23
  20467193.892   -19130761.953 7 -14592940.21522        25.000           2.250
  21243488.642     1012022.929 6    788589.24722        19.500           1.594
  22805327.306    -5739621.462 6  -4230568.65021        15.500           0.688
  19765793.313   -23519810.030 7 -18231408.79323        26.500           2.938
 91  7  9  5  6 44.9970000  0  4G21G17G11G23
  20460692.485   -19164930.826 7 -14619565.29722        24.500           2.344
  21248669.196     1039226.895 7    809787.13422        20.500           1.625
  22794007.321    -5799101.418 6  -4276916.62721        15.500           0.563
  19767484.657   -23510918.242 7 -18224480.12223        26.750           2.906
 91  7  9  5  6 59.9970000  0  4G21G17G11G23
  20454202.142   -19199025.354 7 -14646132.45822        23.750           2.313
  21253858.017     1066490.229 6    831031.27422        19.750           1.656
  22782700.009    -5858536.368 6  -4323229.56921        16.000           0.656
  19769191.103   -23501954.841 7 -18217495.65123        27.000           2.813
 91  7  9  5  7 14.9970000  0  4G21G17G11G23
  20447729.634   -19233043.673 7 -14672640.23822        24.000           2.344
  21259057.938     1093814.506 6    852322.90322        19.750           1.781
  22771397.876    -5917924.078 6  -4369505.67221        15.500           0.625
  19770912.282   -23492918.144 7 -18210454.07723        27.250           2.844
 91  7  9  5  7 29.9970000  0  4G21G17G11G23
  20441271.399   -19266986.292 7 -14699089.01122        24.750           2.438
  21264267.813     1121199.380 6    873661.75922        19.000           1.719
  22760107.040    -5977264.678 6  -4415745.07621        16.000           0.625
  19772643.462   -23483808.810 7 -18203355.89223        26.750           2.813
